GFSMA_sfc_thetae_000.txt.gz
Theta_e
290 290 288 287 287 287 287 286 287 287 287 287 287 287 287 287 288 289 289 299 304 308 312 314 315 316 318 319 319 319 320 321 321 321 321 322 322 322 322 324 327 328 329
290 289 288 287 286 286 286 286 286 285 285 286 286 286 287 287 287 288 289 290 301 305 309 311 312 313 315 315 316 318 318 322 320 319 318 319 321 322 324 324 327 328 329
289 289 288 286 285 285 286 285 285 284 284 285 284 285 286 287 287 288 289 289 290 299 305 310 311 312 312 315 316 314 317 314 314 317 315 314 317 319 322 323 323 323 326
289 288 287 285 285 285 284 284 283 283 283 283 283 284 284 286 287 288 287 288 289 290 296 303 304 309 310 312 312 315 312 316 317 314 311 312 314 313 314 316 320 319 322
289 288 287 285 285 284 283 283 282 282 282 282 283 283 284 285 286 287 285 287 287 288 288 294 296 298 302 306 308 310 313 313 312 310 311 313 313 311 312 314 315 316 316
288 287 286 285 284 283 283 282 282 282 282 281 283 283 283 284 284 284 284 286 286 287 286 286 287 289 298 300 302 306 308 309 309 309 309 309 310 311 313 314 315 314 314
288 287 286 284 284 283 282 282 282 281 281 281 281 282 282 284 284 284 284 283 284 285 285 285 286 287 288 296 300 304 306 307 308 307 308 308 309 310 310 311 312 312 313
287 287 286 284 284 282 282 281 282 281 281 280 280 279 279 280 282 284 283 284 282 283 284 285 285 286 287 286 293 300 303 305 306 306 305 305 306 307 308 309 310 311 312
286 286 285 285 283 283 282 281 281 281 280 280 280 281 278 278 278 281 282 282 281 282 282 283 284 285 285 286 289 293 298 299 301 301 302 303 304 305 306 308 308 309 310
286 285 285 284 283 282 281 281 281 280 281 279 280 281 279 279 277 277 279 280 281 281 281 282 282 283 285 286 290 294 293 295 296 296 297 299 301 302 304 305 306 307 308
285 284 284 283 282 282 281 281 280 280 280 280 280 279 278 278 278 277 276 278 279 279 281 281 281 282 284 286 287 288 291 292 292 293 294 295 297 299 301 302 304 305 306
283 283 283 283 283 282 281 281 280 280 280 279 279 279 279 277 277 277 276 276 276 278 279 280 281 282 284 284 286 288 288 289 290 291 292 293 294 296 297 299 300 302 303
283 283 283 282 281 282 281 281 280 280 279 279 279 278 279 278 279 278 277 276 276 278 279 279 280 282 283 282 282 284 284 286 287 289 290 290 292 293 294 296 298 299 300
285 283 282 282 281 281 280 280 280 279 279 279 278 278 279 279 279 279 278 277 275 276 278 277 280 279 280 280 280 282 279 282 285 287 288 288 290 291 292 294 295 297 298
284 282 282 281 280 280 280 280 280 279 279 278 278 278 278 278 279 279 279 278 276 273 274 276 277 279 279 278 279 278 278 280 283 284 286 287 288 290 291 292 293 295 296
282 281 281 281 280 280 280 280 279 278 278 278 278 278 278 278 278 278 279 278 277 274 272 275 277 277 277 277 278 277 277 279 280 282 284 286 287 289 290 291 292 293 294
282 281 281 281 280 280 280 280 279 278 278 277 277 277 277 277 276 275 276 275 275 275 272 273 275 275 275 274 275 276 276 276 277 281 283 285 287 287 288 289 289 290 292
281 281 281 280 280 280 280 279 278 278 277 277 277 277 276 276 274 273 273 273 273 273 272 270 272 272 273 273 274 274 275 277 277 280 283 285 285 285 286 287 288 288 289
282 281 281 280 280 280 279 280 279 278 278 277 277 276 275 274 272 272 271 271 271 272 271 270 270 272 272 273 273 274 275 276 278 280 282 282 283 284 285 286 286 286 286
282 281 281 281 280 280 280 279 279 278 277 277 277 276 274 273 272 271 271 270 271 270 270 270 270 270 271 274 274 274 274 276 276 278 279 280 281 282 283 284 284 284 284
282 282 281 280 280 280 279 279 279 278 276 276 275 275 274 274 276 273 271 270 270 268 268 268 269 270 272 273 273 274 273 274 275 277 277 278 278 279 279 281 281 282 283
281 281 280 280 279 279 283 284 280 277 277 275 274 274 273 274 276 278 277 276 272 266 262 264 271 271 273 273 274 273 273 273 272 277 276 274 276 276 277 278 282 283 285
281 280 280 279 279 279 284 285 284 278 276 275 274 273 272 273 273 275 278 277 277 277 274 272 272 273 273 273 274 274 274 274 273 274 273 270 274 273 276 277 280 282 283
279 279 279 279 279 279 284 286 284 277 276 275 274 273 273 272 273 274 275 275 275 275 275 275 274 274 274 275 276 277 275 271 271 272 273 268 272 271 274 275 279 281 282
279 280 280 279 278 278 283 286 283 276 276 274 274 274 273 273 275 277 273 271 272 273 276 278 279 280 280 279 278 271 264 263 265 268 271 270 271 271 272 273 275 280 281
278 278 278 278 278 277 283 285 282 275 273 273 273 273 275 274 277 278 272 270 268 271 273 271 273 274 273 272 274 272 266 259 264 263 273 269 270 270 268 272 274 274 274

GFSMA_sfc_thetae_003.txt.gz
Theta_e
301 301 299 297 296 294 294 294 294 294 294 293 293 293 293 294 294 296 298 305 308 313 316 317 317 319 321 321 320 321 324 324 322 321 320 321 321 323 322 325 326 327 329
299 299 295 293 293 293 293 293 293 293 293 292 291 292 292 293 294 295 296 301 306 310 313 314 315 316 316 318 319 317 319 317 318 317 315 317 319 319 321 322 322 323 325
297 296 294 292 292 292 292 291 291 291 291 291 291 291 292 293 294 294 295 296 302 308 310 312 313 315 316 316 316 318 316 319 318 315 313 316 315 315 315 316 320 320 322
296 295 293 292 291 291 291 291 290 289 290 291 290 290 291 293 293 292 293 294 294 294 298 302 308 311 310 311 311 311 317 315 314 313 315 315 313 313 314 315 315 317 316
295 294 293 292 290 290 290 289 288 289 289 289 289 290 291 292 291 291 291 292 292 292 292 297 300 303 304 305 308 311 311 312 312 312 311 312 312 314 315 316 316 315 315
294 294 293 291 290 289 288 288 288 288 289 289 287 288 290 290 290 291 290 290 291 291 291 292 293 295 300 304 307 309 310 311 310 310 311 311 311 311 312 312 313 314 315
293 293 292 290 289 289 289 288 288 288 287 287 288 288 289 289 289 290 290 289 289 289 290 290 291 292 294 301 304 307 310 310 310 308 307 308 308 309 310 310 311 312 312
293 292 291 290 289 288 287 287 287 286 286 286 289 288 286 288 289 289 289 288 287 289 288 289 289 290 291 294 301 303 304 305 305 304 304 304 305 306 308 308 309 310 311
292 292 291 290 289 289 287 287 287 288 286 285 285 290 285 288 286 287 287 288 287 287 288 288 288 289 290 293 296 295 298 299 300 301 301 302 303 304 305 307 307 308 309
291 292 290 289 289 288 287 286 287 287 287 286 285 285 285 287 287 284 285 286 287 286 286 287 287 288 290 293 292 293 293 294 295 296 297 299 300 302 303 304 306 306 307
290 289 289 288 288 287 287 286 285 285 287 287 286 284 284 284 284 285 285 284 285 285 286 286 287 289 291 290 290 290 290 291 292 293 294 295 297 299 301 303 304 304 305
288 288 288 288 288 287 286 286 286 286 286 286 286 285 285 284 283 283 283 283 283 284 285 286 287 289 288 287 287 286 287 288 290 291 292 293 294 296 298 300 301 302 303
286 287 287 287 287 287 286 286 285 285 285 285 285 285 285 285 284 284 283 281 282 283 284 286 286 287 285 286 284 284 283 285 287 289 290 291 292 294 295 297 298 299 301
288 288 286 287 286 285 285 285 285 285 285 285 284 284 284 284 284 284 283 282 280 280 282 282 286 285 284 284 282 282 282 282 285 287 288 289 291 292 293 295 296 297 298
288 287 286 285 285 284 284 284 284 283 283 284 284 283 283 283 284 284 284 284 285 280 279 281 282 283 283 282 281 281 280 280 283 284 286 287 289 291 292 293 294 295 296
286 285 285 285 284 284 284 284 284 283 282 282 283 282 282 282 282 283 283 282 282 283 280 280 281 282 281 280 280 279 279 279 280 282 284 286 288 289 290 291 292 293 294
285 284 284 284 283 283 283 283 283 282 282 282 281 281 281 281 281 281 281 281 281 280 280 277 279 279 278 278 278 278 279 279 280 281 283 285 287 287 288 289 290 291 292
284 284 284 283 283 283 282 282 282 281 281 280 280 280 280 280 279 280 280 279 279 279 278 277 275 276 276 277 277 277 277 278 279 280 283 285 285 285 286 287 288 288 289
284 284 283 283 282 282 282 282 282 282 281 281 281 280 279 279 278 278 278 277 277 277 277 276 275 275 275 276 277 277 278 279 279 281 282 282 283 284 285 286 287 287 287
285 284 284 283 283 282 282 282 282 281 281 281 281 280 279 278 278 277 276 276 276 275 275 274 273 273 274 276 276 276 276 278 278 280 280 281 282 282 283 284 284 284 285
285 284 284 283 283 282 282 281 281 281 281 280 280 279 279 279 280 278 276 275 274 274 274 273 272 273 274 274 275 277 275 277 279 280 280 280 280 280 281 282 282 282 284
284 284 283 283 282 282 285 286 283 281 281 279 278 278 278 278 280 280 280 278 276 272 271 272 273 272 274 275 276 275 275 276 275 281 277 276 278 278 279 280 281 283 284
284 283 283 282 282 282 287 287 286 281 280 279 279 277 276 277 278 278 281 280 279 279 276 274 274 275 275 276 276 275 276 276 275 276 275 274 277 276 278 278 280 282 283
282 282 282 282 282 282 286 287 286 282 280 280 278 278 276 276 277 277 278 277 277 277 276 276 277 277 277 277 277 278 276 274 273 274 275 271 276 275 277 278 280 282 283
280 281 282 282 281 282 285 287 286 283 279 279 278 278 277 276 278 280 277 276 275 275 279 280 280 279 280 280 280 275 271 270 269 271 273 272 273 273 275 276 278 280 281
279 280 279 280 280 281 284 285 287 283 279 278 277 276 278 276 279 281 277 276 274 275 276 277 277 279 280 277 276 274 272 268 269 268 274 271 272 272 270 275 276 276 277

GFSMA_sfc_thetae_006.txt.gz
Theta_e
315 314 316 315 314 310 306 302 302 301 300 299 299 299 299 300 300 302 305 306 310 314 316 317 319 321 322 320 322 325 322 321 321 318 318 320 321 322 323 323 323 324 326
313 312 312 311 309 305 302 301 301 300 300 299 297 298 298 299 300 301 303 307 308 312 313 314 316 317 319 321 317 319 317 321 318 315 315 316 317 317 318 320 320 322 321
310 309 309 307 304 301 301 300 299 299 298 297 297 297 298 299 299 299 301 304 309 308 312 313 314 318 317 317 319 315 322 319 315 314 316 316 314 314 315 316 317 317 317
308 306 306 304 301 299 299 298 297 297 297 297 296 297 298 298 297 298 299 300 302 301 303 308 311 312 312 312 312 317 316 314 313 315 313 312 313 315 316 317 317 316 316
306 304 304 302 299 298 298 297 297 297 296 296 295 297 297 298 296 296 297 297 296 297 299 301 303 304 305 307 310 312 313 312 312 311 311 313 313 312 313 313 314 315 316
304 303 302 301 298 297 297 296 296 296 297 296 292 294 296 296 296 296 295 295 295 295 296 297 299 301 304 307 309 311 312 312 312 310 309 309 310 310 311 312 312 313 314
304 302 301 300 297 297 297 296 296 294 294 295 295 294 294 294 295 295 295 294 293 293 294 295 297 298 302 304 308 310 311 309 307 306 306 306 307 308 309 309 310 311 312
303 301 301 299 297 297 296 295 294 293 294 294 296 295 292 291 293 293 294 292 292 293 292 293 294 295 298 303 302 304 305 304 304 303 303 304 304 305 306 307 308 309 310
303 302 300 299 298 297 296 296 296 295 293 293 295 297 292 294 292 293 292 292 291 292 292 292 293 293 296 300 296 297 296 298 299 300 301 302 303 304 305 306 307 307 308
302 300 300 299 298 297 296 296 295 296 298 293 292 291 293 296 293 289 291 291 291 290 291 291 292 292 296 296 293 292 292 294 294 296 297 298 300 301 303 304 305 306 307
300 300 299 298 297 296 297 296 294 295 296 297 295 291 291 291 292 294 289 288 289 290 290 291 292 293 295 294 293 289 290 291 291 293 294 295 297 298 300 301 303 304 305
297 298 298 298 297 296 295 295 295 295 295 295 296 294 293 291 291 291 291 290 289 288 289 290 291 293 293 291 287 286 286 287 289 290 291 292 293 295 297 299 300 302 303
295 295 296 296 296 296 295 294 293 294 294 294 295 294 294 294 293 293 293 289 287 287 287 290 291 292 291 290 288 284 283 285 287 289 289 290 291 293 294 296 298 299 299
296 296 295 295 295 294 294 293 293 293 292 293 293 294 293 293 292 292 291 289 285 286 286 287 289 291 290 289 285 282 286 281 284 286 287 289 290 291 293 294 295 296 297
295 295 294 293 294 294 293 292 291 291 291 291 292 292 292 291 291 292 292 293 292 285 284 287 286 289 288 286 285 285 284 282 284 284 285 286 288 290 291 292 293 294 295
293 292 293 292 293 292 291 291 291 291 289 290 290 290 289 290 290 290 289 290 290 292 288 288 287 287 287 285 284 283 283 280 282 282 284 285 287 288 289 289 291 292 293
291 291 291 291 291 290 290 290 290 290 288 288 288 288 288 289 288 288 288 288 287 288 289 283 286 286 285 284 281 282 282 283 284 282 283 285 286 287 287 288 289 290 291
291 290 290 289 289 288 289 288 288 288 287 286 287 286 286 285 287 287 287 286 286 286 287 282 281 281 281 282 282 281 280 281 282 282 283 285 285 285 286 287 287 288 288
289 290 289 288 288 287 287 287 288 287 286 287 286 285 285 284 284 285 285 285 285 283 284 284 280 281 280 280 279 280 281 282 282 281 283 283 283 284 285 286 286 286 286
289 288 288 287 288 287 287 287 286 287 286 286 287 286 284 283 284 284 283 284 284 283 282 281 280 278 278 279 279 279 279 281 281 282 282 282 282 283 284 284 285 284 284
286 287 287 286 286 286 285 286 285 285 285 285 285 285 284 284 285 285 283 283 282 282 281 280 278 278 277 276 277 280 279 280 282 283 282 283 282 282 283 283 283 283 284
285 286 285 286 286 285 287 288 286 284 284 283 284 284 283 283 284 286 286 285 283 281 280 280 278 277 278 278 279 278 278 278 279 283 281 280 281 280 282 282 283 283 284
284 283 284 285 285 286 288 288 288 285 284 284 284 283 282 281 282 282 285 285 283 284 284 281 279 279 278 279 279 278 278 279 279 280 279 276 280 279 281 280 282 282 283
282 282 283 284 284 285 287 288 287 286 285 285 284 283 282 281 281 281 281 281 280 281 281 280 281 280 281 281 280 280 280 280 279 278 277 273 279 278 280 280 282 282 282
281 282 282 283 284 285 286 287 287 286 284 284 284 284 283 282 281 283 281 280 279 279 282 281 281 282 282 282 281 280 277 275 274 275 276 274 276 276 277 278 280 281 281
279 281 281 282 283 283 285 285 285 285 284 284 283 282 283 282 283 283 281 280 277 277 277 277 279 281 281 280 281 279 278 274 274 273 275 273 275 274 274 278 279 279 279

GFSMA_sfc_thetae_009.txt.gz
Theta_e
322 320 320 321 321 318 315 310 306 305 305 302 302 302 301 301 302 303 307 309 312 316 316 317 319 321 322 322 325 326 322 322 319 318 320 319 321 322 323 322 324 325 323
321 318 318 319 318 315 311 306 305 304 303 303 300 300 300 301 301 302 305 307 312 314 314 315 317 318 320 320 321 318 320 319 315 314 317 317 316 317 318 319 320 320 319
320 317 316 316 315 312 308 305 304 304 302 301 300 299 300 301 300 300 303 307 309 309 313 314 315 319 319 317 317 319 321 317 314 316 317 314 314 316 316 317 318 317 317
318 315 313 313 312 307 304 303 302 301 301 299 299 299 300 301 300 300 301 304 305 305 306 309 312 314 314 314 312 318 317 314 317 314 313 314 316 317 316 316 316 316 317
316 312 311 310 308 303 302 301 300 300 299 299 299 299 300 300 299 298 299 299 298 301 303 302 304 305 305 309 312 314 314 313 312 313 313 312 313 313 313 314 314 314 315
314 311 309 308 304 302 300 301 300 300 300 299 294 296 299 299 299 298 297 296 298 298 299 300 302 303 306 309 311 313 313 313 310 309 309 309 310 310 311 312 312 313 313
313 310 307 306 302 300 300 300 300 298 299 298 296 296 295 296 297 297 297 296 296 296 297 298 300 302 305 307 310 312 312 309 307 306 307 307 307 308 308 309 310 311 311
311 308 305 304 301 300 300 299 298 296 298 297 297 296 292 292 295 295 295 294 294 294 294 295 296 298 302 304 305 306 306 304 303 303 303 304 305 306 307 308 308 309 310
311 308 305 303 301 299 298 299 298 297 295 296 300 299 295 294 291 294 294 293 293 293 293 294 294 295 300 299 299 296 297 299 299 300 301 301 303 304 305 306 307 307 308
309 307 305 303 301 299 298 298 298 297 297 293 295 296 297 299 293 288 293 293 293 291 293 293 293 294 298 297 293 292 293 294 294 296 297 298 300 301 303 304 305 305 306
306 306 305 303 301 299 298 298 296 297 297 296 293 294 293 294 296 296 288 289 291 291 292 292 293 293 297 294 293 289 290 291 292 292 293 295 297 298 300 302 303 304 304
303 303 303 302 301 299 298 298 296 296 296 297 295 295 293 292 291 293 293 289 288 289 290 291 292 293 295 293 289 288 287 288 290 290 291 292 293 295 297 299 300 301 302
300 300 300 300 299 299 298 298 296 295 295 295 296 295 295 295 295 294 294 290 289 288 288 290 291 293 293 291 288 287 286 286 287 288 289 290 291 292 294 296 297 298 298
298 300 298 298 298 298 297 296 295 295 295 295 295 295 294 295 294 294 293 289 287 286 287 288 290 292 292 290 289 285 286 284 285 287 288 288 289 291 292 293 294 295 296
294 295 296 296 296 296 295 295 294 293 293 293 293 294 294 293 293 293 293 292 290 285 283 288 286 291 290 289 286 285 285 285 284 286 287 287 289 290 291 291 292 293 294
293 292 293 294 294 294 294 293 293 292 292 292 292 292 292 292 291 292 292 292 292 291 287 288 287 289 289 287 286 285 284 283 283 285 286 286 288 289 290 290 291 291 292
292 291 291 291 291 291 292 292 291 291 290 290 290 290 290 290 290 289 289 289 288 290 291 284 287 288 287 285 283 283 283 282 284 285 285 286 287 288 288 288 289 289 290
290 290 290 289 289 290 290 290 289 288 289 288 288 288 288 287 288 288 288 287 287 287 289 282 284 284 284 284 282 281 280 281 282 285 286 286 287 288 287 287 287 288 288
287 288 289 288 288 288 288 289 289 288 288 288 288 288 287 287 286 287 286 286 286 283 286 284 281 282 282 283 281 280 280 280 280 283 286 286 287 287 287 287 287 287 287
285 286 286 287 287 287 287 287 287 287 287 287 287 288 287 286 286 286 286 285 285 284 284 284 280 279 279 280 280 278 278 280 280 281 283 283 285 285 286 286 286 286 285
285 285 285 285 286 286 286 286 286 286 285 286 286 286 287 286 287 287 285 285 285 284 283 282 280 278 277 277 276 279 279 280 281 282 281 281 281 282 283 285 284 284 284
283 284 283 283 284 285 287 288 287 285 285 284 284 286 286 285 286 288 289 289 287 285 283 282 281 279 278 278 278 278 279 279 277 283 281 281 281 280 281 281 284 284 284
280 281 281 282 282 283 286 287 288 286 285 285 284 284 284 284 285 284 288 289 289 290 289 284 282 281 279 279 279 279 279 279 280 281 281 278 280 278 280 280 284 284 284
278 278 279 280 281 282 285 287 287 286 285 285 285 284 284 284 284 283 283 284 285 285 286 285 284 283 282 281 281 281 280 281 279 278 279 275 279 277 279 280 283 283 284
275 275 276 277 279 280 284 285 286 285 285 285 285 285 285 284 286 287 282 282 283 283 286 288 286 286 285 285 283 281 278 277 275 276 277 276 277 277 278 277 279 282 283
273 274 274 275 276 276 281 283 284 284 283 284 285 285 285 285 286 287 283 282 281 282 281 282 281 283 284 284 284 281 280 276 275 274 277 274 275 275 274 278 279 280 279

GFSMA_sfc_thetae_012.txt.gz
Theta_e
316 314 313 314 314 311 308 304 299 299 297 296 297 296 296 295 296 297 300 310 314 317 317 318 320 322 322 322 324 326 322 321 319 320 319 321 321 323 322 323 323 322 323
315 312 311 312 313 311 306 301 298 297 296 296 295 296 295 295 296 297 301 304 313 316 316 316 318 320 321 321 321 319 322 319 315 316 318 316 317 318 318 319 320 319 319
315 312 309 310 310 307 303 298 297 297 295 296 294 294 295 295 295 296 298 302 305 311 314 317 317 319 320 319 318 319 322 317 314 319 315 315 316 317 319 319 317 317 318
315 310 308 308 308 303 298 296 295 294 293 293 292 292 293 295 294 295 296 298 298 302 306 311 314 317 317 317 314 322 318 316 316 314 313 317 314 314 314 315 316 316 317
314 309 306 306 304 299 296 296 294 293 292 291 292 291 292 292 293 295 294 294 292 295 299 304 306 307 307 312 315 316 315 314 313 313 312 311 311 312 313 313 314 315 315
313 307 304 304 301 296 295 294 293 293 292 292 293 293 292 292 291 291 292 293 292 293 294 295 295 299 308 309 313 315 315 313 310 309 309 309 309 310 310 311 312 313 314
310 306 302 301 297 296 295 294 292 292 291 290 290 289 289 290 290 290 290 290 291 291 291 293 293 296 299 308 311 314 315 311 307 306 306 306 306 307 308 309 310 311 312
309 305 301 299 296 294 293 293 292 291 291 291 289 287 284 286 289 290 290 290 289 289 290 291 291 293 296 299 304 311 311 308 305 304 304 304 304 305 306 307 308 309 310
308 304 301 298 296 294 294 293 292 291 288 289 292 290 286 285 285 287 288 288 288 287 288 289 291 292 295 296 297 299 303 303 302 302 301 301 303 304 305 306 306 307 308
305 305 301 299 296 294 293 293 294 293 289 288 288 292 290 289 285 282 286 287 287 287 287 288 288 290 294 292 293 294 297 297 297 298 298 299 300 302 303 303 304 305 306
301 301 300 298 296 294 292 292 291 291 292 288 290 287 287 287 288 285 281 283 286 286 287 287 288 288 293 290 288 291 294 295 295 295 295 296 298 299 300 301 303 303 304
296 298 298 296 296 294 293 292 291 291 290 290 290 288 287 286 285 285 284 282 282 284 285 287 287 288 290 290 290 291 292 293 294 294 294 294 295 296 298 299 300 300 301
292 293 294 294 294 294 293 292 290 289 290 290 289 290 288 288 288 287 286 282 281 282 283 285 286 288 291 287 287 289 290 291 293 293 292 292 293 294 295 296 297 297 298
289 290 290 291 293 293 293 292 289 289 289 290 288 288 289 290 289 287 287 283 280 280 281 281 285 287 288 287 285 288 285 289 291 292 292 292 292 293 293 293 294 295 296
290 289 289 289 289 290 290 290 288 287 287 287 289 288 287 288 288 288 288 285 285 278 280 281 281 287 288 287 286 284 282 287 289 290 291 291 291 292 293 293 293 293 294
287 288 288 288 288 288 288 287 287 287 286 286 287 287 287 286 287 287 287 286 285 285 280 282 282 285 288 287 287 282 282 287 288 289 290 290 291 292 292 292 292 292 292
285 286 287 286 286 286 287 286 286 286 285 285 285 285 285 286 285 285 285 285 285 285 283 280 282 284 285 284 284 282 282 281 281 287 289 289 289 290 291 290 290 290 290
285 285 285 286 285 285 285 285 285 285 284 284 285 285 285 286 285 285 286 286 286 284 282 278 280 281 282 283 281 280 280 280 280 285 288 288 289 290 290 289 289 289 289
283 283 284 284 284 285 285 285 285 285 285 284 285 285 286 284 285 286 285 286 285 285 283 278 278 279 279 282 278 278 278 278 279 284 288 288 288 289 290 289 289 288 288
280 280 282 283 283 284 284 284 284 284 285 285 285 285 286 285 285 285 286 285 285 284 285 279 277 279 277 280 281 278 277 278 277 280 283 284 286 288 289 289 289 288 287
279 279 280 281 282 282 283 283 283 284 284 284 285 285 285 286 287 287 285 286 285 285 285 283 277 276 277 278 279 279 278 278 278 279 279 279 280 282 282 287 286 287 286
277 277 277 278 279 281 284 286 286 284 285 284 284 284 285 285 286 289 290 290 288 285 285 284 283 279 279 279 280 278 278 277 275 280 278 278 280 279 281 282 285 286 286
277 276 276 276 276 278 282 283 285 283 284 284 284 284 284 284 285 285 287 290 290 291 290 286 284 282 281 280 279 278 279 279 279 280 280 278 280 279 281 281 285 286 286
275 275 274 275 274 275 280 281 283 282 282 282 283 284 284 284 284 284 284 284 285 286 288 288 286 286 284 281 281 281 281 280 278 280 281 276 280 278 279 280 285 286 285
272 272 273 273 272 273 277 279 279 277 279 280 282 283 284 284 286 288 284 283 283 284 288 290 290 290 290 287 284 282 279 277 271 275 278 276 277 277 279 279 280 284 284
269 270 269 270 270 270 274 276 276 274 274 277 279 281 284 284 287 288 285 284 281 282 283 284 286 288 288 286 286 283 280 277 276 270 277 275 275 275 273 278 279 279 281

GFSMA_sfc_thetae_015.txt.gz
Theta_e
322 316 312 313 310 309 307 304 301 297 296 295 295 294 294 294 294 298 299 312 316 317 318 319 321 322 323 323 324 325 325 322 319 320 320 320 321 322 322 324 321 320 321
321 316 312 312 310 309 306 303 298 296 294 294 294 294 294 294 295 296 300 305 315 318 316 318 320 322 322 325 324 324 324 320 315 318 316 315 317 318 318 320 317 317 318
319 316 311 311 311 308 304 299 296 295 293 294 292 293 293 294 294 295 299 302 305 313 316 317 317 319 322 321 319 319 323 318 315 317 313 315 317 319 319 317 316 318 318
318 313 310 308 308 305 301 297 295 293 292 291 290 291 292 293 293 294 295 299 299 301 308 313 316 319 320 320 319 324 321 321 317 313 314 315 314 314 314 314 314 314 315
315 312 310 307 306 301 297 296 292 292 290 290 290 289 291 291 292 294 293 293 293 298 298 306 307 308 312 316 318 322 319 316 314 314 312 312 311 311 312 312 313 312 314
314 310 308 305 302 298 294 293 292 291 290 290 292 291 290 290 290 290 291 292 291 293 296 295 295 298 308 310 316 318 316 315 314 310 309 309 309 309 310 310 311 312 312
315 308 305 304 299 298 295 293 291 290 289 288 288 287 287 289 289 289 289 289 290 291 291 292 293 295 299 310 314 317 318 316 311 308 308 307 307 307 308 309 310 310 311
312 309 304 301 298 294 293 292 291 289 290 289 287 285 283 286 287 289 288 288 288 289 289 291 291 294 296 298 304 315 316 315 310 308 306 306 306 306 307 308 308 309 310
308 307 304 301 298 296 294 292 291 290 289 288 289 288 283 283 283 286 287 287 287 286 287 288 290 292 295 296 301 306 312 311 309 306 305 304 305 306 306 307 307 307 308
303 304 304 301 298 296 294 292 292 290 289 287 287 291 288 287 283 282 285 286 286 286 286 286 288 290 293 293 295 298 305 305 304 304 303 303 304 305 305 305 306 306 307
295 298 299 301 299 297 295 293 293 290 289 288 288 286 286 286 286 283 281 282 284 285 286 286 287 287 291 291 290 294 300 301 300 299 300 301 302 303 304 304 305 305 305
291 291 292 293 295 296 294 293 293 292 292 289 288 287 287 286 285 285 282 281 281 283 284 286 286 288 289 290 291 294 298 299 298 297 298 298 299 301 302 303 303 303 303
288 288 288 288 290 292 293 292 289 289 291 291 292 289 289 288 286 286 285 281 281 282 282 284 286 287 289 289 288 292 296 296 297 297 296 297 298 298 299 301 301 301 301
287 288 288 287 287 288 289 290 289 287 287 288 291 290 291 289 287 286 286 282 280 279 280 282 283 287 288 289 289 292 289 294 295 297 296 296 296 297 298 298 298 298 299
286 286 286 286 286 286 286 287 286 286 286 286 287 288 290 291 290 288 286 285 285 281 280 280 281 285 288 288 288 288 285 292 293 295 295 295 295 296 296 297 297 297 297
283 283 284 284 285 285 285 284 284 284 284 285 286 285 286 289 289 290 289 285 284 289 285 283 282 283 287 288 287 286 283 288 291 293 294 294 294 295 295 295 296 296 296
281 282 282 282 283 283 283 283 283 284 283 284 284 284 285 285 287 289 285 286 287 283 287 285 281 282 285 286 285 284 283 284 285 291 292 293 293 293 294 294 294 294 294
280 280 281 281 282 282 282 282 283 284 283 284 284 284 284 286 284 286 286 286 287 285 287 286 280 281 283 286 284 283 282 282 282 288 291 292 292 292 293 293 293 293 292
279 279 279 279 280 281 281 282 282 283 283 284 285 285 285 285 284 285 285 285 287 286 284 283 281 279 281 284 280 282 280 280 280 284 289 290 291 292 292 293 292 291 291
278 278 278 279 279 280 280 281 282 282 282 283 284 285 285 284 285 285 285 285 286 286 285 283 279 278 279 280 282 280 278 279 279 280 285 287 289 290 291 292 291 290 290
278 278 277 277 277 277 278 279 280 280 281 282 283 284 284 285 286 287 285 285 286 285 285 285 283 277 277 278 280 280 280 280 280 280 279 280 283 285 286 291 289 290 289
277 277 277 277 276 277 280 281 281 279 279 280 280 282 283 284 285 288 289 290 288 285 285 285 284 282 281 282 282 280 280 277 276 279 278 278 281 281 282 284 289 289 289
275 275 275 275 275 275 279 280 280 278 277 277 278 280 281 283 283 284 286 289 289 290 291 286 285 284 283 283 282 281 281 280 281 279 280 278 278 278 281 282 288 289 288
272 272 272 272 272 273 277 278 278 276 275 276 276 278 279 280 282 283 283 283 284 286 287 288 288 287 287 284 283 284 282 282 280 279 281 277 278 278 280 281 287 288 288
268 268 269 268 268 268 273 273 273 271 272 272 274 275 276 277 281 284 283 282 282 283 287 289 290 291 291 291 285 283 281 279 277 277 279 279 278 279 279 279 282 288 288
265 266 265 265 265 264 269 270 271 269 268 269 270 272 275 276 279 282 280 281 280 281 283 284 285 288 289 289 289 283 283 279 280 276 280 278 277 276 275 278 279 282 284

GFSMA_sfc_thetae_018.txt.gz
Theta_e
324 321 318 316 313 309 308 305 303 300 295 294 294 293 292 292 293 297 298 311 316 318 320 321 323 324 324 325 324 324 325 323 319 319 319 319 322 320 325 323 322 321 322
324 318 316 315 310 309 306 304 302 296 294 293 293 293 292 292 293 297 298 304 316 318 319 321 322 324 325 324 326 328 325 321 316 318 315 315 317 318 320 320 316 316 317
323 318 315 314 314 308 305 302 299 294 292 292 291 292 292 292 293 295 298 301 305 313 317 317 320 324 324 326 323 325 323 319 316 318 314 315 317 318 320 317 315 316 316
320 316 315 314 313 310 304 300 296 293 291 290 289 290 290 292 292 293 295 300 301 303 309 314 317 320 322 324 323 322 323 319 320 315 314 315 314 315 315 314 314 314 314
318 316 313 313 311 309 304 299 293 293 291 289 289 288 289 290 291 293 292 295 294 298 299 307 307 309 314 322 321 324 323 321 317 314 314 313 312 312 313 313 314 313 314
315 315 313 310 308 306 300 295 294 291 290 290 291 289 288 289 289 289 290 292 291 293 296 297 296 298 308 314 319 323 321 318 316 314 312 311 311 311 311 312 312 312 313
315 313 311 308 305 303 301 298 292 291 289 288 287 287 287 288 288 288 289 289 289 290 291 293 293 295 299 311 316 320 320 318 316 313 311 310 310 309 310 310 311 312 312
310 310 307 304 303 300 297 295 294 289 289 288 287 284 284 286 287 288 288 288 288 288 289 290 290 292 296 298 302 315 319 319 317 313 311 309 309 309 310 310 310 311 311
303 305 305 302 300 299 298 296 294 293 290 288 288 287 282 282 283 285 286 287 287 286 287 288 290 290 293 296 302 308 317 318 316 313 310 309 308 308 309 309 310 310 310
292 293 296 300 299 297 296 295 295 293 291 290 287 289 287 285 283 282 284 285 286 286 286 286 287 289 291 294 298 301 309 315 314 311 309 308 308 308 308 309 309 309 309
290 290 290 291 292 296 296 294 294 292 292 291 289 286 285 285 285 283 282 282 284 285 286 286 286 287 289 293 292 296 306 310 309 307 306 305 306 307 308 308 308 308 309
287 287 288 288 289 289 290 293 293 292 292 291 291 289 288 285 284 284 282 282 281 283 284 285 285 287 287 290 293 296 303 306 305 304 303 302 303 305 307 308 308 308 307
284 285 285 285 286 287 287 288 288 290 291 290 291 292 291 290 288 286 284 282 281 282 282 283 286 286 288 288 291 294 299 303 304 302 301 300 301 303 304 306 306 306 306
283 284 284 284 284 285 285 286 285 285 286 285 286 287 289 291 289 290 288 284 283 280 281 282 283 285 287 287 290 293 292 299 301 301 300 299 300 301 301 303 304 304 303
283 282 282 282 282 283 282 283 283 283 283 284 284 285 286 288 288 288 289 288 288 284 285 281 281 284 287 287 289 290 289 295 299 299 299 299 299 299 300 301 302 302 302
280 280 280 281 281 281 281 281 280 281 282 282 284 283 283 285 286 286 287 289 288 287 285 285 282 283 285 287 288 289 288 290 296 298 298 298 298 298 299 299 300 300 301
279 279 280 280 280 280 280 280 280 280 280 281 282 282 282 283 284 284 284 285 286 287 285 288 282 282 282 285 285 287 287 286 289 295 297 297 297 297 297 298 299 299 299
279 279 279 278 278 278 279 279 279 279 279 280 281 281 282 284 282 282 283 284 284 285 286 285 288 281 281 283 285 285 285 285 285 290 294 295 295 296 296 296 297 297 297
278 278 278 277 278 278 278 278 278 278 279 280 280 280 281 281 282 283 284 284 284 285 285 284 284 282 281 281 281 283 284 283 283 287 293 294 295 295 295 295 296 295 295
277 277 277 277 277 277 277 277 277 277 278 279 280 280 281 281 281 282 283 284 285 284 285 284 283 283 279 280 282 282 281 281 280 282 287 290 292 293 294 294 295 294 294
277 276 276 276 276 276 277 277 278 277 277 277 278 279 279 281 284 285 283 282 283 284 284 284 283 284 280 278 280 281 282 281 281 282 281 282 284 287 289 293 292 292 293
274 274 274 274 274 275 278 279 279 276 276 276 276 277 278 278 280 283 285 288 286 283 282 284 284 283 283 281 283 282 281 280 279 282 280 280 283 283 285 287 291 293 292
272 271 271 271 271 272 275 276 277 275 274 274 274 275 276 277 278 278 282 284 285 287 289 285 284 284 284 285 283 282 281 282 282 280 281 279 281 281 284 285 290 293 293
269 268 268 268 268 269 273 273 273 272 271 271 271 272 272 273 274 275 276 277 280 281 283 284 287 286 287 287 285 284 284 283 284 280 282 279 281 279 281 283 288 291 292
266 265 266 266 265 265 270 271 271 269 269 269 270 270 270 270 273 275 274 273 275 277 284 287 288 289 291 292 290 285 282 281 280 281 279 279 278 278 279 280 282 290 292
264 265 264 264 264 262 267 269 270 268 266 267 268 270 272 272 274 276 274 273 272 274 277 280 282 284 288 288 291 288 284 281 280 280 280 278 278 278 275 279 280 283 287

GFSMA_sfc_thetae_021.txt.gz
Theta_e
324 322 321 319 319 316 313 307 305 303 297 294 293 292 292 292 292 296 296 308 314 319 320 322 323 323 324 325 326 324 323 321 318 318 318 319 322 319 322 323 322 322 323
321 322 319 317 316 315 311 307 304 301 295 292 292 292 291 291 292 295 296 301 314 318 320 321 322 324 325 324 325 326 327 322 318 317 315 316 318 318 321 319 316 316 318
325 321 318 316 315 313 310 307 301 297 293 292 291 291 291 291 292 292 297 298 304 310 317 319 321 323 326 325 326 328 326 320 317 318 314 316 317 318 319 316 314 316 316
323 319 317 315 315 312 309 306 302 296 294 291 289 289 289 290 291 291 293 297 299 302 306 314 316 319 323 325 325 324 322 322 318 316 314 315 315 316 315 314 315 314 315
320 318 316 316 313 310 308 305 299 298 293 291 290 289 288 289 290 291 291 293 296 298 299 305 309 308 313 320 326 324 324 323 321 316 314 314 314 314 314 314 314 314 314
315 315 314 312 310 308 305 302 299 294 293 291 291 289 287 288 289 288 289 291 292 292 295 297 297 299 307 314 321 323 324 324 320 316 315 314 313 314 313 313 313 313 313
312 311 309 308 306 306 304 301 296 295 293 291 289 287 287 288 288 288 288 288 289 290 290 293 294 295 297 309 315 321 322 323 320 316 315 314 312 313 312 312 313 313 313
298 303 304 303 303 302 300 298 296 294 293 291 290 287 285 286 286 287 287 288 287 288 288 289 290 292 293 296 301 313 320 322 321 318 315 313 313 312 312 312 313 313 313
291 293 294 297 297 298 298 297 295 294 293 291 290 291 286 283 282 285 285 286 286 286 286 287 288 290 290 293 300 304 313 318 320 319 316 314 312 311 311 311 312 312 313
288 290 290 291 291 294 295 295 295 294 292 291 291 290 289 288 285 284 285 285 285 286 286 286 287 287 289 290 296 300 304 310 316 319 316 313 311 311 311 312 312 312 312
286 286 287 288 288 289 289 290 292 293 292 291 290 290 288 288 287 286 285 283 284 285 286 286 286 286 287 288 291 295 302 307 313 314 314 311 310 309 310 311 311 311 312
284 284 285 285 285 285 286 287 288 288 289 291 291 290 289 288 287 286 285 284 284 284 284 285 285 287 287 287 291 296 300 305 311 311 310 309 308 307 308 309 310 310 311
281 282 283 282 283 283 283 284 284 285 286 285 287 289 291 290 290 289 287 287 285 283 283 283 284 286 287 286 288 294 297 303 308 309 307 306 306 306 306 307 309 309 310
280 281 281 281 281 281 282 282 281 281 282 282 283 283 285 287 288 289 288 287 285 287 287 283 283 284 285 286 288 293 292 299 304 307 306 305 305 305 304 305 307 308 308
281 280 279 279 280 280 280 279 279 279 280 280 281 282 282 284 285 286 287 288 287 283 284 288 281 284 285 286 288 288 290 293 300 304 306 305 303 303 303 303 305 306 307
279 279 278 278 279 279 279 278 279 279 278 278 280 280 280 281 282 283 284 285 286 286 283 285 288 283 284 285 286 287 288 292 295 300 302 303 302 301 301 302 303 304 305
278 278 278 278 277 277 277 277 277 278 277 278 278 278 279 280 280 281 281 282 284 284 283 285 286 284 282 283 284 286 287 288 289 296 299 301 301 300 300 300 301 302 303
278 278 278 278 277 277 277 276 276 276 276 276 277 278 278 280 279 279 280 281 281 283 282 281 285 285 281 282 283 284 285 287 287 291 297 299 300 299 299 299 300 300 301
277 277 277 276 276 276 276 276 276 276 276 277 277 277 278 278 278 279 278 280 281 283 283 282 282 284 284 281 281 282 283 285 285 289 293 296 298 298 299 298 299 299 299
275 275 275 275 275 275 275 276 276 276 277 277 277 277 277 277 277 278 279 279 280 280 281 281 281 282 283 283 281 282 281 283 283 284 287 290 294 295 297 298 297 296 297
274 274 273 273 273 274 275 275 275 275 275 275 275 276 277 277 280 280 279 278 279 279 279 279 280 281 281 278 280 282 282 283 282 284 282 284 287 289 291 295 293 294 296
272 272 271 271 271 272 275 276 276 274 274 273 273 274 274 275 276 279 280 281 281 278 279 280 280 279 280 282 282 283 282 281 279 283 282 281 284 285 287 289 293 294 295
270 269 269 269 268 269 273 274 275 272 271 271 271 271 272 273 273 273 275 277 278 279 281 279 280 281 281 282 283 281 282 283 283 282 283 281 282 282 285 287 292 294 294
267 267 267 266 266 268 272 272 273 271 270 270 269 270 270 270 271 271 271 271 272 273 275 276 277 279 282 283 284 284 283 283 284 284 283 280 283 281 283 285 290 293 294
265 264 265 265 264 264 269 271 271 269 268 268 269 269 269 269 272 274 272 271 271 272 276 278 279 280 282 284 286 284 283 281 280 281 280 282 283 282 282 282 284 290 293
264 264 264 264 263 262 267 269 270 268 266 267 268 269 271 271 273 275 272 270 268 270 271 272 274 276 278 279 283 285 284 282 281 280 283 280 281 279 276 281 282 283 287

GFSMA_sfc_thetae_024.txt.gz
Theta_e
325 324 323 322 321 318 317 314 309 305 301 295 293 292 291 290 290 293 294 303 313 318 322 322 323 323 324 324 325 325 324 323 319 318 317 319 320 320 322 323 322 322 323
321 321 320 316 319 318 315 312 309 304 300 294 293 292 291 290 291 292 295 296 308 316 320 323 323 324 325 326 325 324 325 324 321 318 316 316 318 319 320 320 317 317 319
322 322 320 318 318 316 313 310 306 303 299 294 292 291 290 290 290 291 292 296 299 307 313 320 321 324 325 327 325 328 328 323 320 318 315 315 317 318 318 317 315 316 316
324 321 319 317 316 313 311 309 305 302 300 297 293 290 289 289 290 290 291 293 296 299 304 312 316 318 322 326 326 325 327 323 319 319 316 315 316 317 316 316 315 316 315
318 318 315 314 314 311 309 307 302 301 300 298 295 293 289 288 289 291 289 290 292 297 297 303 309 309 313 319 324 326 326 324 323 321 316 315 315 315 315 315 315 314 315
308 311 311 309 310 309 306 304 302 298 296 295 294 292 289 289 288 288 289 290 290 292 292 294 295 298 306 313 319 324 326 324 325 320 317 316 314 314 315 314 314 314 314
298 300 303 302 304 303 302 301 298 297 296 293 293 294 292 290 288 288 288 288 288 289 289 290 292 293 295 306 312 318 324 323 325 322 319 316 316 314 314 314 313 314 315
292 292 294 296 297 298 296 296 295 294 294 292 292 289 288 289 287 287 286 287 287 287 288 288 288 289 290 292 298 310 316 322 323 323 320 317 315 314 314 314 314 314 314
288 289 290 290 291 292 292 293 294 293 293 292 291 291 289 287 285 287 286 286 286 286 287 287 287 288 289 289 294 299 306 312 318 322 322 319 316 315 313 313 313 313 314
285 285 286 286 287 288 288 289 292 291 290 289 292 291 289 288 286 284 286 287 285 286 286 286 286 287 288 288 292 296 300 304 309 313 318 320 318 315 314 313 313 313 313
283 284 284 284 284 284 285 285 287 288 289 288 288 289 289 288 288 286 284 284 287 287 286 286 286 286 287 287 287 291 297 301 304 308 311 314 318 315 314 313 312 313 313
281 282 282 282 282 282 282 283 283 284 284 285 286 287 287 288 287 287 286 287 287 287 285 286 285 285 286 286 289 293 296 299 302 306 311 314 316 314 313 312 311 312 312
279 279 280 280 280 280 281 281 280 280 281 281 282 283 285 286 287 286 285 285 285 285 285 284 286 285 287 286 286 291 294 297 300 303 310 312 313 312 311 310 310 310 311
278 278 278 278 278 279 279 278 278 278 278 279 278 279 282 283 284 285 284 282 282 284 287 287 283 285 285 285 287 291 289 294 298 301 306 310 310 310 309 309 309 308 309
280 278 278 277 277 278 278 277 277 277 277 277 277 278 279 280 282 282 283 283 282 280 281 285 284 285 285 285 286 286 286 291 295 298 303 308 308 308 308 308 308 307 308
278 278 278 277 277 277 277 276 276 277 276 276 277 277 277 278 279 279 280 281 281 281 279 283 285 285 286 287 286 286 286 290 292 295 299 303 306 306 306 306 306 305 306
277 277 277 277 277 276 276 275 275 276 275 275 276 276 277 277 278 278 279 279 279 279 278 280 283 285 284 284 286 285 285 286 287 292 295 298 302 304 305 304 304 304 304
277 277 277 277 276 276 276 275 275 275 274 275 275 276 276 278 276 277 277 277 278 279 278 277 280 281 282 284 283 283 285 285 285 289 293 295 298 301 302 302 302 302 303
276 276 275 274 274 274 274 274 275 275 275 275 276 276 276 276 276 276 276 276 277 279 278 278 278 281 282 283 282 282 282 284 284 288 292 293 295 298 300 301 301 300 300
274 273 273 273 273 273 273 274 275 274 274 274 275 275 275 275 275 275 276 276 277 277 278 278 278 278 280 281 280 281 281 281 283 284 287 289 291 294 297 300 299 298 298
273 272 272 271 272 272 273 274 274 273 273 273 273 274 274 274 276 276 275 275 276 275 276 276 276 277 278 279 279 281 280 282 282 283 283 283 285 287 290 296 295 296 297
271 270 270 269 269 271 274 275 275 273 272 271 271 271 272 272 273 275 276 277 276 274 273 274 275 276 277 279 281 280 280 280 279 281 282 282 283 283 286 289 294 296 297
269 268 268 268 267 268 273 274 274 272 271 270 270 270 270 271 271 271 272 274 274 275 276 274 272 273 274 276 278 279 281 280 280 283 280 280 281 281 284 286 292 295 296
266 266 266 266 266 267 272 273 273 271 269 269 269 269 269 269 270 270 270 271 271 272 273 274 273 273 273 274 275 276 277 280 282 283 282 279 281 281 283 284 290 293 294
264 263 265 264 263 264 269 271 271 269 269 268 269 269 269 269 271 274 272 271 271 272 275 277 277 278 279 279 279 277 275 275 275 278 283 281 282 282 280 282 284 290 293
264 264 264 263 263 262 267 270 271 269 267 268 268 269 272 272 274 275 273 271 269 270 271 271 272 274 275 275 277 275 274 272 274 274 282 280 281 279 275 279 282 284 286

GFSMA_sfc_thetae_027.txt.gz
Theta_e
328 327 327 327 326 323 321 318 314 311 311 305 301 299 299 299 299 300 302 302 309 316 320 323 324 324 324 324 325 324 325 323 320 319 317 318 320 320 323 322 322 321 323
327 326 324 323 323 325 324 318 314 311 308 306 302 299 299 299 298 299 300 302 305 311 316 323 325 324 325 325 325 325 324 326 322 319 317 317 317 319 319 321 318 317 319
325 324 323 322 320 320 318 315 312 310 306 302 302 300 298 298 298 298 299 300 303 305 309 316 321 323 326 328 328 326 329 327 323 320 316 316 317 317 319 318 316 316 316
319 319 318 317 316 315 313 311 308 307 306 304 304 301 299 297 297 297 298 298 299 301 304 308 313 317 319 322 326 328 325 325 322 321 320 315 316 316 317 316 315 316 316
311 312 311 311 312 310 309 308 304 304 303 302 300 300 299 299 298 296 297 297 298 300 301 302 305 306 310 316 321 323 326 327 325 323 319 315 316 316 316 316 316 316 315
303 305 304 305 307 306 305 306 304 302 299 297 296 296 298 298 299 298 297 296 296 296 297 298 300 302 303 308 314 319 324 329 326 324 322 318 316 316 315 316 315 317 315
296 297 299 300 302 300 300 300 302 301 300 298 298 301 300 297 296 296 296 295 296 295 296 296 297 298 299 302 306 309 317 322 327 325 323 320 318 317 316 315 315 315 316
292 292 293 293 294 296 296 296 297 298 298 296 295 295 295 298 295 296 295 294 295 295 295 295 295 295 296 298 299 304 308 314 320 323 324 323 320 318 317 316 316 315 315
288 289 289 290 290 291 291 293 294 294 294 296 295 293 294 292 291 296 296 294 294 294 295 294 294 295 295 296 297 299 301 305 309 315 318 321 323 320 318 316 315 315 315
286 286 286 286 287 287 287 289 290 291 293 291 294 294 294 292 289 290 294 296 295 295 295 296 295 295 295 295 295 296 298 301 303 306 310 314 317 321 320 317 315 314 314
284 284 285 285 285 285 285 285 285 285 287 287 289 290 291 292 291 289 288 291 294 295 296 295 295 294 294 294 295 295 296 299 301 303 305 307 311 315 320 319 316 314 314
282 282 283 283 283 283 283 283 284 283 284 284 284 286 286 286 286 286 286 286 287 291 293 294 294 295 295 294 293 293 295 297 300 301 303 305 307 310 314 319 317 315 314
281 281 281 281 281 281 281 282 282 282 282 282 281 282 284 284 285 286 285 284 283 286 289 292 293 294 293 294 293 291 292 294 297 299 301 303 305 308 314 317 316 315 313
280 281 280 280 280 280 280 280 280 281 281 281 280 281 281 282 283 283 283 282 280 282 284 287 290 293 293 293 292 293 294 293 295 297 299 301 303 307 314 315 314 313 312
280 280 280 279 279 279 279 279 279 279 279 279 280 280 280 281 282 282 282 282 280 277 279 284 285 291 291 292 292 293 293 293 294 296 297 299 301 304 310 312 312 311 312
280 279 279 279 279 279 279 278 278 278 278 278 279 278 279 280 280 281 281 281 281 279 277 282 283 285 287 287 289 291 291 291 292 294 295 297 298 301 306 308 309 309 311
279 279 278 278 278 277 278 277 277 278 277 277 278 278 278 279 279 279 280 280 279 280 278 280 283 284 284 284 286 288 289 289 290 291 293 295 296 298 301 304 307 308 308
278 278 277 277 276 276 276 276 276 276 276 276 277 277 277 278 277 278 278 277 278 279 278 276 279 281 282 284 285 285 285 287 288 289 291 293 295 296 298 300 303 305 305
277 276 276 275 275 275 275 275 276 275 275 275 275 275 275 275 275 276 276 276 277 277 278 277 276 280 281 283 282 284 285 286 287 288 291 292 293 295 296 297 300 301 302
275 274 274 274 273 273 274 275 275 275 275 275 275 275 274 274 274 274 275 275 276 276 276 276 276 277 278 280 281 281 281 284 284 286 287 289 290 291 293 295 297 297 299
273 273 272 272 272 272 274 275 275 275 274 273 273 273 273 274 275 275 274 274 274 274 274 273 274 275 276 277 277 281 281 282 284 285 285 287 288 288 290 292 293 294 297
271 271 270 270 269 271 273 276 276 274 273 272 271 272 272 272 273 274 275 275 275 273 271 272 272 272 273 274 276 276 277 277 276 285 284 285 287 286 288 289 291 293 296
269 269 269 268 268 268 273 275 275 273 272 271 270 270 270 271 271 271 272 273 274 274 275 274 272 272 272 273 273 273 273 274 274 278 280 278 285 285 287 287 289 291 294
268 267 267 267 267 268 272 273 274 272 271 270 270 270 270 270 270 271 271 272 272 273 273 274 274 274 274 275 275 275 275 275 276 277 279 275 281 282 287 288 289 290 292
266 265 267 265 265 265 269 272 273 271 270 269 270 271 270 270 272 274 273 273 273 273 276 277 278 279 279 279 279 277 274 273 271 274 277 277 278 279 282 284 287 289 291
266 265 265 264 263 263 267 270 272 271 269 270 271 271 273 273 275 276 274 273 271 272 274 274 274 276 277 277 278 277 275 271 271 270 275 274 275 276 276 284 285 286 287

GFSMA_sfc_thetae_030.txt.gz
Theta_e
336 338 334 330 330 329 329 323 319 315 317 316 311 308 306 306 305 306 307 305 307 312 317 323 326 326 325 325 325 325 324 324 322 319 317 318 319 321 320 323 322 321 322
330 330 329 330 328 326 324 321 316 314 311 309 313 309 307 307 306 305 305 307 304 307 311 317 323 327 329 328 326 326 326 326 326 321 319 316 318 319 318 320 319 318 318
325 324 322 320 320 320 317 316 313 312 311 312 309 308 309 308 307 305 305 305 306 307 307 311 315 319 321 323 328 330 327 329 327 322 319 316 316 317 319 319 319 316 317
318 317 316 314 315 314 313 311 310 309 308 311 313 310 306 309 308 307 306 306 305 304 308 307 309 312 315 318 320 324 326 328 327 323 323 320 315 316 317 317 318 316 317
309 309 311 311 311 310 310 310 309 307 307 306 303 304 304 304 309 307 307 305 304 303 303 304 303 304 307 311 316 319 322 324 327 327 323 319 317 316 316 316 317 317 317
306 307 306 307 309 309 308 310 309 308 306 304 303 303 309 308 308 307 304 302 303 302 302 302 304 304 303 306 309 312 315 320 323 326 325 321 320 319 317 316 316 316 317
302 304 303 305 305 305 304 305 307 306 304 304 307 307 308 305 303 304 304 303 302 302 302 302 302 302 302 303 304 307 310 312 316 323 325 325 321 319 318 318 316 316 316
296 297 298 298 300 300 300 301 302 303 303 301 300 303 302 304 303 304 302 300 302 302 302 303 303 302 302 303 303 304 307 308 310 311 316 321 324 323 320 319 318 317 317
292 293 293 293 293 294 293 295 297 299 298 300 300 299 298 296 297 302 300 302 300 300 301 301 301 302 302 303 303 303 303 304 306 308 309 310 315 321 323 322 319 317 316
290 290 290 290 290 290 290 290 291 291 293 290 296 295 297 296 293 292 298 297 296 293 295 298 297 299 300 301 301 300 299 300 302 304 306 308 309 311 316 321 322 319 317
288 288 289 289 288 289 289 288 289 289 289 288 288 289 290 291 292 287 286 288 290 292 294 292 295 296 299 300 300 299 297 299 300 301 303 305 307 309 310 313 319 322 318
287 287 287 287 287 286 286 287 287 287 287 287 287 287 286 285 285 285 284 285 286 288 290 291 293 294 296 298 297 295 296 297 299 300 301 302 304 306 308 309 312 318 320
285 285 286 285 285 285 285 285 285 285 285 284 284 285 285 285 285 285 284 283 283 286 287 290 291 294 294 297 297 293 293 295 296 297 299 300 302 303 305 308 309 312 319
285 285 285 284 284 284 284 284 284 283 284 284 283 284 283 284 285 284 283 282 281 282 285 286 290 292 293 295 293 291 292 294 294 295 296 297 300 302 303 305 308 311 318
284 284 284 284 284 283 283 283 283 283 283 283 283 283 282 283 284 284 284 284 281 278 280 284 285 289 290 290 290 289 290 291 292 293 294 295 296 299 301 303 305 309 314
284 284 283 283 283 283 282 283 283 283 282 283 282 282 282 283 283 283 283 283 282 281 278 283 285 286 287 287 287 288 288 289 291 291 292 293 294 296 298 300 302 305 309
283 283 282 282 281 281 281 281 281 281 280 281 281 281 281 281 281 282 282 282 281 281 279 281 283 284 284 284 286 287 288 288 289 290 290 292 293 293 295 297 299 301 304
282 282 281 280 280 279 279 279 279 279 279 279 279 279 279 279 279 280 280 279 279 280 278 277 280 281 282 283 284 284 285 285 287 288 290 291 292 292 293 295 296 298 300
281 280 279 279 278 278 278 278 278 278 278 278 278 278 278 278 277 278 277 277 278 278 278 277 277 279 280 281 282 282 283 284 286 288 289 290 290 291 292 293 294 297 298
279 278 278 277 277 277 276 277 278 278 278 278 278 277 277 276 276 276 275 276 276 276 276 276 276 276 277 278 279 279 280 283 283 285 287 288 289 290 290 291 292 293 295
278 277 277 276 275 275 276 277 278 278 277 277 277 276 276 276 275 275 275 275 275 274 274 273 273 274 274 275 274 276 276 278 279 281 282 285 288 289 290 291 290 291 293
276 275 275 274 273 274 274 276 277 276 276 275 274 275 275 274 275 275 275 276 275 274 272 273 272 272 273 274 276 275 275 274 273 279 278 278 281 281 283 289 290 291 290
275 274 273 273 272 273 273 275 276 275 275 275 273 273 273 274 274 273 274 275 275 276 276 275 273 273 273 274 275 274 274 274 274 277 277 276 280 279 282 284 286 289 290
273 273 272 272 272 272 272 274 275 275 274 274 273 273 272 273 273 273 273 274 274 275 275 275 275 275 276 277 276 276 276 276 277 278 278 274 278 278 281 282 284 285 287
272 272 271 271 270 270 271 273 273 274 273 273 273 273 273 273 274 276 275 274 275 275 278 279 279 280 280 281 280 278 276 275 274 275 278 276 276 276 277 278 281 283 286
271 271 270 270 268 267 269 271 273 274 272 273 274 274 275 275 276 277 276 275 274 275 277 277 278 278 279 279 279 278 277 273 273 273 277 275 275 275 273 278 279 281 283

GFSMA_sfc_thetae_036.txt.gz
Theta_e
329 330 330 329 328 326 323 323 318 315 311 313 310 308 306 304 303 302 301 308 311 312 315 318 321 325 327 328 329 332 329 326 326 324 320 319 320 320 320 321 321 322 321
324 322 320 320 320 320 319 316 314 313 311 311 311 311 309 308 307 304 303 303 310 310 312 315 316 318 320 322 324 326 328 331 330 330 323 320 318 317 318 319 319 320 319
320 317 315 314 314 315 314 313 312 312 310 310 311 311 310 308 308 306 305 304 304 309 312 311 311 312 314 315 317 320 322 325 327 328 324 323 320 317 317 317 318 318 318
313 312 311 310 312 312 311 310 309 309 309 308 307 306 306 306 308 307 304 302 300 301 304 309 309 309 311 312 314 315 316 317 319 322 324 327 324 320 318 318 317 318 319
308 308 307 307 309 309 309 310 307 305 301 300 301 302 303 302 305 302 300 299 300 300 299 305 307 307 309 312 313 313 314 315 315 315 317 321 325 325 320 320 319 319 318
305 305 303 303 303 302 301 302 302 301 298 297 301 303 303 301 300 299 298 300 298 296 298 299 299 300 307 308 311 313 315 314 314 313 314 315 317 319 325 323 321 320 319
300 299 299 299 297 296 295 297 300 298 295 295 297 298 298 299 297 297 297 296 292 292 293 293 291 293 297 305 307 310 312 312 312 312 312 312 313 315 317 319 324 323 321
293 293 292 291 291 290 289 290 290 293 293 291 291 294 293 296 294 297 293 293 288 289 290 291 289 291 293 296 300 306 306 308 307 307 308 310 311 312 314 315 317 319 324
290 290 289 289 288 288 287 287 287 287 286 288 287 289 287 285 287 292 288 288 286 287 287 290 288 290 291 295 298 298 301 301 302 302 303 304 306 309 311 312 313 315 316
288 288 288 288 287 287 286 286 287 285 285 283 286 288 284 286 282 279 284 284 286 286 285 286 286 288 289 292 294 299 299 299 299 299 300 302 303 304 306 310 312 312 314
286 286 286 285 285 286 285 284 284 284 284 282 282 283 282 281 281 279 276 279 281 283 284 284 285 287 288 290 288 293 295 297 296 295 297 298 300 302 304 305 306 311 312
284 284 285 284 284 283 283 283 283 282 282 282 282 281 281 279 278 278 276 277 277 280 283 284 284 286 287 288 292 292 292 294 294 294 295 296 298 299 301 303 304 305 308
282 282 283 282 282 282 283 283 281 281 281 280 280 280 281 281 281 280 278 276 276 278 280 283 284 285 288 287 287 290 290 290 292 292 293 294 296 297 298 300 302 302 303
282 282 282 282 281 282 282 282 280 280 280 279 279 279 279 280 281 280 279 277 275 276 277 278 282 283 284 285 287 289 285 288 289 291 292 292 294 295 296 297 299 300 301
283 282 282 281 281 281 281 281 279 279 279 279 279 279 279 279 280 279 279 279 277 273 274 276 277 280 282 283 284 283 283 286 288 288 289 290 292 293 294 295 296 298 299
281 281 281 280 280 279 279 279 278 278 278 278 278 278 277 278 278 278 278 278 277 275 273 276 278 279 280 281 282 281 280 283 284 286 287 288 289 291 292 293 294 296 297
281 280 280 279 279 278 278 277 277 277 277 277 277 277 277 277 276 276 276 276 276 275 273 275 277 277 277 277 278 279 280 279 279 283 285 287 289 289 289 291 293 294 295
280 279 279 279 278 278 277 277 277 277 276 276 277 276 276 278 275 275 275 274 274 274 273 272 274 275 275 276 276 276 277 279 278 281 284 285 285 286 286 287 289 290 290
279 278 278 277 277 277 277 277 277 277 277 277 277 276 276 275 275 274 273 273 273 275 273 273 273 274 274 275 274 275 276 276 278 281 282 282 283 284 285 286 286 288 288
278 277 277 277 277 276 276 276 276 276 276 277 277 277 276 275 274 274 274 273 274 273 273 272 272 272 272 274 274 273 273 275 275 277 279 280 281 282 283 284 284 284 284
278 277 276 276 276 275 276 275 276 276 276 276 276 276 276 276 278 277 275 274 273 272 271 271 271 271 271 272 272 273 273 273 274 275 275 276 277 277 278 281 281 282 284
277 276 275 275 274 276 278 278 277 276 276 276 275 275 275 276 275 277 278 278 277 273 270 270 271 271 272 273 274 273 273 272 270 276 274 274 277 276 277 278 282 283 284
276 275 274 274 274 274 278 279 278 277 275 275 275 275 275 275 275 274 275 277 277 277 278 276 273 273 272 273 274 273 273 273 273 275 276 273 276 275 278 279 282 283 283
274 274 273 273 273 274 278 279 278 275 274 274 274 274 274 274 274 274 274 273 274 275 276 276 276 276 277 278 277 277 276 276 276 276 277 271 275 274 276 277 281 282 282
273 272 272 271 271 271 278 278 277 273 273 273 275 274 274 273 275 278 276 273 274 275 278 278 278 279 279 279 278 274 271 271 270 271 275 273 274 274 275 275 277 280 281
274 273 273 271 270 267 276 277 277 273 267 272 273 275 277 276 278 279 276 274 271 271 272 272 272 272 273 273 275 273 272 269 269 269 275 272 272 274 271 274 276 276 276

GFSMA_sfc_thetae_039.txt.gz
Theta_e
330 330 328 326 324 320 323 317 315 312 311 311 310 307 306 305 303 302 300 310 314 315 318 318 318 319 320 322 325 327 329 330 331 330 324 321 319 319 320 320 320 321 321
323 321 319 318 318 318 317 315 311 311 311 310 310 310 309 308 306 303 303 303 312 312 314 316 316 317 317 317 319 320 322 324 325 327 328 321 322 320 319 319 319 319 320
317 316 314 314 314 314 314 313 311 311 310 310 307 308 307 308 308 304 302 300 301 308 311 313 313 315 317 318 317 317 318 318 318 320 321 324 327 323 320 319 319 319 319
311 309 309 308 311 311 308 307 307 303 302 300 301 302 303 304 301 299 300 299 299 299 303 302 306 309 312 315 317 317 318 317 317 317 317 318 319 321 325 321 320 320 320
307 306 305 304 304 303 305 304 299 298 295 296 299 300 301 299 298 299 296 293 294 293 294 297 299 302 306 310 313 316 317 316 315 315 315 315 316 318 320 322 323 323 321
302 301 299 298 298 297 297 300 296 294 293 293 300 300 297 298 297 295 292 291 290 291 289 291 288 292 301 305 308 312 312 313 311 310 310 312 313 314 316 317 319 321 324
296 296 295 293 292 291 291 295 296 290 288 289 296 296 296 295 294 293 289 288 288 289 288 289 287 289 291 302 304 306 307 307 307 306 306 307 308 309 312 314 316 318 319
291 291 290 288 288 288 287 287 289 289 287 286 290 292 291 293 291 289 287 286 284 286 286 288 286 288 289 292 296 303 305 306 305 305 304 304 305 307 308 309 312 314 316
289 289 288 287 287 286 285 284 285 285 284 285 285 288 284 283 285 289 284 283 283 284 283 285 285 287 289 289 292 298 300 301 302 302 301 302 303 304 306 307 308 309 313
287 287 287 286 286 285 284 284 284 283 283 281 283 285 282 284 279 278 281 281 282 282 281 282 283 285 287 287 291 293 295 296 296 297 298 299 301 302 304 305 306 307 308
285 285 285 285 284 284 283 283 282 282 282 281 280 280 280 279 279 277 275 276 279 281 281 282 282 283 285 287 286 288 291 293 293 293 294 296 298 300 301 303 304 305 306
283 283 284 283 283 283 282 282 281 281 280 280 280 280 279 277 277 276 275 275 276 278 280 281 281 282 284 284 286 288 289 290 291 292 293 294 295 296 298 300 301 303 304
281 281 282 281 281 282 281 281 280 280 279 279 279 278 279 279 279 279 277 276 275 277 278 279 280 282 284 283 283 286 286 288 289 290 291 291 293 294 295 297 298 299 300
281 281 281 281 280 281 281 280 279 279 279 278 278 278 279 279 279 279 278 276 274 275 275 276 278 279 280 281 283 284 282 285 286 288 289 290 291 292 293 294 296 297 298
282 281 280 280 280 280 280 279 278 278 278 278 278 278 278 278 278 278 278 278 276 272 272 275 275 278 279 280 280 280 279 282 285 285 286 287 289 290 292 293 294 296 297
281 280 279 279 279 279 279 279 277 277 277 277 277 277 276 277 277 276 277 277 276 274 271 275 275 276 277 278 280 278 278 281 282 283 284 286 287 288 289 289 290 291 293
280 280 279 279 278 278 278 277 277 277 277 276 276 276 276 276 275 275 275 275 275 274 272 274 274 276 275 275 276 277 277 277 277 281 283 285 285 286 286 287 288 289 291
280 279 279 278 278 277 277 277 276 276 276 276 276 276 275 277 274 274 274 273 273 273 272 271 273 274 274 275 275 274 276 277 276 279 283 283 284 284 284 285 286 286 287
278 278 278 277 277 277 277 276 277 276 276 276 276 276 275 275 275 274 273 272 272 274 272 272 272 273 273 274 273 274 275 275 277 280 281 282 282 283 284 284 285 285 285
278 277 277 277 277 276 276 276 276 276 276 276 277 276 276 275 274 274 273 273 274 273 273 272 272 272 272 274 274 273 273 275 275 277 279 279 281 281 282 283 283 283 283
277 277 276 276 276 276 276 275 276 276 276 275 276 276 276 276 278 278 275 274 273 271 272 271 271 272 272 272 272 274 273 274 275 276 275 276 276 277 277 280 280 281 283
277 276 275 275 274 276 280 281 277 276 276 276 275 275 275 275 276 278 279 279 278 272 262 264 272 272 273 273 274 274 273 272 271 276 275 275 277 276 277 277 281 283 283
276 275 274 274 274 274 281 281 281 276 276 275 275 275 275 275 274 274 275 277 277 278 278 276 274 273 273 275 275 274 274 273 272 275 274 272 275 274 276 278 281 282 283
275 274 274 274 274 274 280 282 281 276 275 274 274 274 274 274 274 274 273 273 273 274 275 276 276 275 275 276 275 273 272 271 272 273 274 269 273 272 275 277 280 281 282
273 273 273 272 272 272 280 281 280 274 274 273 274 274 274 273 275 278 275 271 274 274 277 278 278 278 277 277 275 271 267 267 266 269 273 271 273 271 272 273 276 280 281
275 274 274 272 271 270 278 280 279 274 267 272 272 274 276 276 278 279 276 271 271 270 272 269 268 270 271 271 273 271 269 265 266 264 270 268 268 269 267 272 274 274 275

GFSMA_sfc_thetae_042.txt.gz
Theta_e
329 329 326 324 323 323 319 313 312 312 309 310 308 307 305 303 302 301 304 312 315 317 320 320 321 321 320 319 319 321 322 322 322 323 325 325 325 326 322 322 322 321 322
323 321 320 318 318 317 316 313 312 309 311 310 307 307 306 305 302 300 299 302 310 307 311 314 317 318 320 321 320 320 320 320 320 320 321 321 322 324 325 322 322 321 321
318 317 316 314 314 314 314 312 309 309 307 307 306 307 305 300 299 299 298 297 298 302 304 307 310 313 315 318 319 319 319 318 317 317 317 318 318 320 322 323 324 322 321
313 312 312 311 312 311 309 305 302 299 298 299 299 300 298 298 296 293 294 293 292 294 294 302 303 307 310 313 317 317 317 317 314 313 313 313 314 316 318 319 321 323 325
307 305 302 303 303 303 300 297 294 295 295 296 300 298 295 295 293 291 290 290 289 289 289 294 298 300 305 308 310 312 312 311 310 309 309 309 310 311 312 314 317 319 321
300 298 297 297 298 298 296 293 290 290 291 295 298 296 295 293 290 288 287 289 287 287 288 286 287 290 299 301 304 308 310 310 308 307 306 306 307 308 309 311 312 314 317
296 294 292 291 292 293 292 292 289 287 287 288 294 293 292 290 288 286 284 285 285 285 286 285 285 287 289 298 302 306 307 306 305 304 303 304 305 306 307 308 310 311 312
290 289 289 288 288 287 286 287 288 287 285 284 291 291 288 289 287 284 283 283 282 283 284 284 284 286 286 288 295 299 300 301 301 301 302 302 303 304 305 307 308 309 310
288 288 287 286 286 286 284 284 285 285 283 283 283 288 282 283 283 287 282 280 281 281 281 282 284 285 286 287 288 289 295 297 298 299 299 300 301 302 303 304 305 306 308
286 287 286 286 285 285 284 283 283 283 283 281 282 283 280 282 277 276 278 279 280 281 280 280 281 283 285 284 286 289 291 293 294 295 296 297 298 300 301 302 303 304 306
285 285 285 284 284 283 282 282 282 281 281 280 280 279 278 278 277 276 274 276 278 279 279 280 280 281 282 282 282 285 289 290 291 291 292 294 295 297 299 300 301 302 303
283 283 283 283 282 282 281 281 280 280 280 279 279 279 278 276 276 275 274 275 275 277 278 279 279 280 280 280 283 286 287 288 289 290 291 291 293 294 296 297 298 300 300
280 281 282 281 281 281 281 280 280 279 279 278 278 278 279 278 278 278 277 275 274 276 278 278 278 279 281 279 280 284 284 285 287 288 289 289 291 292 293 295 296 298 299
281 280 280 280 280 280 280 279 279 279 278 278 278 278 278 279 279 279 278 276 273 274 275 276 277 278 278 278 280 283 279 282 285 287 287 288 289 290 291 293 294 294 295
281 280 280 279 279 279 279 279 278 278 277 278 277 278 278 278 278 277 278 277 275 271 272 274 275 277 277 278 279 278 277 280 284 285 285 286 287 288 289 290 291 292 293
280 279 279 279 279 279 279 278 277 277 277 276 277 276 276 277 276 276 276 276 276 273 271 274 274 275 276 277 278 277 277 280 280 282 283 285 286 287 287 288 288 290 291
279 279 279 279 279 278 278 277 277 277 277 276 276 276 276 276 275 274 275 275 274 274 271 273 274 275 274 274 275 276 276 276 276 280 282 284 285 285 286 286 287 288 288
279 279 279 278 278 278 277 276 276 276 276 276 276 276 275 277 274 274 274 273 273 273 272 271 273 273 273 274 274 274 276 277 276 279 282 283 284 284 284 285 285 286 286
279 279 279 278 277 277 277 277 277 277 276 276 276 276 275 275 274 274 273 273 272 274 272 272 271 273 273 274 274 275 275 276 277 280 281 282 282 283 283 284 284 284 284
279 278 278 278 277 277 277 277 277 276 276 276 277 276 276 275 274 273 273 273 273 272 272 272 271 272 273 274 274 273 273 275 275 277 279 280 281 281 282 283 283 282 282
279 278 277 277 277 276 277 276 276 276 275 275 276 276 276 276 278 277 274 273 273 271 272 271 271 271 272 273 272 274 273 274 275 276 275 276 276 276 277 279 280 280 282
277 277 277 276 275 277 280 282 278 276 276 275 275 275 275 275 277 280 280 280 278 270 260 263 272 272 273 273 274 273 272 272 268 274 272 271 274 274 275 276 280 281 282
278 277 276 275 274 275 282 283 283 276 275 275 275 275 275 275 274 274 276 278 278 278 279 276 274 273 273 274 273 273 271 270 269 271 271 269 272 272 274 276 279 281 281
277 276 275 275 274 275 281 283 283 276 275 275 274 274 274 274 274 273 273 272 273 273 274 275 275 275 275 276 275 273 271 269 269 270 271 266 270 270 273 272 277 278 280
276 275 275 273 274 273 281 283 282 275 275 274 274 274 273 273 276 278 275 271 272 274 278 280 280 279 278 277 275 270 264 264 263 266 269 268 269 268 270 270 273 277 278
277 276 275 274 273 271 279 282 282 275 270 273 273 274 276 275 277 278 275 272 270 272 272 268 269 270 271 270 272 270 268 263 264 262 269 266 267 267 265 269 272 271 273

GFSMA_sfc_thetae_045.txt.gz
Theta_e
328 328 327 325 323 321 317 311 309 309 308 308 306 303 301 299 299 301 303 307 311 315 318 320 321 322 322 322 322 321 321 320 319 319 320 321 321 323 325 326 326 324 323
326 324 321 319 318 317 316 313 309 310 310 309 307 305 301 299 298 297 297 298 303 307 310 314 316 318 320 322 323 323 322 320 316 315 314 315 316 318 319 322 323 325 325
321 319 317 315 315 314 313 311 308 307 306 306 303 299 298 296 294 292 292 292 291 300 304 308 311 313 316 316 317 318 316 315 313 312 312 312 313 313 314 315 318 320 321
316 315 314 312 312 310 308 304 302 299 299 299 296 295 294 291 290 289 289 290 289 288 294 301 304 307 308 311 313 314 313 312 311 310 308 308 309 310 311 312 313 315 317
311 311 309 308 306 303 300 296 294 296 298 296 295 293 291 289 288 288 286 287 287 286 286 294 297 299 303 308 311 311 311 309 307 306 306 306 307 308 309 310 311 312 313
305 305 303 302 300 294 291 291 292 292 294 295 294 291 289 287 285 284 284 285 285 285 284 285 286 289 300 303 304 304 305 305 304 304 304 304 305 306 306 307 309 309 310
297 297 296 296 295 291 289 289 289 293 288 290 290 289 288 286 283 282 282 282 283 284 284 284 285 286 288 295 297 300 302 303 303 302 302 302 303 304 305 306 307 307 308
292 292 292 291 289 288 287 287 287 285 284 284 291 289 285 287 285 283 281 282 280 281 282 283 284 285 284 284 288 296 298 300 301 300 300 300 301 302 303 304 305 305 306
288 289 288 287 285 285 284 284 285 284 282 282 283 290 285 286 282 285 280 279 279 279 279 281 282 283 283 282 285 288 294 295 297 298 298 299 299 300 301 302 303 304 305
286 286 286 285 285 284 283 283 284 283 282 281 281 281 279 281 277 276 277 278 279 279 278 279 280 281 281 281 284 287 290 292 292 294 295 296 297 298 299 300 301 301 302
285 285 284 283 283 283 282 282 282 281 281 280 279 279 278 277 276 276 274 275 278 278 278 278 279 279 279 279 280 284 288 289 290 291 292 293 294 296 297 298 299 300 301
282 282 282 282 281 282 281 281 280 280 280 279 279 278 278 276 275 275 274 274 275 277 278 278 278 278 278 278 281 285 286 287 288 290 290 290 292 293 294 296 297 298 299
280 280 281 281 281 281 280 280 280 279 279 278 278 278 278 278 278 277 276 274 274 276 277 277 278 278 279 277 278 283 282 285 287 288 288 289 290 291 292 293 294 295 296
281 280 280 280 280 280 280 279 279 279 278 278 278 278 278 278 278 278 277 275 273 274 275 275 276 277 277 278 279 282 278 282 285 286 287 287 288 289 290 291 292 292 293
281 279 280 279 279 279 279 279 279 278 278 278 278 278 278 277 278 277 277 277 275 271 271 274 274 277 276 277 278 277 276 279 283 284 285 286 287 288 289 289 290 291 292
280 279 279 279 279 279 279 279 278 277 277 277 277 277 277 277 276 276 276 276 275 273 271 274 274 275 275 277 278 277 276 280 280 282 283 285 286 287 287 288 288 289 290
279 279 279 279 279 279 278 278 277 277 277 277 276 276 276 276 275 274 275 274 274 274 271 273 273 274 273 274 275 275 276 276 276 280 283 284 285 285 285 286 287 287 288
279 279 279 279 279 279 278 277 277 277 276 276 276 276 275 277 274 274 274 273 273 273 272 270 272 272 272 274 274 273 276 277 276 279 283 283 283 284 284 285 285 285 286
279 279 279 279 279 278 278 277 277 277 277 277 276 276 275 275 274 273 273 272 272 274 272 271 271 273 273 274 274 275 275 275 277 280 281 281 282 282 283 283 283 283 283
279 279 279 278 278 278 278 278 277 277 276 277 277 276 275 275 274 274 273 273 273 272 272 271 271 271 272 274 274 273 273 275 274 277 278 278 279 279 280 280 281 280 281
279 279 278 278 278 278 278 278 277 276 276 275 276 276 276 276 278 277 274 273 273 271 271 271 271 271 272 272 272 273 272 273 274 274 273 273 273 273 274 277 277 279 281
279 279 278 278 277 278 282 283 278 276 276 275 274 275 275 275 278 280 281 282 277 270 263 263 271 271 272 273 273 273 272 270 268 273 271 270 272 271 273 273 278 279 280
279 278 278 277 277 277 283 284 283 276 276 275 275 275 275 275 274 274 277 280 280 280 280 275 273 274 273 273 274 273 272 270 268 271 269 267 270 269 272 274 276 278 279
278 278 277 277 277 277 283 284 285 276 275 275 275 275 274 274 274 273 273 272 273 273 274 275 275 274 275 276 276 274 271 266 268 269 270 264 269 268 270 271 275 277 278
278 277 278 277 277 277 282 284 283 277 276 275 275 274 274 274 276 279 275 271 272 273 277 280 281 281 281 279 277 271 258 256 262 265 268 267 267 267 269 269 272 275 276
279 278 278 278 277 277 281 284 283 277 274 275 275 275 277 275 277 279 276 270 269 272 273 271 272 272 273 271 273 270 267 258 263 261 268 266 266 266 263 268 270 270 271

GFSMA_sfc_thetae_048.txt.gz
Theta_e
328 327 326 325 321 318 314 309 308 308 305 303 301 300 298 297 297 297 297 308 311 315 318 320 322 322 321 322 322 320 319 317 315 314 313 315 315 316 316 318 319 321 323
328 326 322 321 318 317 314 312 311 310 308 305 301 299 295 293 292 291 291 295 305 309 313 315 316 318 318 318 317 316 315 314 312 311 311 311 312 313 313 314 315 316 317
325 322 319 317 315 315 313 310 308 308 304 300 296 293 291 290 289 289 289 288 289 301 305 308 309 312 315 316 316 314 313 311 310 309 309 309 309 310 310 311 312 313 314
321 319 316 314 313 311 309 305 304 301 296 294 291 289 288 288 287 287 287 287 286 286 295 302 306 309 311 311 310 309 309 308 307 307 306 306 307 308 308 309 309 310 311
316 315 313 311 308 305 303 301 298 298 294 291 289 287 285 285 285 286 285 285 285 284 285 296 300 300 302 304 306 307 307 306 305 304 304 304 305 305 306 307 307 308 309
309 309 307 304 301 298 297 297 295 293 293 289 287 285 284 283 283 282 282 284 284 283 284 285 285 288 296 300 302 304 304 304 303 302 302 303 303 304 304 305 305 306 307
304 304 302 299 295 294 293 296 294 293 289 288 287 285 284 282 281 281 281 281 282 282 283 283 283 283 284 294 298 300 302 303 302 301 301 301 302 302 302 304 304 304 305
299 299 298 292 290 290 291 292 291 285 284 284 288 286 282 284 283 282 280 281 279 280 281 282 282 281 280 282 289 296 298 299 300 300 299 300 300 301 301 302 302 303 303
294 293 291 289 287 289 291 287 287 287 282 281 283 289 285 285 282 283 279 277 278 278 278 280 280 280 280 280 284 288 293 295 296 297 297 298 298 299 300 300 301 301 302
289 289 288 286 285 285 285 285 284 283 283 280 280 280 279 282 278 276 277 277 277 278 277 279 278 279 279 279 283 287 290 291 292 293 294 295 296 297 298 299 299 300 300
286 286 285 284 283 283 282 282 281 282 281 280 280 279 277 276 276 275 274 275 277 277 277 278 277 277 278 278 279 283 287 289 290 291 292 293 294 295 296 297 298 298 299
283 283 283 282 282 282 281 281 280 281 280 279 279 279 278 276 275 275 273 274 274 276 277 277 277 277 277 277 280 284 285 287 288 290 290 291 292 293 294 295 296 297 297
281 281 281 281 281 280 280 280 280 280 280 280 279 278 278 277 277 277 275 274 274 275 277 276 277 277 278 277 278 282 282 284 287 288 289 289 290 291 292 293 294 294 294
282 281 281 280 280 280 280 279 280 279 280 279 278 278 278 278 278 278 276 275 273 273 275 275 275 277 277 277 279 282 277 282 285 286 287 288 289 289 290 291 292 292 292
282 280 280 279 279 279 279 279 279 278 278 278 278 278 278 277 278 277 277 276 274 271 271 273 273 277 276 276 278 276 276 280 283 284 285 286 287 288 289 289 290 290 291
281 279 279 279 278 279 279 279 278 278 278 277 278 278 277 277 277 277 277 276 275 273 271 273 274 275 275 277 277 277 276 280 280 282 284 285 286 287 287 287 288 288 289
280 280 279 279 279 279 279 278 278 278 278 277 277 277 277 276 275 275 275 274 274 274 271 273 274 273 273 274 275 275 276 276 276 280 282 284 285 285 285 285 285 286 286
280 280 279 279 279 279 279 278 278 278 277 276 277 276 275 277 274 274 274 273 273 273 272 270 272 272 272 273 274 273 276 277 276 279 282 283 283 282 283 283 283 284 284
280 279 279 279 279 279 279 279 279 278 278 278 277 276 275 275 274 273 273 272 273 274 272 271 270 272 273 273 273 274 275 275 277 279 280 280 280 281 281 281 281 281 281
279 279 279 280 279 279 279 279 279 278 278 278 277 276 275 275 275 273 273 273 273 272 272 271 271 271 271 273 273 272 273 275 274 276 277 277 278 278 278 279 279 279 279
280 280 279 279 279 279 279 279 278 278 277 277 276 277 276 276 279 277 274 273 272 271 271 271 270 270 271 271 272 273 272 273 274 274 272 273 273 272 273 275 275 277 280
279 279 278 278 278 279 283 283 279 278 277 276 276 276 276 277 279 281 282 280 276 271 263 265 271 271 272 272 273 272 272 271 269 273 271 269 271 270 272 272 277 278 279
279 278 278 278 278 278 284 285 283 278 277 276 276 276 276 276 275 275 279 282 282 283 281 273 272 273 272 273 273 273 273 271 269 271 269 267 270 269 271 273 276 278 278
279 278 278 278 278 278 284 285 284 278 277 276 276 276 276 275 275 274 274 273 274 274 275 275 275 274 274 275 275 275 271 266 269 269 270 264 269 268 270 270 275 276 277
279 279 279 278 278 278 284 285 284 280 278 276 276 276 275 275 277 280 276 272 272 273 277 280 281 281 282 282 278 270 260 257 263 266 268 266 267 267 268 268 271 274 275
279 279 279 279 279 279 283 285 285 280 278 277 276 276 278 277 279 280 277 272 271 273 273 271 273 276 276 272 274 272 268 259 262 260 268 265 266 266 263 267 269 269 269

GFSMA_sfc_thetae_051.txt.gz
Theta_e
331 329 326 324 318 316 312 311 309 306 305 304 303 299 297 298 299 301 305 310 315 317 319 321 321 320 320 319 317 316 315 313 312 311 311 312 312 312 313 313 314 315 315
331 327 326 321 318 316 314 311 308 306 303 300 297 295 294 294 294 295 297 301 308 310 313 316 318 319 318 316 314 313 312 311 311 309 309 309 309 310 310 310 311 311 312
330 326 322 318 317 315 313 311 308 303 298 295 294 293 292 292 292 291 292 294 297 305 309 312 312 312 312 313 312 311 310 310 308 307 307 307 308 308 308 308 308 309 310
325 323 320 317 315 314 311 308 303 299 294 292 292 291 290 290 290 290 290 290 292 295 302 303 304 307 308 310 309 309 308 307 306 306 306 306 306 306 306 306 307 307 308
321 320 317 313 312 308 306 304 300 296 292 290 289 289 289 289 289 288 288 288 290 290 292 296 298 300 303 305 306 307 306 305 304 304 303 303 304 304 304 305 305 306 306
317 316 312 310 308 304 302 301 297 294 293 290 286 286 287 287 287 287 287 288 288 288 288 287 288 292 298 301 303 304 304 304 303 302 302 302 302 303 303 303 304 304 304
312 312 310 304 304 302 301 299 295 292 289 289 288 286 286 286 285 286 287 287 287 287 287 286 286 286 288 295 299 300 302 302 301 300 300 300 300 301 301 302 302 302 302
306 307 304 301 299 298 298 297 295 292 290 291 291 289 285 287 287 284 285 285 285 287 286 285 284 284 286 288 293 296 298 299 299 299 299 299 299 299 300 300 301 301 301
302 301 300 297 297 300 299 298 295 293 290 288 292 295 289 289 287 288 283 284 284 285 285 284 283 283 284 286 288 290 293 295 296 297 297 297 298 298 299 299 300 300 300
297 298 294 294 296 299 298 296 295 294 292 289 285 284 287 292 287 284 283 283 283 283 284 284 283 283 283 284 286 288 290 291 292 293 294 295 296 297 298 298 299 299 299
294 292 290 291 293 295 296 295 291 290 291 288 286 284 283 283 283 284 280 281 282 283 283 284 283 283 282 283 285 285 287 289 290 291 292 293 294 295 297 297 298 298 298
289 289 287 289 290 291 291 291 289 289 287 286 285 285 284 284 282 282 281 280 281 282 283 283 283 283 282 282 282 284 285 287 289 290 290 291 292 293 295 296 297 297 297
286 286 286 286 286 286 286 286 286 286 285 285 285 284 283 283 282 282 281 279 280 281 282 283 283 283 282 282 282 283 282 285 287 289 289 290 291 291 292 293 294 294 294
289 286 286 285 284 284 284 284 285 284 285 284 284 284 283 283 283 283 281 280 278 278 280 280 281 282 282 282 281 282 281 282 286 287 288 288 289 290 290 291 291 292 292
288 285 285 284 283 283 283 284 283 283 284 283 283 283 282 282 282 282 282 281 281 277 277 279 280 281 282 281 280 281 280 281 284 285 286 286 287 288 289 289 289 290 290
284 283 283 283 282 283 282 283 282 282 283 282 282 282 281 281 281 282 281 281 280 279 278 279 280 280 280 279 280 280 279 280 281 283 284 285 286 287 286 286 287 288 288
283 283 282 282 282 281 281 282 282 281 281 281 281 281 280 280 280 280 280 279 279 279 278 278 279 279 278 278 279 279 279 279 280 281 282 284 285 284 284 284 285 285 286
283 283 281 282 281 281 281 281 280 281 280 280 280 279 279 279 279 278 278 278 278 278 278 275 276 277 276 278 278 277 278 279 279 280 282 283 283 282 283 283 283 283 283
282 282 281 281 281 281 281 281 281 281 281 280 280 279 278 278 277 277 277 277 277 277 277 276 275 276 277 277 277 278 278 278 278 280 281 280 280 281 281 281 281 281 280
282 281 281 281 281 281 281 281 280 280 280 280 279 279 279 278 278 277 276 277 276 276 276 275 274 275 275 276 276 275 276 278 277 278 278 277 279 278 278 279 279 278 279
282 281 281 280 281 280 280 280 280 280 279 279 278 279 279 279 280 279 277 277 276 276 275 275 274 274 275 274 274 276 275 276 277 277 275 277 276 275 275 276 276 278 280
281 280 280 280 280 280 284 284 281 279 279 278 277 278 278 279 280 282 282 281 278 276 274 274 275 274 275 275 275 275 275 273 272 277 274 273 274 273 274 274 277 278 279
280 280 280 279 279 280 285 285 283 279 279 278 278 278 277 277 278 278 282 283 283 282 281 276 276 276 276 276 276 275 275 274 273 275 272 271 274 272 274 274 276 277 278
280 279 279 279 279 280 286 286 284 279 279 278 279 278 277 277 277 276 276 276 277 277 279 280 279 278 278 278 277 277 276 273 272 272 272 268 272 270 272 273 275 276 277
280 280 280 279 279 279 285 286 284 279 279 279 279 277 277 277 279 281 277 275 276 276 278 281 281 282 282 282 282 276 272 269 270 271 271 268 269 269 270 270 272 274 275
280 279 279 279 279 279 285 286 285 282 281 279 278 277 279 278 280 282 280 277 275 276 276 276 276 277 280 277 278 276 273 269 268 266 269 267 268 268 265 270 270 270 271

GFSMA_sfc_thetae_054.txt.gz
Theta_e
332 330 326 322 317 314 314 313 313 312 311 308 306 306 306 307 310 311 311 312 316 318 320 322 321 318 316 315 314 313 313 311 310 310 310 310 310 310 310 311 311 311 312
333 329 326 325 319 317 313 311 311 308 305 303 301 301 301 302 304 306 307 309 314 315 316 317 316 315 315 314 313 312 311 310 309 308 308 308 308 308 309 308 309 309 309
333 328 325 322 319 315 313 311 306 301 299 299 298 297 297 297 297 298 300 304 308 309 309 311 312 312 312 312 311 310 309 308 307 307 306 306 306 306 306 307 307 307 307
332 327 323 320 318 313 311 306 301 297 296 297 296 295 295 295 295 295 295 298 302 301 303 305 307 308 309 309 309 308 307 306 306 305 304 304 305 305 305 305 305 305 305
330 325 322 319 315 311 311 304 300 298 294 295 295 294 294 294 293 293 293 294 295 296 297 299 301 302 304 306 307 306 306 305 304 303 303 303 303 303 303 304 304 304 304
326 322 319 316 312 311 306 303 297 295 294 294 292 291 292 293 293 292 292 292 292 292 292 292 295 297 299 302 303 304 304 304 302 301 301 301 302 302 302 302 303 303 303
320 319 316 314 310 309 308 301 296 293 292 294 291 290 290 290 290 291 292 292 291 290 290 290 291 291 293 297 299 301 302 302 301 301 300 300 300 301 301 302 302 302 302
316 316 313 311 307 305 304 298 296 292 293 294 294 292 287 288 289 289 290 290 290 290 289 288 288 289 291 292 294 296 298 299 299 299 299 299 299 300 300 301 301 301 302
308 310 312 310 308 306 300 298 296 297 294 295 297 299 292 292 289 287 287 288 289 289 289 288 287 287 289 290 291 291 293 295 296 297 297 298 298 299 299 300 300 301 301
307 306 302 304 303 304 302 300 297 299 299 295 296 296 295 297 292 285 286 287 288 288 288 288 287 286 287 288 287 288 290 291 292 294 295 296 297 297 298 299 300 300 300
303 303 301 300 300 303 302 302 299 300 300 299 297 292 291 291 292 291 285 284 286 287 288 288 287 287 286 287 288 287 287 289 290 291 292 293 294 295 297 298 298 298 299
302 300 297 298 300 302 305 304 303 301 300 299 297 293 291 290 289 289 287 285 285 285 287 288 287 287 287 286 284 284 284 287 289 290 290 291 292 293 295 296 297 297 297
302 299 294 292 294 298 304 303 301 299 299 297 295 292 291 291 290 289 289 285 285 285 285 287 287 287 285 287 285 283 283 284 287 289 289 290 291 291 292 293 294 294 294
303 302 296 293 291 294 299 300 299 298 297 296 293 291 290 289 289 288 287 285 282 283 284 285 286 287 286 286 283 282 284 283 286 287 288 288 289 290 291 291 291 292 292
301 296 293 291 289 290 295 296 296 293 292 292 291 290 289 287 287 287 287 287 286 281 281 283 283 285 286 285 284 284 284 283 284 285 286 287 288 289 289 289 289 290 291
296 292 289 288 287 288 292 292 291 290 289 289 288 287 286 286 285 286 285 284 285 285 283 283 283 284 284 282 283 283 283 282 283 283 284 285 287 287 287 287 288 288 289
293 291 287 286 285 286 288 289 289 288 288 286 287 286 285 285 284 283 283 283 283 284 283 282 282 283 282 282 283 284 283 283 283 283 283 284 286 285 285 286 286 286 286
291 290 285 284 284 285 284 288 287 286 286 285 285 284 283 282 282 282 282 282 283 283 282 280 281 281 280 282 282 282 281 281 282 282 283 284 284 284 283 284 284 284 284
290 288 285 284 283 283 283 285 286 286 286 286 285 284 282 282 280 280 281 281 282 279 281 280 280 280 280 281 281 282 282 282 282 282 283 282 282 282 283 283 282 282 281
288 285 285 283 283 282 282 283 284 285 285 284 284 283 282 281 280 280 280 281 280 280 279 279 279 279 280 280 280 279 279 282 281 281 282 280 280 282 282 281 281 279 280
286 285 283 282 282 282 281 282 282 283 283 282 282 281 282 281 282 281 280 281 280 280 279 279 278 278 279 279 278 280 278 280 281 282 279 279 279 279 279 280 279 278 280
284 283 282 281 281 281 284 285 283 281 281 281 280 280 281 281 281 283 283 283 282 281 280 280 279 278 279 279 279 279 278 277 276 281 278 277 279 278 278 278 279 279 280
283 281 281 281 281 281 285 286 284 281 281 281 280 280 280 280 280 281 283 284 283 283 283 280 278 279 279 280 280 278 278 277 276 279 277 275 277 276 278 277 279 279 279
282 281 281 281 281 281 286 286 283 281 282 281 281 282 282 281 279 279 279 280 281 282 282 283 282 282 282 282 281 280 279 278 278 277 276 271 276 274 276 276 278 277 277
282 282 281 281 280 281 286 286 283 281 281 280 282 282 282 281 281 282 279 279 279 279 281 283 284 284 283 283 282 281 278 274 274 276 277 272 273 272 273 273 275 275 276
282 280 280 281 280 282 286 286 284 281 280 281 282 281 281 281 282 282 281 279 277 278 279 279 278 280 281 281 282 280 280 276 275 274 275 270 272 271 269 273 273 273 272

GFSMA_sfc_thetae_057.txt.gz
Theta_e
335 330 325 319 317 317 317 317 316 314 312 311 311 311 312 314 314 313 313 314 320 322 322 320 318 317 316 315 314 313 312 311 310 310 310 310 310 310 310 309 310 310 310
333 329 323 319 315 315 316 316 315 313 309 307 306 306 307 309 310 310 312 311 315 316 316 316 316 316 315 314 313 312 311 310 309 308 308 308 308 308 308 308 308 308 308
334 330 324 321 318 317 312 312 310 308 305 303 301 300 301 302 303 304 308 309 307 311 312 313 313 313 313 312 311 310 309 308 307 306 306 306 306 306 306 306 306 306 306
334 327 324 319 316 313 312 305 302 302 300 301 299 298 297 297 298 298 302 303 302 303 306 308 309 310 310 310 310 309 308 306 305 305 305 305 305 305 305 305 305 305 305
333 328 324 319 315 315 308 303 300 300 298 298 297 297 296 296 295 295 296 298 299 299 300 302 303 305 306 308 308 307 306 305 304 303 303 304 304 304 304 304 304 304 304
333 328 324 317 314 312 307 302 300 300 298 296 294 294 294 295 295 294 293 293 293 294 295 296 298 299 302 303 304 305 305 304 303 302 302 302 302 303 303 303 303 303 304
331 326 321 316 314 311 307 302 299 297 296 295 292 292 292 292 292 293 293 292 291 291 292 292 293 294 295 299 300 301 302 302 302 301 301 301 301 302 302 303 303 303 303
325 322 319 315 313 311 306 300 298 294 295 294 294 292 287 288 290 291 292 292 290 290 289 290 290 291 293 293 294 297 298 299 299 299 299 299 300 301 301 302 302 302 302
318 317 317 314 311 309 304 300 296 296 293 294 296 297 291 290 288 289 289 290 290 290 289 289 288 289 291 291 292 291 293 295 296 297 297 298 299 300 300 301 301 301 301
312 313 313 311 310 308 303 300 299 300 296 293 297 298 298 296 289 283 287 288 289 289 288 288 287 287 289 289 289 288 290 291 292 293 294 295 297 298 299 299 300 300 300
308 307 308 309 308 308 305 302 299 299 299 297 297 295 295 296 295 292 284 284 287 288 289 288 288 287 287 288 289 287 287 289 290 291 292 293 294 296 297 298 298 299 299
303 305 304 305 306 304 303 301 299 299 298 299 298 296 294 292 289 291 288 285 283 285 288 288 287 287 287 286 285 284 284 287 288 290 290 291 292 293 295 296 297 297 297
303 301 300 302 303 304 303 302 299 299 298 298 297 295 295 294 292 291 289 286 284 285 285 287 287 287 286 287 286 283 283 284 286 289 289 289 291 292 293 294 295 295 295
306 304 301 301 303 304 304 303 301 300 298 298 298 296 293 291 290 289 288 285 283 282 284 285 286 287 286 286 284 283 284 284 285 288 288 289 290 291 291 292 293 293 293
311 309 305 303 301 299 300 301 299 298 297 297 296 294 291 290 289 288 288 288 285 280 280 285 283 287 286 286 285 284 284 285 285 286 287 287 288 290 290 291 291 292 292
308 306 303 299 295 295 296 296 294 296 294 295 292 290 288 288 287 287 287 285 286 286 282 283 284 284 285 284 284 282 283 283 284 285 286 286 287 288 289 289 289 290 291
304 299 297 295 292 291 292 293 291 291 290 290 289 288 286 286 285 285 285 284 283 284 283 280 283 284 283 282 282 281 283 283 283 285 286 285 286 287 287 287 288 288 288
300 298 296 293 292 289 289 290 288 288 288 286 287 286 284 284 284 283 283 283 283 283 282 280 281 281 280 282 282 281 281 281 282 283 286 285 286 286 285 286 286 286 286
295 293 291 289 289 287 285 287 287 286 286 285 286 284 283 283 282 282 282 281 282 280 281 281 280 280 280 281 280 281 281 282 282 284 285 285 285 284 284 285 285 285 283
292 291 288 288 288 286 284 285 284 285 285 285 284 284 283 282 281 281 281 281 281 280 280 279 279 279 279 280 280 278 278 281 280 281 283 284 282 282 284 284 284 282 281
292 290 287 286 285 284 283 283 283 283 283 282 282 282 282 283 284 283 281 280 280 280 280 279 278 278 278 278 278 279 278 279 280 281 280 278 279 279 279 281 281 281 281
288 286 285 284 283 282 286 287 284 282 282 281 280 280 282 283 284 285 284 284 282 281 280 280 279 278 278 279 279 279 278 277 275 280 277 277 279 277 278 278 281 281 281
286 284 284 283 283 282 286 287 286 282 281 281 280 281 282 283 282 282 284 284 284 285 284 281 279 279 279 280 280 279 278 277 277 279 278 275 277 276 277 277 280 281 280
284 284 283 282 282 282 286 287 285 282 281 281 281 281 283 281 281 281 281 281 282 282 282 282 281 280 280 282 282 280 279 278 278 278 278 272 275 274 276 276 279 279 278
284 283 283 282 282 281 286 287 283 282 281 280 282 283 284 282 283 284 280 279 279 280 284 285 286 286 286 286 284 281 277 276 275 276 278 275 274 273 273 273 275 277 277
283 282 281 282 281 282 286 286 283 282 280 280 281 283 284 284 285 286 281 279 278 279 279 279 278 280 282 281 283 281 279 276 276 275 276 273 272 272 269 272 273 272 272

GFSMA_sfc_thetae_060.txt.gz
Theta_e
325 321 318 314 315 315 315 312 310 308 307 307 307 308 308 310 310 310 308 315 323 322 320 320 319 318 317 315 314 313 313 311 310 310 310 310 310 310 309 309 309 309 309
328 325 319 316 314 313 315 313 311 306 303 304 303 304 304 305 306 306 304 304 316 317 317 318 317 316 316 314 313 312 311 310 309 309 309 309 308 308 308 308 308 308 308
329 325 319 316 313 313 313 312 308 305 302 300 297 298 298 299 300 303 303 301 302 312 314 314 314 314 314 313 312 310 310 309 308 308 307 307 307 307 306 306 306 306 306
330 324 320 316 314 312 309 306 304 300 299 295 293 292 292 293 293 295 298 297 298 299 306 310 310 311 311 311 310 310 308 308 307 306 306 306 305 305 305 305 305 305 305
331 325 321 317 313 310 306 302 300 299 298 295 293 291 290 290 290 293 292 294 295 295 296 304 305 307 308 308 308 308 307 306 306 305 304 304 304 304 304 304 304 305 305
331 327 322 315 312 309 305 302 299 298 297 295 293 291 289 289 289 288 288 290 290 292 292 293 293 297 304 305 306 306 306 305 304 303 303 303 303 303 304 304 304 304 304
330 327 322 315 312 308 304 301 299 295 295 294 291 290 288 288 287 287 287 286 287 287 288 288 290 292 294 301 302 303 304 303 302 301 301 301 302 302 303 303 303 303 303
328 326 320 315 312 308 305 301 298 295 293 293 290 289 284 284 285 287 287 287 286 287 287 287 288 289 289 290 294 299 300 300 300 299 299 299 300 300 301 302 302 302 302
321 323 320 316 313 311 305 301 298 297 292 292 292 293 286 284 283 285 285 286 285 285 284 285 286 287 288 288 290 292 295 296 296 296 297 297 298 299 300 301 301 301 301
316 317 318 316 314 311 307 301 299 298 294 292 293 295 295 288 283 278 282 284 285 285 283 284 284 285 287 287 289 290 291 292 292 293 294 295 296 297 298 299 300 300 300
313 314 315 314 312 311 307 302 299 298 296 294 294 294 292 292 289 283 278 280 282 283 284 284 283 283 285 287 286 286 289 289 290 291 291 292 293 295 297 298 299 299 299
309 308 309 311 310 309 306 302 300 299 298 297 296 295 294 292 287 286 280 278 279 281 283 283 283 284 284 284 286 287 286 287 288 289 290 290 292 293 295 296 297 297 297
305 305 306 306 307 308 306 304 301 299 299 298 296 297 296 293 290 289 283 279 279 280 281 283 283 284 285 284 284 285 285 285 286 288 289 290 291 292 293 294 295 296 295
306 306 304 305 305 305 304 303 300 299 299 297 296 295 295 292 289 288 285 281 277 277 279 280 283 285 285 284 284 286 281 287 286 287 289 289 290 291 292 293 294 294 294
306 303 303 302 302 303 303 302 300 298 298 297 297 295 291 288 288 287 286 283 280 276 277 280 280 284 284 284 284 282 281 285 287 287 288 288 289 290 291 292 293 292 293
306 304 301 302 301 301 302 301 299 298 297 297 296 293 288 287 286 285 285 283 283 281 277 280 281 283 284 284 285 281 280 285 285 286 288 288 288 289 290 291 291 291 292
301 300 300 300 297 296 296 298 295 295 295 293 290 289 286 286 285 284 282 282 282 282 279 279 281 282 282 281 281 280 280 280 281 285 286 287 288 288 289 289 289 289 290
297 296 293 291 290 290 292 294 292 294 292 290 288 286 285 285 283 283 282 281 281 282 282 278 279 279 280 281 281 279 280 281 280 283 286 287 288 288 288 288 287 288 288
295 292 291 290 287 289 288 292 291 291 291 290 288 286 285 284 282 282 281 281 281 281 281 280 278 279 279 280 278 279 279 279 281 284 287 287 287 287 287 286 286 287 285
291 289 288 289 287 287 286 288 287 288 288 287 286 286 284 283 282 281 281 280 280 280 279 279 278 278 278 279 279 277 277 279 279 280 283 284 285 285 285 286 285 284 283
290 288 286 285 285 285 285 285 286 285 285 284 283 283 282 282 284 283 281 280 280 279 279 278 278 278 278 278 277 278 277 278 278 279 279 278 277 277 278 282 282 282 282
287 285 284 285 284 284 288 289 286 284 284 283 281 281 282 283 285 286 285 285 283 281 279 279 278 278 278 278 279 278 278 276 274 278 276 275 277 276 277 278 281 283 283
284 283 283 284 283 283 287 288 287 283 283 283 281 282 282 283 283 283 286 286 285 287 285 282 280 279 279 280 279 278 278 277 276 278 276 275 276 276 277 278 281 282 282
282 281 281 283 282 282 287 288 286 282 282 282 282 282 282 282 282 282 282 282 282 283 284 283 281 281 281 281 281 280 278 274 275 277 277 273 275 274 275 275 280 281 281
279 278 283 282 282 282 287 288 284 282 281 281 282 282 283 283 284 285 282 281 281 281 285 286 285 285 286 285 284 279 273 270 274 275 278 275 274 272 272 273 275 278 278
282 282 282 282 282 282 286 287 284 282 280 280 281 282 284 284 286 287 281 280 278 279 280 280 281 283 285 283 285 281 274 275 276 272 274 273 271 271 268 271 272 273 272

GFSMA_sfc_thetae_063.txt.gz
Theta_e
319 315 313 312 310 310 310 309 307 307 306 306 307 308 307 309 309 308 310 317 322 320 320 319 319 317 316 315 314 313 312 312 311 311 310 311 310 310 310 310 309 309 309
321 316 315 312 311 313 314 312 308 305 306 304 303 304 304 307 306 304 303 306 318 319 318 319 317 317 316 315 314 313 312 311 310 310 309 309 309 308 308 308 308 308 308
327 319 316 314 314 314 312 311 307 304 301 301 298 299 299 301 305 303 300 300 302 312 317 316 315 315 314 314 312 311 310 310 309 308 308 307 307 307 307 307 307 307 306
328 321 316 314 313 312 310 309 304 301 298 295 295 294 293 294 295 298 297 297 297 298 307 312 312 312 312 312 311 310 309 309 308 307 307 307 306 306 306 305 305 305 305
329 324 318 313 313 311 309 306 302 300 296 294 293 292 290 289 290 293 293 295 296 295 295 304 307 310 309 310 310 308 307 307 306 305 305 305 305 304 304 304 304 304 304
329 326 320 313 312 310 305 304 301 299 296 294 292 289 290 289 288 288 288 291 293 293 291 292 293 298 307 307 307 307 306 305 304 304 303 303 303 303 303 303 303 303 303
328 326 321 314 312 308 304 303 300 297 294 293 290 287 289 289 286 286 286 286 287 288 288 291 290 291 294 304 304 305 305 304 303 302 302 301 301 301 301 301 302 302 302
328 326 321 315 312 309 305 301 300 296 294 293 290 288 285 286 285 286 285 285 284 285 286 287 287 288 289 290 294 301 302 302 301 300 299 299 299 299 300 300 301 301 301
326 326 322 317 313 310 305 301 299 298 293 293 292 292 286 285 282 286 286 284 283 283 283 284 286 288 288 287 292 293 297 298 298 297 296 296 296 297 298 299 299 300 300
316 323 321 317 314 311 307 303 300 300 297 292 292 293 295 289 285 281 284 283 283 283 282 282 283 285 286 286 289 290 293 294 294 293 293 294 294 295 297 298 298 299 299
311 314 318 317 314 313 310 305 301 301 299 296 294 293 293 290 289 284 280 282 283 282 283 283 282 282 285 285 285 288 292 292 292 291 291 292 293 294 296 297 298 298 299
306 308 312 315 315 313 311 307 303 301 300 299 297 299 295 291 290 284 282 281 282 282 282 282 282 282 282 284 287 288 290 291 291 291 290 291 292 293 294 296 297 298 298
304 309 311 312 313 313 312 308 304 301 300 299 297 298 298 297 292 289 285 282 281 281 283 283 283 283 284 284 285 288 289 289 290 290 290 290 292 292 293 294 296 296 296
306 306 308 310 312 311 309 307 303 302 300 299 299 298 298 297 292 290 286 283 280 280 281 281 284 284 285 284 284 288 284 288 289 290 289 290 291 292 292 294 295 295 295
305 305 307 307 308 307 307 306 304 301 300 299 298 297 297 295 291 290 288 286 285 278 279 280 280 284 284 284 285 285 282 285 290 289 289 290 290 291 292 293 294 294 294
303 302 304 305 305 305 304 303 301 300 299 299 299 296 295 295 293 291 289 287 284 284 281 281 281 283 284 284 285 282 281 285 287 288 288 289 290 290 291 291 292 292 293
303 301 300 302 302 301 301 301 301 300 297 298 297 296 295 296 292 288 286 284 284 284 280 279 281 282 282 282 282 282 282 282 281 286 287 288 289 290 290 290 290 290 290
299 301 299 298 299 300 299 300 298 298 296 295 295 293 293 288 287 286 285 284 284 283 281 279 279 280 280 280 280 280 280 280 280 284 287 288 289 289 289 289 289 289 288
297 294 294 294 292 293 294 297 298 295 295 295 294 292 291 286 285 284 284 284 283 283 282 280 278 279 279 279 279 279 279 279 280 284 287 288 288 289 289 288 288 287 287
295 292 291 291 289 288 290 291 292 293 292 293 292 291 288 286 286 283 283 283 282 281 281 279 278 278 278 279 279 278 277 279 279 280 283 284 285 286 287 288 287 286 285
293 290 288 287 287 286 288 288 288 289 289 289 287 287 286 286 286 285 283 282 281 280 280 279 278 278 278 278 277 278 277 278 278 279 279 279 279 278 279 283 283 283 284
288 287 286 285 284 287 290 290 288 286 286 285 284 283 283 284 285 287 286 286 284 281 279 279 279 279 279 280 279 279 278 277 274 279 277 275 277 276 277 278 282 284 284
285 285 284 284 283 284 289 290 289 284 284 284 283 282 282 283 284 284 286 286 285 286 285 283 281 280 280 280 280 279 278 278 276 278 276 275 277 276 277 278 283 283 283
283 282 281 281 281 282 288 289 288 283 283 283 283 283 283 282 284 283 283 283 283 284 285 284 283 282 282 281 282 281 280 278 277 278 277 271 275 274 276 276 281 282 281
278 278 279 280 283 282 288 288 287 282 282 281 282 283 283 282 285 286 282 281 281 282 286 286 285 285 285 285 284 281 275 275 272 274 277 274 273 272 272 273 274 277 277
279 281 282 283 282 282 287 288 285 282 280 280 281 282 283 283 286 286 283 282 280 281 281 282 283 285 286 285 287 282 279 275 276 274 274 273 271 270 267 269 272 271 270

GFSMA_sfc_thetae_066.txt.gz
Theta_e
316 314 312 311 310 309 309 308 306 307 306 308 308 307 306 308 309 309 313 317 322 321 321 320 318 317 317 316 314 314 313 313 312 311 311 311 310 310 310 310 309 309 309
319 316 313 313 310 308 309 308 307 306 304 305 305 305 305 304 306 306 307 311 320 321 319 319 317 316 315 315 314 312 312 312 311 310 310 309 309 309 308 308 308 307 307
320 317 314 313 312 312 312 307 307 305 304 301 301 302 303 302 302 303 303 303 308 314 319 318 317 315 314 314 313 311 311 310 310 309 308 308 307 307 307 307 306 306 306
322 318 315 313 313 313 312 308 303 302 301 300 297 296 297 299 299 300 300 300 300 300 308 316 314 314 313 312 312 310 310 309 308 307 307 306 306 305 305 305 305 305 304
326 320 317 315 314 312 310 306 303 302 298 296 295 294 292 294 295 296 298 299 300 296 296 306 309 313 312 312 311 310 309 308 307 306 305 304 304 304 304 303 303 303 303
328 323 320 316 313 311 308 305 302 299 297 295 293 291 290 291 290 293 294 295 295 294 293 294 295 298 310 311 311 310 308 307 305 304 304 303 302 302 302 302 302 302 302
329 325 321 316 313 311 308 305 300 296 291 293 290 290 289 289 289 288 290 292 292 291 291 291 292 293 298 308 309 309 308 307 305 304 303 301 301 300 300 300 301 301 301
330 327 323 315 314 311 307 303 301 296 293 293 290 289 286 287 287 286 286 288 287 289 289 290 289 290 291 291 294 307 307 306 305 303 302 300 299 298 298 299 300 300 300
328 327 324 318 314 312 307 303 301 299 293 291 292 292 286 286 284 284 284 285 285 286 287 288 287 288 289 289 296 300 304 304 304 302 301 299 297 297 297 298 299 299 300
323 325 324 319 315 313 309 305 304 302 299 292 290 293 293 290 286 281 285 286 284 285 286 286 286 287 287 287 291 293 298 301 300 300 298 297 296 296 297 297 298 299 299
313 322 322 318 315 313 311 307 304 302 301 299 295 291 292 289 288 284 282 281 282 286 286 285 286 286 287 287 287 290 296 297 297 296 296 295 294 295 296 296 297 298 299
308 310 316 318 317 315 312 309 305 303 302 301 298 298 295 294 288 286 283 282 283 285 286 285 285 285 286 286 288 290 294 295 295 294 294 293 293 294 294 295 296 297 298
304 307 312 314 315 315 314 311 306 304 303 301 301 298 299 299 294 292 288 283 283 284 284 285 285 285 285 286 287 289 292 294 294 294 293 293 293 294 293 294 295 296 297
308 307 307 309 312 313 313 312 309 306 304 303 302 299 300 299 297 292 290 285 281 281 282 284 286 285 285 285 286 290 286 292 292 293 292 292 293 294 293 294 294 295 296
306 302 305 305 306 308 311 311 308 305 304 302 301 300 299 300 298 295 290 288 293 284 280 283 282 285 285 285 285 287 284 288 291 292 292 292 292 293 293 293 293 294 295
303 301 302 303 305 307 308 308 307 305 303 302 301 300 299 299 296 295 292 290 290 294 289 284 283 284 285 285 285 285 284 285 288 291 291 291 291 292 292 292 293 293 293
301 302 301 304 304 305 305 305 305 304 300 300 300 298 297 298 297 294 293 291 289 288 288 281 282 284 284 284 283 285 284 283 283 288 289 290 290 290 291 291 292 292 292
298 301 298 301 302 302 302 302 301 301 298 297 297 297 296 296 295 295 292 288 288 286 284 280 280 281 282 283 282 283 281 282 281 284 287 289 289 290 290 291 291 290 290
297 296 295 297 298 299 299 299 301 300 298 298 298 296 296 295 292 291 288 288 286 284 283 282 279 280 280 281 280 280 280 280 281 283 287 288 289 289 290 290 290 289 289
295 294 292 295 294 295 295 296 296 295 295 295 295 295 294 291 292 288 286 286 284 283 282 283 280 279 279 279 280 279 278 280 279 280 283 284 285 286 287 288 288 287 286
293 293 291 289 289 288 290 289 290 291 292 292 290 290 290 289 289 288 286 285 284 284 283 281 279 278 278 278 278 279 278 279 279 280 280 280 280 280 281 283 283 284 284
289 288 288 288 287 289 291 292 290 288 288 288 288 286 286 285 287 289 289 288 286 284 282 279 279 278 279 280 280 280 279 277 277 280 279 278 279 278 279 279 283 284 285
287 286 286 285 285 285 290 292 291 286 286 286 286 284 284 284 285 285 288 287 287 288 285 282 280 281 280 282 281 279 279 279 278 278 277 275 278 277 279 279 283 284 284
283 283 281 281 281 282 289 290 290 285 284 284 284 284 284 283 283 284 284 283 283 284 285 284 285 284 284 283 283 282 281 280 278 278 278 274 276 275 277 277 281 281 280
278 277 279 280 283 283 287 289 288 283 283 283 283 283 283 282 285 286 283 282 282 283 287 288 286 287 287 286 284 281 277 276 275 275 278 275 274 272 273 273 274 277 276
278 281 283 283 283 283 286 288 286 282 281 281 281 282 283 283 287 287 282 282 281 282 282 283 283 285 286 285 286 282 280 277 276 274 275 274 271 270 268 269 271 270 269

GFSMA_sfc_thetae_069.txt.gz
Theta_e
314 313 312 313 312 311 309 307 307 307 308 309 308 308 308 312 312 313 316 318 322 322 320 319 318 317 316 315 314 314 314 313 312 312 312 311 311 311 310 310 310 309 309
315 313 311 311 312 311 308 307 306 305 306 307 305 306 306 307 310 310 312 316 321 322 321 319 317 317 315 315 314 313 313 312 311 311 310 310 309 309 308 308 307 307 307
316 314 313 313 313 311 311 309 308 305 303 306 305 304 304 303 303 306 307 309 315 318 320 319 317 316 315 314 313 313 312 311 310 309 309 308 307 307 306 306 305 305 305
321 317 315 314 312 311 311 308 306 304 303 301 301 302 302 302 302 302 303 304 305 306 311 320 317 316 315 315 314 313 312 311 310 309 308 307 306 305 305 304 304 303 303
323 319 316 315 312 311 311 307 304 303 301 298 298 297 296 298 299 299 300 300 303 302 301 309 315 316 315 314 314 313 312 311 309 308 307 306 305 305 303 303 302 302 302
325 320 318 315 313 311 310 307 304 300 299 297 295 293 292 292 293 293 297 299 298 300 299 297 298 303 314 314 314 313 313 311 309 307 306 306 305 304 302 301 301 300 300
326 322 321 317 314 311 310 307 302 299 294 293 291 290 288 289 289 290 292 295 296 294 296 295 295 296 302 313 313 313 313 312 309 307 306 305 304 303 302 301 300 300 300
330 326 323 317 314 312 310 306 301 296 294 294 293 290 288 287 287 289 288 289 293 293 293 294 293 294 295 298 300 312 312 312 310 308 307 305 304 302 301 300 300 300 300
329 328 325 319 315 314 310 306 303 302 295 293 293 294 286 289 283 285 286 287 289 288 291 292 290 292 294 294 300 304 310 310 309 308 306 305 303 301 300 300 300 300 300
324 327 326 322 318 315 313 307 306 305 303 294 294 293 293 291 288 286 283 286 286 287 288 289 291 291 292 292 295 297 301 307 306 306 305 304 302 300 299 299 299 300 300
320 325 326 322 319 317 315 310 306 304 304 302 296 293 294 291 290 287 289 282 285 285 287 289 290 290 291 291 291 293 300 303 303 303 302 301 300 299 298 299 299 299 300
310 316 321 322 320 317 314 311 307 305 304 304 300 301 297 294 292 287 286 284 282 286 286 288 288 289 290 289 291 293 298 300 300 300 299 297 297 297 297 298 298 299 299
304 308 315 318 318 317 315 313 308 306 305 304 303 299 301 300 300 296 293 289 284 286 285 287 288 288 288 289 289 292 294 297 297 297 297 296 295 295 296 296 297 297 298
307 306 307 314 317 316 315 313 310 307 306 305 304 304 301 301 301 298 297 294 286 284 284 285 287 287 288 287 289 291 289 293 295 296 296 295 295 294 295 295 296 297 297
303 303 303 305 307 311 314 313 312 309 306 304 304 303 302 303 302 299 297 297 295 295 286 284 284 287 287 287 287 288 288 290 293 294 295 294 294 294 294 294 295 296 296
301 300 301 302 302 304 305 307 310 309 307 305 304 303 302 302 302 299 297 295 296 297 295 288 284 285 286 286 286 287 287 288 290 292 293 293 293 293 292 294 294 295 295
300 301 301 301 301 301 302 305 306 306 304 303 303 301 300 301 300 298 296 295 293 294 293 290 283 284 284 284 284 286 287 286 285 289 291 292 292 291 291 293 293 293 293
298 300 299 299 300 302 304 303 303 303 303 300 301 299 299 299 297 298 295 293 292 292 292 291 281 282 283 284 284 284 284 285 284 286 289 290 290 290 291 291 292 292 292
296 296 295 296 299 302 302 302 303 302 301 300 300 298 298 296 295 296 294 293 292 291 289 286 280 282 281 283 281 283 282 282 282 285 288 288 288 289 290 291 291 291 289
294 293 293 295 294 298 299 299 299 298 298 298 298 297 296 296 295 294 290 290 288 286 285 285 281 280 281 281 282 280 279 280 279 281 283 284 286 287 287 289 289 288 287
291 292 291 289 290 291 295 294 293 294 294 294 291 291 292 291 291 293 289 287 286 285 284 284 281 279 279 278 278 279 279 279 279 281 281 281 281 281 282 284 284 284 285
288 288 288 287 287 289 292 294 293 290 289 289 289 288 288 286 288 291 292 291 288 286 284 284 281 280 279 279 280 279 279 278 277 281 279 279 281 280 280 281 284 285 285
286 286 286 286 285 286 291 293 292 288 287 287 287 287 285 285 285 286 290 290 289 290 289 284 281 280 279 281 280 280 280 280 279 279 279 277 279 278 281 281 284 284 284
283 282 282 282 281 282 289 291 291 286 285 285 285 285 285 284 284 284 285 284 284 285 284 284 283 283 283 283 283 283 281 281 279 279 279 275 277 277 279 278 281 281 279
278 277 279 276 277 284 287 289 289 285 284 283 284 284 284 283 285 287 284 282 282 283 286 287 287 287 288 287 285 282 279 278 276 276 279 277 275 274 274 273 275 278 276
278 278 280 283 283 284 286 288 287 283 282 281 282 282 283 283 286 287 283 282 281 282 283 283 284 286 286 285 286 283 280 278 276 274 276 275 272 271 268 270 271 269 269

GFSMA_sfc_thetae_072.txt.gz
Theta_e
313 313 313 313 313 311 309 307 307 308 308 308 309 310 311 314 316 316 318 318 323 323 321 320 318 317 316 316 315 315 315 314 314 313 313 312 312 311 311 310 310 309 309
313 312 311 312 311 310 309 308 307 307 307 307 306 308 308 310 312 312 313 315 322 323 322 320 319 318 317 316 315 315 314 313 313 312 311 311 310 310 309 308 307 307 306
314 312 311 313 312 313 311 310 308 307 306 307 306 307 306 306 308 310 311 311 316 320 322 321 320 319 318 317 316 315 315 313 312 311 310 310 309 308 307 306 306 305 304
319 316 314 314 314 312 311 309 307 305 305 305 305 304 304 304 305 305 306 306 308 311 319 322 320 319 318 318 317 316 315 314 312 311 310 309 308 307 306 305 304 303 302
321 318 316 315 313 311 310 308 305 305 303 301 301 300 300 301 302 301 302 302 302 304 306 315 319 318 318 318 317 316 316 314 313 311 310 309 308 307 306 304 303 302 301
323 320 318 315 313 311 310 308 305 301 302 300 297 295 294 294 296 297 299 300 301 301 303 304 304 307 316 317 317 317 315 314 313 311 309 309 308 307 305 304 303 302 301
325 321 320 316 313 311 310 309 304 300 296 295 294 294 292 291 291 293 296 295 296 298 297 298 302 301 304 316 316 317 317 316 314 311 310 309 308 306 305 304 303 302 301
328 323 321 317 315 313 310 308 304 299 297 296 296 291 294 294 291 291 290 293 296 294 294 295 296 299 300 303 308 315 316 316 315 313 310 309 308 306 305 304 303 302 302
329 326 324 321 316 315 312 309 307 305 299 294 295 298 289 291 287 289 290 292 292 294 295 294 293 296 297 298 304 309 315 313 314 313 312 309 308 306 305 304 303 302 302
327 328 326 323 319 317 316 311 309 307 306 297 295 295 295 294 292 292 286 286 290 290 293 294 293 295 295 296 297 300 305 311 312 312 311 310 308 306 304 303 302 302 301
319 324 326 324 320 318 317 314 309 306 307 304 298 294 296 294 291 289 296 292 285 286 291 291 293 293 294 295 296 297 302 305 308 308 308 307 306 305 303 302 301 301 301
310 313 321 324 322 319 318 316 311 308 307 307 304 303 299 294 293 292 290 294 292 288 287 289 290 293 294 293 294 296 299 304 306 305 304 304 303 302 301 301 300 300 300
305 307 313 319 321 320 318 316 312 309 307 306 306 303 303 303 303 297 295 296 289 289 285 288 288 290 291 293 293 294 296 301 304 304 302 301 300 300 299 298 298 298 298
306 306 306 311 317 319 316 315 312 310 309 306 306 306 304 303 303 302 299 297 293 287 287 286 288 288 289 291 292 294 294 298 301 302 300 298 298 298 297 297 297 296 296
303 303 303 304 306 311 315 315 312 309 307 306 305 305 304 305 303 302 301 299 299 295 298 289 287 288 289 290 290 291 291 294 298 299 298 297 298 297 296 296 295 295 296
300 300 300 301 301 302 305 310 311 311 309 307 305 304 304 304 304 303 301 299 298 297 295 294 287 287 288 288 289 289 289 291 295 296 296 296 296 296 295 294 295 294 296
298 298 299 299 299 300 299 302 305 307 307 306 306 303 302 303 303 302 300 299 297 296 294 298 288 286 286 286 286 287 288 288 289 294 294 294 295 294 294 293 293 294 294
297 298 297 297 298 299 299 299 301 303 303 303 303 303 301 301 300 301 300 297 296 296 294 293 288 283 283 285 285 284 285 287 286 291 292 293 293 293 293 292 292 292 292
294 294 294 294 295 297 298 300 303 302 302 303 302 300 301 298 297 297 297 296 295 294 293 292 291 282 282 283 282 283 283 284 285 288 291 292 291 292 291 291 291 291 291
291 292 292 292 292 294 295 299 300 299 299 300 300 300 298 297 296 295 294 294 293 291 289 288 282 281 281 282 282 281 280 281 281 284 286 287 289 289 290 290 290 289 288
289 289 289 288 288 289 292 295 295 296 295 296 294 293 293 293 292 294 292 291 289 288 286 286 284 280 279 279 279 280 280 279 280 281 281 282 283 283 284 287 287 285 286
286 287 287 286 286 289 292 294 294 291 290 290 291 290 289 287 289 292 294 294 290 288 286 285 285 282 280 280 280 280 279 278 276 281 280 280 281 280 282 282 284 287 287
285 285 285 285 284 285 291 292 292 290 289 289 288 287 287 286 286 287 289 292 292 292 290 286 283 282 280 281 281 279 280 280 279 280 281 278 281 280 282 283 286 286 285
283 283 282 282 281 283 289 291 291 288 287 286 286 286 286 285 285 285 285 285 285 285 286 285 284 283 283 283 283 282 281 280 279 280 280 277 278 278 280 280 282 282 281
279 279 279 279 276 280 288 289 289 286 285 284 284 284 284 284 285 287 284 283 283 283 286 287 287 287 287 286 285 282 280 279 277 277 279 278 275 275 275 274 275 281 277
279 279 279 275 276 282 286 287 288 284 283 282 282 282 283 284 285 287 283 283 281 282 283 284 284 286 287 286 287 284 281 279 277 275 278 276 273 273 269 270 271 270 269

GFSMA_sfc_thetae_075.txt.gz
Theta_e
320 322 323 323 323 320 318 317 317 318 317 317 318 320 321 322 323 323 324 318 324 325 323 322 320 318 317 316 316 316 316 315 315 314 314 314 313 312 312 311 310 310 309
319 320 320 321 320 320 316 316 316 316 316 316 316 317 319 320 321 322 322 322 322 325 323 323 322 320 318 318 317 316 316 315 314 313 313 312 312 311 310 309 308 307 307
319 319 318 319 318 318 316 314 312 312 312 311 312 312 314 315 317 317 318 319 322 321 324 322 323 322 321 319 318 318 317 315 314 314 313 312 311 310 309 308 307 306 305
319 317 316 317 317 316 315 313 311 309 309 308 309 308 308 309 312 313 312 314 318 320 321 324 323 322 321 321 320 319 318 316 315 314 313 312 311 310 309 308 306 305 304
321 318 317 317 316 314 313 312 311 309 308 310 309 306 308 305 306 305 307 308 310 314 317 319 321 320 321 322 322 320 319 318 316 314 313 312 311 310 309 308 306 305 303
322 322 319 317 315 313 313 311 309 308 308 309 305 301 304 304 301 305 305 303 305 306 311 310 315 319 318 321 321 321 321 319 317 315 314 313 311 310 309 308 306 305 304
323 321 320 319 315 313 313 313 311 304 304 302 298 302 302 302 301 302 304 304 304 303 303 304 306 309 313 320 320 321 322 321 320 317 315 313 312 311 309 308 307 306 304
325 322 321 319 317 317 312 310 307 303 305 300 302 298 301 304 300 301 302 300 304 304 304 304 302 304 306 311 315 320 320 321 321 319 317 314 313 311 310 309 307 306 305
329 326 323 323 319 317 316 312 310 309 305 298 301 303 294 295 297 298 298 299 299 301 303 303 303 301 302 305 310 314 318 319 320 320 318 316 314 312 311 310 308 306 305
329 328 326 323 320 318 317 315 312 311 309 302 298 301 301 299 298 296 295 292 296 295 298 300 301 299 300 300 303 304 308 314 316 316 316 317 315 313 312 310 307 306 305
324 327 327 325 322 320 319 318 312 310 310 310 303 298 299 300 295 293 298 301 291 291 293 296 300 300 298 300 299 301 303 307 311 312 312 313 314 313 312 310 307 306 304
316 318 322 324 324 321 319 318 315 311 311 309 310 306 302 297 297 296 294 297 299 302 294 292 293 297 300 298 299 300 302 305 308 310 310 310 310 311 311 309 307 305 304
312 314 315 319 321 321 320 318 316 313 310 310 309 307 306 305 305 299 298 298 296 296 292 293 294 293 296 297 297 297 299 302 306 308 308 308 308 308 307 306 305 303 302
312 312 312 313 317 319 320 318 317 313 312 310 309 308 308 306 306 305 302 298 297 299 292 293 291 293 293 295 295 296 296 299 303 306 308 308 307 306 305 303 301 300 300
306 307 307 307 308 310 314 316 315 313 310 309 309 309 308 309 305 306 304 304 301 298 299 302 292 291 291 294 293 293 294 295 299 303 305 307 306 304 302 300 299 299 299
303 303 303 304 305 305 306 309 311 313 311 310 309 308 307 307 307 305 304 303 301 300 297 301 296 293 290 290 290 291 291 293 295 298 302 304 303 300 299 299 298 298 297
299 300 300 301 301 302 303 303 305 308 308 308 308 306 305 306 305 305 303 302 301 299 296 300 296 291 288 288 288 289 290 290 290 294 297 301 299 297 298 298 297 296 294
297 297 297 298 298 299 300 300 301 302 303 303 305 305 304 303 302 304 303 301 299 299 297 295 298 286 286 286 287 286 287 288 288 290 294 297 296 296 296 296 295 293 293
293 294 294 295 295 297 298 299 300 301 302 303 303 302 302 302 299 300 300 299 298 298 297 295 295 284 284 284 283 284 284 285 286 288 292 294 294 294 294 294 293 292 292
291 292 292 292 292 293 294 295 298 299 300 300 301 301 301 298 299 298 296 296 295 294 293 292 292 284 282 283 283 282 281 283 283 285 288 289 291 292 293 293 291 291 289
289 289 289 290 290 290 292 293 293 294 295 295 296 296 297 296 293 296 294 294 292 291 291 289 289 282 281 280 280 282 281 281 282 284 285 285 286 286 288 289 287 287 288
287 287 287 287 288 289 292 292 292 291 291 290 291 292 291 288 290 292 294 295 293 290 288 288 288 285 283 281 282 281 280 279 277 282 282 281 285 284 284 285 286 287 288
285 285 285 286 286 287 289 291 291 289 289 290 289 289 288 288 287 288 290 292 292 293 294 288 286 284 282 282 282 281 281 281 280 281 282 280 283 282 284 284 287 288 287
283 283 283 284 284 284 288 290 290 289 288 289 288 288 287 287 287 285 286 286 286 286 286 286 285 285 285 284 284 283 283 282 281 282 282 279 281 280 282 282 286 285 284
281 280 282 281 281 282 286 288 289 286 286 286 286 286 285 285 286 287 285 284 284 284 286 287 287 287 287 287 285 283 281 281 278 279 281 279 277 276 276 276 278 284 281
279 280 280 280 278 279 283 286 287 285 284 285 284 283 283 285 286 287 285 284 282 283 284 284 285 286 286 286 286 285 283 281 279 278 280 277 276 275 272 273 274 275 274

GFSMA_sfc_thetae_078.txt.gz
Theta_e
327 328 328 328 328 327 326 325 325 325 324 324 325 326 325 326 325 325 326 318 323 325 325 324 323 321 319 319 318 318 318 317 316 316 315 315 314 314 313 312 311 310 309
327 327 327 326 326 325 324 324 323 323 323 324 324 325 326 326 326 325 325 325 321 326 325 325 324 323 322 321 320 319 319 318 317 316 315 315 314 314 313 311 310 309 308
326 325 326 326 325 325 324 322 321 321 321 321 321 322 323 325 325 324 325 325 324 320 325 325 325 324 324 322 322 321 320 319 318 316 315 315 314 314 312 311 310 309 308
327 324 322 323 324 321 323 321 319 317 319 317 318 319 318 317 320 321 322 322 323 323 322 325 326 325 324 324 324 322 321 320 319 317 316 315 314 314 312 311 310 309 308
328 324 323 321 321 321 318 318 316 316 315 316 315 317 318 317 319 318 319 319 321 320 321 321 321 321 324 324 325 325 324 322 320 318 316 316 315 314 313 312 310 309 308
330 327 326 325 320 319 317 315 315 313 316 313 311 312 315 315 318 317 318 318 320 319 318 319 319 318 318 323 323 325 326 324 322 320 318 317 315 315 314 312 311 310 308
331 328 325 323 321 320 320 318 315 314 312 313 310 310 313 315 314 314 315 316 317 317 317 315 318 317 320 321 323 323 325 326 325 322 320 318 317 315 314 313 312 311 309
330 328 323 322 321 319 319 319 317 315 311 310 309 306 305 313 310 313 313 313 314 313 311 316 315 312 316 316 318 322 323 325 325 324 323 320 318 317 316 315 313 312 310
328 329 327 324 322 320 319 319 316 313 316 313 306 306 298 299 310 314 310 311 310 309 310 310 310 313 309 308 311 314 318 322 322 324 324 323 321 318 317 316 315 313 312
328 328 327 326 326 323 321 320 316 316 314 312 307 304 310 306 303 304 310 305 305 305 308 306 306 308 308 308 305 308 309 314 317 320 321 322 323 321 319 317 315 314 312
330 329 328 326 324 323 321 320 317 315 315 314 307 306 304 304 303 299 301 307 305 303 302 304 302 307 307 306 309 307 306 308 310 312 316 318 319 321 320 318 317 315 313
327 326 325 325 325 323 321 320 320 316 314 313 313 310 304 301 299 297 296 301 302 308 305 302 304 303 305 306 305 302 305 307 308 310 311 313 315 317 318 319 317 315 313
324 324 324 322 323 324 322 320 318 317 314 313 312 312 310 309 310 305 302 302 302 305 301 301 302 304 304 305 305 299 300 303 306 308 309 310 312 314 315 315 316 314 312
319 319 318 319 319 320 319 321 319 318 316 314 313 313 312 310 309 308 305 303 301 303 304 299 299 299 304 304 303 298 301 300 301 303 306 308 310 312 312 312 314 312 309
309 309 311 311 313 313 314 315 316 314 315 314 313 313 312 312 310 308 308 306 303 299 301 306 298 297 299 299 297 300 299 298 299 300 302 304 306 309 311 311 311 310 305
306 306 307 307 308 309 309 310 311 313 313 313 312 311 310 310 310 309 306 306 305 303 299 306 307 302 299 294 294 294 294 294 295 297 298 300 301 304 308 309 309 305 302
302 302 303 303 304 305 306 306 307 307 307 309 311 309 308 309 308 308 307 304 304 303 298 302 304 301 295 294 293 291 291 291 292 293 295 297 298 300 303 305 301 299 299
299 299 299 299 300 301 302 302 303 304 304 304 305 304 304 305 305 305 305 303 302 302 300 298 301 300 291 291 290 288 288 289 289 291 293 294 296 297 300 298 297 297 298
296 297 297 296 297 298 298 299 300 300 301 302 302 302 302 301 300 301 301 301 302 301 300 297 297 293 287 285 285 285 285 286 287 288 291 292 294 295 296 296 296 295 292
294 294 295 295 295 295 295 296 297 297 298 299 300 300 300 299 298 299 298 298 297 297 296 295 295 295 285 284 284 283 282 284 284 285 287 288 290 292 294 294 293 291 291
292 292 292 292 293 293 294 294 294 295 294 294 295 296 297 296 293 295 295 296 294 293 293 292 291 291 283 281 281 282 282 282 282 285 285 286 286 286 288 291 289 289 290
289 289 289 290 290 291 292 291 291 292 292 291 291 292 293 289 291 292 293 294 294 291 289 290 291 289 288 283 282 282 281 280 280 285 284 284 287 285 285 286 289 289 289
287 287 287 288 288 289 290 290 290 290 291 291 290 290 290 290 289 290 291 291 291 292 293 290 288 288 285 284 284 282 283 283 283 282 284 281 286 284 286 286 288 288 288
286 285 286 286 287 287 288 289 289 290 291 291 291 290 289 289 290 288 287 287 287 287 287 287 286 285 285 285 285 285 284 283 283 283 285 280 283 282 284 285 286 287 288
285 285 285 285 285 285 287 287 288 288 288 288 289 290 289 287 287 287 286 285 285 285 286 287 286 287 287 287 286 285 283 282 280 280 283 281 280 278 278 279 281 287 284
283 284 284 284 284 283 285 286 287 287 286 287 288 288 285 286 286 287 285 285 284 284 284 285 285 286 286 286 286 285 285 283 280 279 282 279 278 278 275 276 276 279 277

GFSMA_sfc_thetae_081.txt.gz
Theta_e
329 329 329 329 329 328 327 326 325 325 324 324 325 326 325 326 325 325 326 318 324 327 326 326 325 324 322 321 320 320 320 319 318 318 317 317 317 316 315 314 313 312 311
329 328 329 328 328 327 325 325 324 324 324 325 324 325 325 326 326 326 326 324 322 325 326 327 327 326 325 323 322 321 321 320 319 318 318 317 317 316 315 314 313 313 312
328 327 328 327 327 327 326 324 323 323 322 323 323 324 324 325 325 325 326 326 325 320 324 326 327 327 327 327 325 323 323 322 320 319 318 317 317 317 316 314 314 313 312
329 328 327 327 328 326 325 323 322 320 320 320 320 321 321 321 322 323 324 324 325 324 322 324 326 326 327 328 328 326 325 324 322 321 319 318 317 317 316 315 314 313 312
330 329 326 325 326 325 324 324 321 320 318 319 318 319 320 320 320 320 321 322 323 322 323 323 321 322 326 326 328 328 328 326 324 323 321 319 318 317 317 316 315 314 313
332 330 328 328 326 322 320 319 318 317 315 315 315 314 316 318 320 319 320 320 320 321 322 321 322 320 319 324 325 327 328 328 327 325 324 321 320 319 318 317 316 315 314
330 330 331 328 325 320 319 320 317 315 316 318 312 313 316 316 317 317 319 318 318 319 320 320 320 319 319 322 324 325 327 328 328 327 326 323 322 320 319 318 317 316 315
330 329 329 326 323 321 320 319 317 316 318 319 311 305 304 310 319 319 318 316 316 316 317 318 317 316 318 317 317 323 324 327 327 327 328 327 325 323 321 320 319 318 317
330 329 328 326 325 323 321 320 319 317 314 317 310 309 300 302 311 318 316 315 315 314 315 315 313 314 315 315 316 316 319 321 324 326 327 327 326 327 324 322 320 318 317
330 330 330 328 325 323 320 320 321 318 316 312 309 310 310 312 306 308 317 315 312 311 312 310 310 310 310 310 310 308 310 314 316 319 322 324 325 324 324 327 323 320 319
328 329 329 328 326 326 323 321 320 317 316 314 313 310 306 306 306 302 302 308 311 306 307 308 308 308 309 308 309 307 309 310 310 311 314 316 319 321 322 323 325 323 320
326 325 326 326 324 323 322 321 320 319 317 315 315 314 306 305 302 301 298 303 304 308 311 308 306 306 306 307 306 303 306 309 310 310 310 311 313 315 317 320 322 322 324
320 322 322 322 322 323 323 322 320 319 317 315 315 313 314 311 311 309 305 304 304 307 307 306 307 307 306 306 306 301 302 305 307 308 308 308 309 310 313 315 317 319 321
316 315 314 315 316 317 318 319 317 317 317 316 314 314 313 313 312 311 308 306 303 304 306 306 301 303 304 304 304 300 302 302 304 305 305 305 306 308 309 311 313 315 317
307 308 310 310 310 311 312 312 313 313 315 315 315 314 312 312 312 311 310 308 304 300 301 306 306 301 302 302 301 302 301 299 302 303 303 303 304 304 306 307 309 311 314
305 305 305 306 306 307 308 308 309 310 310 310 311 312 312 311 310 310 309 308 306 304 299 305 306 304 299 298 297 296 296 295 297 298 299 299 300 301 302 303 304 307 310
301 301 301 302 302 303 304 304 305 305 305 306 307 307 307 308 307 307 307 307 305 304 300 303 305 305 298 295 295 293 293 292 292 294 295 297 297 298 298 300 301 303 307
299 299 299 299 299 300 300 300 300 301 301 301 303 303 302 303 302 303 304 303 303 303 301 298 301 302 299 294 293 291 290 290 289 291 293 294 295 295 296 297 299 300 299
297 297 297 296 296 297 297 298 298 298 299 299 300 300 301 300 298 299 299 299 300 301 300 298 298 300 296 288 287 286 286 286 287 289 291 292 292 293 294 296 296 296 296
294 294 294 294 295 295 295 296 295 295 296 297 297 297 297 296 295 296 296 296 296 296 296 296 296 296 296 285 284 285 284 284 284 285 287 288 288 290 292 295 294 292 292
292 292 291 291 292 292 293 292 291 291 292 293 293 293 293 292 290 292 293 293 293 292 292 292 292 293 291 283 284 284 283 283 283 284 284 284 285 285 288 291 289 290 291
289 289 289 289 288 290 291 291 290 289 289 290 290 291 291 290 291 292 292 292 292 290 288 289 289 289 289 286 283 283 282 280 280 284 284 283 285 284 284 285 290 291 291
288 287 287 287 287 288 290 290 289 288 288 289 289 289 289 289 289 289 290 291 290 291 291 289 287 287 287 286 284 282 282 282 282 282 284 281 284 282 284 287 290 290 289
286 286 286 286 286 286 289 289 288 287 287 288 288 289 288 288 289 288 287 286 286 287 287 287 286 286 286 285 285 285 284 283 282 283 284 279 282 281 282 284 288 288 289
284 284 285 284 284 285 287 288 287 285 286 286 287 287 287 287 288 288 286 285 285 286 287 288 288 288 287 287 286 284 282 280 279 280 283 280 279 277 278 278 283 287 284
283 284 283 284 284 284 287 287 287 285 284 285 286 286 286 287 287 287 284 285 284 285 284 285 285 285 286 286 286 285 284 282 280 278 281 278 278 278 274 276 276 276 276

GFSMA_sfc_thetae_084.txt.gz
Theta_e
323 323 323 323 322 322 321 319 319 319 319 319 319 320 320 320 320 319 318 317 323 326 326 328 327 326 325 324 322 322 321 321 320 320 319 318 319 318 317 316 315 315 314
323 323 322 322 321 320 319 319 318 317 317 318 319 319 320 320 320 320 320 317 321 325 326 327 329 328 328 327 325 324 323 322 322 320 320 319 319 318 318 317 316 315 314
323 321 322 321 321 321 319 317 317 317 316 317 317 318 318 319 319 320 320 320 319 320 324 327 327 329 330 330 329 328 326 325 324 322 321 320 319 319 319 317 317 316 315
325 322 320 321 321 320 319 317 316 314 314 313 313 314 314 315 316 317 318 318 318 319 320 325 327 327 328 330 330 330 330 328 326 325 323 322 321 320 319 318 318 316 316
327 323 321 319 319 319 317 317 316 314 312 312 315 313 313 313 314 316 315 316 317 319 318 320 321 322 326 327 329 330 330 330 329 328 327 325 323 321 320 320 319 318 317
329 325 323 321 320 317 316 315 316 315 314 313 313 312 310 312 311 313 313 315 315 316 317 318 317 316 319 325 327 329 330 330 330 330 329 327 326 325 322 321 320 319 318
329 328 326 324 323 318 318 317 316 313 312 313 311 307 310 311 312 312 313 314 314 314 314 315 316 317 318 323 325 327 329 330 330 330 329 329 328 326 324 323 321 321 320
329 327 327 326 322 319 318 317 315 313 313 313 310 305 304 306 312 314 313 312 312 311 313 313 314 316 314 316 316 322 325 327 328 329 330 329 329 328 328 327 324 323 321
329 327 326 326 323 320 319 319 316 315 314 313 312 309 303 301 306 313 311 311 312 311 312 312 312 313 314 312 315 317 320 322 323 324 326 327 328 326 326 327 328 326 324
328 327 326 326 324 322 320 320 319 318 316 313 310 309 311 309 305 306 312 312 309 308 307 307 308 309 308 309 310 309 311 315 317 319 320 320 321 322 323 324 325 327 328
326 327 326 326 325 324 322 321 318 317 317 315 313 308 306 306 306 303 304 308 308 306 305 305 306 308 308 308 307 306 309 311 312 312 313 314 315 316 318 319 321 322 323
323 324 323 323 322 322 321 320 319 318 317 315 315 314 308 307 305 302 303 306 306 309 309 310 308 306 306 306 305 304 307 309 311 311 311 312 312 313 314 316 317 318 320
317 314 314 314 315 316 317 318 317 315 316 315 314 314 314 313 312 310 307 306 304 307 307 307 310 307 307 306 306 301 302 306 309 309 309 310 309 310 311 312 313 314 315
304 304 305 306 306 307 307 308 307 308 310 309 311 310 311 311 312 311 308 306 302 303 305 305 303 304 306 307 305 301 303 303 306 308 309 308 307 307 308 309 310 311 311
302 301 302 301 302 303 304 304 304 304 304 304 304 305 307 310 308 309 310 308 304 298 299 302 304 302 303 303 302 304 303 301 304 306 305 305 304 305 305 306 307 307 308
298 298 298 298 298 299 300 300 300 301 301 301 302 301 302 304 304 306 305 305 306 303 299 303 304 305 301 299 299 299 300 297 298 300 301 301 301 301 302 302 303 304 305
296 295 296 296 296 296 296 296 296 297 297 297 298 298 299 299 300 300 302 302 302 302 299 301 303 304 303 297 297 296 296 295 295 295 297 298 298 298 298 299 299 300 301
294 294 294 294 294 294 295 294 294 294 294 294 295 295 297 299 296 297 298 299 298 299 298 295 298 299 299 300 297 294 293 292 290 292 295 296 296 296 296 296 297 301 301
292 292 292 292 292 293 292 293 293 293 292 293 294 294 294 294 292 292 293 295 295 296 296 294 294 296 297 293 290 288 287 287 288 290 292 293 292 292 293 294 296 296 297
290 289 290 290 290 290 290 291 290 289 289 290 291 292 292 291 290 290 291 290 291 292 292 292 292 293 294 292 285 285 287 285 285 286 287 287 289 289 291 293 295 293 292
287 287 287 286 287 288 289 289 287 287 286 287 287 288 289 289 289 291 289 289 289 288 289 289 289 290 290 291 285 286 284 285 283 284 284 284 285 285 288 290 290 291 292
284 284 284 284 284 287 290 290 289 286 285 284 285 286 287 285 287 290 290 290 290 287 286 286 287 286 287 288 287 286 286 281 280 283 283 282 284 284 284 285 291 292 291
283 283 283 283 283 283 288 289 289 286 284 284 284 285 285 286 286 287 288 290 289 289 290 287 285 286 285 286 287 285 283 282 281 282 281 281 284 282 284 287 291 291 289
282 282 282 281 281 282 287 288 288 285 284 283 284 284 285 285 286 286 286 285 285 285 286 286 286 286 286 286 285 284 283 281 282 282 283 278 279 278 280 281 289 290 289
279 278 280 278 277 281 286 287 287 284 283 284 284 285 285 285 287 288 285 283 283 284 287 289 288 289 289 288 286 284 281 279 278 279 282 279 278 276 276 276 283 286 285
281 281 280 279 278 279 284 287 287 283 283 283 284 285 285 287 287 287 284 283 282 284 284 284 284 284 284 283 283 282 284 279 278 277 281 277 278 277 273 275 275 275 277

GFSMA_sfc_thetae_087.txt.gz
Theta_e
320 321 321 321 320 319 319 318 317 317 317 317 317 317 318 318 318 318 316 316 323 327 327 328 330 328 328 326 325 324 323 323 322 321 321 321 320 320 319 319 318 318 317
321 321 320 320 319 319 318 317 316 316 316 316 316 317 317 318 319 319 319 317 320 325 327 329 330 331 331 330 330 328 327 326 325 323 322 321 321 320 320 320 319 318 317
321 320 320 319 319 319 317 315 315 315 314 314 314 316 316 317 317 318 318 318 318 319 324 327 329 330 331 332 332 332 331 329 327 326 325 323 322 322 321 320 320 319 318
323 319 319 319 319 318 317 315 314 313 312 312 311 312 313 313 314 315 316 317 317 319 320 324 327 328 330 331 332 332 332 332 331 328 328 327 324 323 322 322 321 320 320
325 321 318 318 318 317 316 315 314 312 311 312 312 315 314 311 312 314 314 315 316 317 317 320 321 322 326 329 330 331 331 331 332 331 330 328 328 327 326 324 324 322 321
328 325 321 319 318 316 318 313 314 315 314 313 313 313 313 313 312 311 312 315 316 314 315 316 316 318 319 325 328 329 331 331 332 331 331 330 329 328 328 327 326 325 324
329 327 326 323 322 319 318 317 316 314 313 313 311 307 310 310 310 311 311 311 311 313 313 314 315 317 318 322 324 327 329 330 330 330 330 330 330 330 329 329 328 326 324
329 327 326 325 324 320 317 317 315 313 313 313 312 306 305 309 309 312 311 311 309 312 311 312 313 315 315 315 316 322 325 327 327 327 328 329 328 327 328 329 329 330 329
328 327 326 325 324 321 320 319 317 315 313 313 313 311 305 303 308 314 310 310 310 308 309 309 310 311 311 312 315 317 320 321 322 323 324 324 323 324 325 325 324 324 326
328 327 326 325 324 322 320 319 319 317 315 313 312 311 312 310 306 306 310 309 309 312 309 305 306 308 309 310 310 309 311 315 317 318 319 319 319 320 320 320 320 320 321
325 326 325 325 324 323 321 320 319 317 317 315 312 310 307 307 306 303 303 305 308 308 307 306 310 310 308 307 308 307 309 311 312 313 314 315 316 317 317 318 318 318 319
321 320 321 321 321 320 319 318 317 317 316 315 314 313 311 307 307 305 303 304 304 307 309 309 306 308 308 305 305 304 307 310 311 312 312 312 313 314 315 316 316 317 317
308 307 308 306 306 306 307 307 308 308 308 308 309 311 311 309 310 309 306 304 302 305 305 307 307 307 307 305 305 302 303 306 309 310 310 311 312 311 312 313 314 314 314
300 301 301 301 302 302 302 302 302 302 302 301 302 302 307 308 308 308 306 304 300 299 300 299 300 301 303 307 306 301 304 303 306 308 309 310 311 310 309 310 311 311 311
298 297 297 297 297 298 298 298 298 298 298 298 298 299 299 301 302 304 305 301 300 295 295 297 298 299 300 302 303 304 304 302 305 306 307 307 308 307 307 307 307 308 308
295 294 294 294 294 295 295 295 294 295 295 295 296 295 295 297 298 298 299 300 299 297 293 297 298 300 301 301 300 300 301 298 300 303 304 304 303 304 303 304 304 304 305
293 292 293 292 292 292 292 292 292 293 292 292 292 292 293 294 295 296 296 296 296 297 293 295 297 298 298 298 299 298 298 299 298 298 299 299 299 299 299 299 299 300 301
291 291 290 290 290 290 290 290 290 291 290 290 290 291 291 293 292 293 293 292 293 293 292 290 293 294 293 295 297 294 296 295 294 295 296 297 297 297 296 296 296 297 297
289 288 288 288 288 289 288 289 290 288 288 288 289 288 289 289 288 288 289 289 290 290 290 289 289 292 292 293 293 293 290 291 290 291 294 293 292 292 292 293 294 295 297
287 286 286 286 287 287 287 287 288 287 287 287 287 287 287 287 286 287 287 288 288 287 287 286 287 287 289 291 288 287 288 289 288 286 288 288 289 289 290 292 293 293 292
285 285 285 284 284 285 286 286 286 285 284 285 284 284 285 285 287 288 287 287 286 285 285 285 284 285 286 287 287 289 288 289 285 284 284 284 284 285 286 291 290 291 292
283 283 282 282 282 284 287 288 288 284 284 283 283 283 283 283 286 287 288 288 288 285 285 285 284 284 284 285 287 286 285 284 283 283 282 282 284 284 285 287 291 291 291
281 281 281 281 281 281 286 288 288 284 283 283 282 282 283 284 285 285 287 288 287 287 288 285 283 283 283 285 285 283 283 284 281 282 281 278 281 279 282 287 290 291 290
280 280 280 280 280 281 286 287 287 283 282 282 283 284 284 284 285 285 286 285 285 285 285 285 285 285 285 286 285 284 283 281 282 282 282 276 278 276 279 285 289 289 287
278 277 279 277 275 278 284 286 286 282 282 282 282 284 284 284 286 288 285 283 282 283 287 288 288 287 285 286 287 283 280 279 277 279 281 278 277 275 275 275 279 286 285
278 278 279 276 275 275 282 285 286 282 279 281 282 284 285 285 287 287 284 283 283 283 282 283 279 280 280 279 281 279 282 278 278 276 280 277 277 277 273 274 274 274 276

GFSMA_sfc_thetae_090.txt.gz
Theta_e
318 320 319 318 318 317 318 316 316 316 315 316 316 316 316 317 317 317 316 316 321 326 329 330 331 331 331 330 329 328 327 326 325 324 323 323 322 322 321 321 321 320 319
319 319 318 319 318 318 317 316 315 314 314 314 315 316 316 316 317 317 318 317 320 323 327 330 331 332 333 333 332 332 332 330 328 327 325 325 324 323 323 322 322 321 321
320 319 318 318 318 318 316 314 314 314 313 313 312 314 314 315 315 316 316 317 318 319 323 328 330 331 332 333 334 333 333 333 332 330 328 327 325 325 324 323 323 322 322
321 318 318 318 318 317 316 314 313 312 311 311 310 311 313 313 314 314 314 314 315 318 320 323 326 328 329 331 332 333 333 333 333 333 332 330 329 329 328 326 326 326 325
323 319 317 317 316 316 315 314 313 311 311 313 313 314 315 312 312 313 312 313 313 315 317 319 320 321 324 327 329 331 332 332 333 333 332 331 331 329 328 328 328 327 326
327 323 320 318 317 315 318 314 315 314 314 313 314 314 313 312 311 311 310 311 311 312 313 313 314 315 318 323 326 329 330 330 331 331 331 330 330 331 330 330 329 327 328
329 327 325 323 321 319 316 316 316 314 313 313 311 309 310 311 310 309 309 309 309 310 310 311 312 313 315 320 323 326 328 329 328 329 329 328 327 327 327 328 330 331 330
328 327 326 325 324 321 319 317 316 314 311 313 312 308 306 309 307 311 310 309 309 309 309 310 310 311 311 313 314 320 324 326 325 325 325 325 325 324 325 325 325 326 326
328 327 326 325 324 323 321 320 318 315 314 314 314 312 306 303 310 311 310 309 308 307 307 307 308 309 309 309 312 313 317 319 321 322 321 321 321 321 321 322 322 323 323
327 327 326 325 324 322 321 319 319 317 315 312 313 311 312 310 305 303 306 309 306 306 307 307 305 307 307 308 308 308 310 314 315 317 317 319 319 320 320 320 320 320 320
325 325 325 325 323 321 321 320 319 317 316 314 312 310 308 307 306 303 301 303 306 305 304 304 305 307 307 307 306 305 308 311 312 312 314 315 316 317 318 318 318 318 318
314 314 313 314 312 310 309 309 312 309 309 311 309 309 308 306 305 304 301 301 300 302 302 304 305 305 306 306 305 303 306 309 311 311 311 312 312 314 315 317 317 317 317
305 305 305 302 302 302 302 302 301 301 301 300 300 302 305 304 305 303 301 299 297 299 299 299 302 302 304 303 303 301 302 306 309 310 310 310 312 311 311 313 314 314 314
301 299 298 298 298 298 297 298 297 297 296 296 295 296 297 298 300 299 300 297 293 292 293 292 296 299 299 300 301 300 302 303 306 308 309 308 309 309 309 310 311 311 312
295 295 294 294 294 294 295 294 294 294 293 292 292 292 293 294 295 295 296 296 294 288 288 290 291 295 296 297 298 299 299 300 303 305 305 305 306 306 307 307 307 308 308
293 292 292 292 291 291 291 292 291 292 290 290 291 290 290 292 292 292 293 293 293 292 288 291 292 294 295 295 296 296 297 296 299 301 302 303 303 303 303 303 303 304 304
291 290 290 290 289 289 289 289 289 289 287 287 288 288 288 289 290 290 290 291 291 291 288 289 291 292 291 291 292 294 295 295 296 298 299 300 300 300 300 300 300 300 300
289 288 288 287 287 287 287 287 288 286 286 285 286 286 286 288 287 288 288 287 288 289 287 285 287 288 288 290 291 290 291 293 294 295 297 298 298 297 296 295 296 296 296
286 286 286 285 285 286 285 286 286 286 285 285 285 285 285 285 283 284 284 286 287 287 287 285 284 287 287 288 288 289 289 290 290 292 294 292 291 291 292 293 293 294 295
285 284 284 284 284 284 284 285 285 285 284 285 286 285 284 283 282 283 284 285 285 285 284 284 284 284 285 287 287 285 286 288 288 287 288 288 288 288 290 293 292 292 292
283 283 282 282 282 283 284 284 284 283 283 283 283 283 283 283 285 285 285 284 284 284 283 283 282 283 283 283 283 285 284 285 285 285 284 284 284 285 286 290 290 291 292
281 281 281 281 281 283 286 288 286 283 283 282 282 282 283 283 285 286 287 288 287 284 283 282 282 281 281 283 283 283 283 282 280 283 280 279 282 282 284 288 291 291 290
280 280 280 280 280 280 285 287 287 283 282 281 281 282 282 283 284 283 285 287 286 287 287 284 282 281 281 283 283 283 283 282 281 282 281 277 279 278 284 287 290 289 289
280 280 280 279 279 280 284 286 287 283 282 281 281 281 281 282 283 283 285 284 284 282 283 284 284 284 284 283 282 283 282 281 281 281 281 275 277 275 277 279 288 287 286
277 276 279 275 274 277 283 285 285 281 282 281 282 281 281 283 285 286 284 283 282 284 286 287 286 285 284 283 282 280 279 278 277 278 280 277 276 275 275 274 275 284 284
277 278 277 275 274 273 281 284 284 279 277 280 280 282 283 285 286 286 284 284 283 283 284 274 273 277 278 277 279 276 278 277 277 276 280 277 277 277 272 274 273 273 274

GFSMA_sfc_thetae_093.txt.gz
Theta_e
317 317 316 316 316 316 316 315 314 314 314 314 315 314 314 315 316 316 316 316 320 325 329 331 332 333 333 333 333 333 332 330 329 328 327 326 325 325 324 324 324 323 323
317 318 317 317 317 316 316 315 314 313 313 313 313 314 314 314 315 315 316 316 320 323 327 330 331 332 333 334 333 334 334 334 333 331 329 328 327 326 326 325 325 324 324
318 318 317 316 317 316 315 314 313 312 312 312 311 312 312 312 313 313 314 314 315 318 321 325 328 329 330 332 333 333 333 333 334 333 332 331 330 328 328 328 328 327 327
320 317 316 316 316 316 315 313 312 312 311 310 310 311 313 313 313 313 313 313 313 314 317 320 323 324 326 328 330 331 331 332 332 333 332 332 331 330 330 329 329 327 328
321 317 316 315 315 315 314 315 311 311 311 312 313 312 312 311 311 313 311 311 311 312 313 316 318 318 320 324 327 329 330 330 330 331 330 330 330 329 329 330 330 331 329
325 322 320 317 316 315 317 316 312 315 315 312 313 314 312 312 310 308 309 310 310 310 310 310 310 312 316 320 324 326 327 328 328 328 328 327 328 327 328 326 326 328 328
328 326 324 323 321 319 319 317 316 314 313 312 309 313 310 312 308 308 309 309 309 310 309 309 309 310 311 317 320 322 324 325 324 324 324 325 326 324 324 323 324 326 327
328 327 326 325 323 321 320 318 316 315 313 313 313 309 305 307 307 310 309 309 307 308 308 308 308 308 308 309 310 317 320 322 321 320 321 321 320 320 321 322 322 322 323
328 326 326 325 324 323 321 320 318 316 314 315 314 311 306 304 306 307 307 305 305 304 304 305 305 306 306 306 309 310 313 316 318 319 318 318 317 318 319 319 320 320 321
327 327 326 325 324 322 321 320 319 318 315 312 311 309 311 310 304 299 303 305 303 304 304 304 304 304 304 305 306 306 308 312 313 314 314 315 316 316 317 318 319 318 319
324 324 324 322 320 318 317 317 315 313 313 311 310 309 305 305 301 302 296 297 301 300 301 301 302 303 304 304 304 304 307 310 310 310 311 311 312 313 314 315 316 316 316
311 310 310 309 308 307 305 303 303 302 302 306 303 304 302 301 299 298 296 295 294 294 297 299 299 301 301 302 303 302 305 306 307 307 307 309 308 309 311 311 313 313 314
305 304 304 303 300 299 299 299 298 297 296 295 295 296 296 296 297 297 294 292 290 290 291 294 296 297 299 298 299 298 300 302 303 304 304 306 306 305 306 308 309 309 309
301 300 298 296 295 295 295 295 294 294 292 291 291 290 292 292 293 293 292 291 286 285 286 287 292 294 294 295 296 297 296 298 299 299 301 301 301 302 303 304 306 306 306
296 294 293 292 292 292 292 292 291 289 289 289 288 288 288 290 290 290 290 290 290 283 283 286 286 289 291 292 292 292 292 294 295 297 297 299 300 300 300 302 303 304 305
292 291 290 290 289 289 290 290 288 288 286 286 287 286 286 287 288 288 288 289 289 288 283 287 287 289 289 289 290 290 290 291 293 295 296 297 298 298 299 299 300 301 302
289 289 288 288 287 287 287 287 287 285 285 284 285 285 284 285 285 285 286 286 286 286 284 285 287 288 287 287 288 289 290 290 290 293 294 296 296 296 296 297 297 298 298
288 287 287 286 286 285 285 285 284 284 283 283 284 283 283 285 283 284 283 284 285 286 285 282 284 285 285 287 287 287 288 289 290 291 294 293 293 293 293 294 295 295 296
286 285 285 284 284 284 284 284 284 284 283 283 283 283 283 282 281 281 283 284 284 285 285 283 282 284 285 286 284 285 285 285 287 290 291 291 290 290 291 293 294 293 293
284 283 283 283 283 282 283 283 284 283 283 283 284 283 282 281 282 283 283 283 284 283 283 283 282 282 283 284 284 282 282 284 283 286 286 286 287 288 292 293 291 291 292
282 282 281 281 281 282 284 283 283 282 282 282 282 282 282 282 284 285 284 284 284 283 284 282 281 282 281 282 281 283 282 282 283 282 279 280 281 285 286 289 289 290 291
281 281 280 280 280 281 286 287 285 282 282 281 281 281 282 281 283 286 286 287 287 284 282 282 281 281 281 282 282 280 280 280 279 282 277 278 281 280 285 286 290 289 289
280 280 280 280 279 279 285 286 287 283 282 281 281 282 282 282 282 283 285 286 285 286 287 284 282 282 281 281 280 278 278 279 278 281 280 276 278 276 276 286 288 288 287
279 279 279 279 278 279 284 286 286 282 281 281 281 281 281 281 281 284 284 283 283 284 284 285 284 284 283 282 281 280 280 278 279 280 280 274 277 274 276 275 285 286 285
277 276 278 274 273 275 283 284 284 280 281 280 281 281 280 280 284 286 283 283 281 284 286 286 284 284 283 282 281 272 273 271 271 275 280 277 277 275 275 274 274 280 284
277 277 276 273 273 271 280 283 283 279 273 278 278 280 281 282 284 285 283 283 282 281 283 280 277 275 276 275 278 273 275 268 271 272 279 276 277 277 272 274 272 272 272

GFSMA_sfc_thetae_096.txt.gz
Theta_e
315 315 315 315 315 315 315 314 313 313 313 313 314 313 313 313 314 314 315 316 320 325 328 330 331 332 333 333 334 334 334 334 334 333 332 331 329 328 328 327 327 327 326
316 316 316 316 315 315 315 314 313 312 312 312 312 312 312 312 312 313 313 314 319 321 324 327 329 331 332 332 332 333 333 333 334 334 333 332 331 331 330 329 328 328 328
316 316 315 315 315 315 314 313 312 312 311 311 310 311 312 312 312 312 312 312 313 316 319 323 325 327 328 329 330 331 331 331 331 333 332 331 330 330 330 330 330 330 329
318 316 315 315 315 314 314 313 311 311 310 310 310 312 312 312 312 312 312 311 311 312 314 318 320 322 324 326 328 328 328 327 326 329 330 328 329 328 328 328 328 328 330
321 319 316 315 315 314 314 316 314 310 313 314 312 312 312 311 311 311 310 310 310 310 310 313 315 315 318 322 323 324 324 325 324 324 325 326 326 325 325 325 326 327 327
324 322 320 318 316 316 317 317 315 316 315 315 313 312 311 311 309 307 309 309 309 309 309 308 308 309 314 318 320 319 320 322 322 321 320 320 320 321 322 322 323 324 325
325 324 323 323 321 319 319 318 316 315 311 314 309 312 310 308 307 308 307 307 307 308 307 307 307 306 307 314 316 317 318 319 318 318 318 318 318 318 319 318 319 319 320
327 327 326 324 323 322 321 319 317 316 314 314 313 310 304 304 306 308 306 306 305 304 305 305 304 304 305 305 307 314 316 317 318 317 316 315 315 315 315 316 316 318 318
327 326 326 325 324 323 322 321 319 316 314 314 314 308 301 299 305 304 303 303 301 300 300 301 301 302 302 302 305 306 310 312 312 312 312 312 312 311 312 313 314 315 314
327 327 326 325 324 322 321 319 318 317 315 310 310 308 308 308 300 296 299 300 299 299 299 300 300 301 301 302 303 304 305 305 305 305 306 306 308 309 309 311 312 312 312
323 323 323 321 318 316 314 314 311 308 306 309 307 302 300 299 297 297 292 291 292 293 295 296 297 297 299 299 298 298 300 299 299 300 301 303 304 306 308 309 310 311 311
311 312 310 309 308 307 306 303 301 300 300 298 297 297 296 295 295 291 289 287 287 288 290 291 293 295 295 295 295 296 295 297 298 298 299 299 300 302 304 305 306 307 308
306 305 305 303 301 300 298 297 295 294 293 292 292 291 291 291 292 291 290 287 285 285 288 288 291 292 292 291 291 292 293 294 295 295 296 297 298 299 300 302 303 303 304
303 301 299 297 295 294 294 293 291 290 289 288 287 288 288 289 289 289 288 287 282 282 282 283 287 287 289 290 290 292 289 292 293 294 295 295 296 297 298 300 301 301 302
298 296 295 291 291 291 291 289 288 287 287 286 286 286 286 287 287 287 287 286 285 280 280 282 283 286 288 288 288 288 288 291 292 293 294 294 296 297 297 298 299 299 300
294 293 289 289 288 289 289 287 286 285 285 285 285 284 284 285 284 285 285 285 285 285 280 283 284 286 286 287 288 287 287 290 290 291 292 293 293 294 295 295 296 297 298
291 289 288 287 286 286 286 285 284 284 283 283 283 283 283 283 282 282 283 283 283 283 281 282 284 285 284 285 286 287 287 286 287 289 291 292 292 292 293 294 295 296 297
288 287 286 285 284 284 284 284 283 283 282 282 282 282 281 283 281 281 283 283 282 282 282 280 282 283 284 286 286 285 285 286 285 288 291 290 290 292 295 295 295 294 295
285 285 284 283 283 283 283 283 283 283 283 283 282 282 281 281 280 280 280 280 281 283 284 282 282 284 284 285 284 283 283 283 284 287 287 287 289 292 293 293 293 292 292
284 283 283 282 282 282 283 283 283 283 282 282 283 282 282 281 280 279 280 280 283 283 283 283 282 282 283 284 284 281 280 281 282 283 283 284 287 290 291 291 291 290 290
282 282 281 281 281 282 284 283 283 282 282 281 282 282 282 281 284 284 283 283 283 283 283 281 281 281 281 282 280 281 279 280 278 280 279 280 281 281 287 289 288 288 289
281 281 281 280 280 282 287 287 284 282 282 281 281 281 281 280 282 285 285 286 285 282 282 282 281 281 281 282 280 279 278 278 275 278 278 277 278 277 276 285 288 288 288
280 280 280 280 279 280 286 287 286 282 282 281 281 282 282 282 281 281 284 286 285 286 286 284 282 282 282 281 280 278 274 274 274 277 277 274 276 275 276 280 287 286 285
279 279 279 279 278 281 285 286 285 282 281 281 281 281 280 281 281 281 283 281 281 283 284 284 283 282 282 282 281 279 277 276 273 275 277 270 274 273 275 274 282 285 284
277 277 278 275 276 277 284 285 283 280 281 280 281 281 280 280 282 284 280 275 278 283 285 287 286 285 283 281 281 270 267 267 266 271 274 273 272 273 273 272 273 278 281
277 277 277 274 274 274 282 283 282 280 276 278 279 279 281 281 283 284 279 275 276 282 281 282 280 280 275 274 277 271 274 273 269 268 276 273 274 275 272 272 272 271 271

GFSMA_sfc_thetae_099.txt.gz
Theta_e
322 322 322 323 323 323 323 323 322 321 320 320 320 319 319 320 320 321 322 316 319 324 327 330 331 332 332 331 331 331 332 332 333 334 334 332 331 332 332 331 331 331 330
323 323 323 324 324 324 323 322 321 320 319 319 319 319 320 320 321 321 321 321 317 319 322 326 328 329 330 329 328 328 328 330 329 329 330 330 330 330 330 330 330 330 330
322 323 324 323 324 323 322 321 320 320 320 319 320 320 321 322 321 320 320 320 319 317 318 323 324 324 324 324 324 325 325 325 325 325 325 326 324 324 325 327 327 327 328
322 322 322 323 323 322 322 320 318 320 320 319 320 321 322 321 320 319 319 318 318 318 317 318 318 318 320 320 320 321 321 321 321 321 321 321 321 321 320 321 322 323 323
322 322 321 322 322 322 320 319 319 317 319 321 320 321 322 320 319 317 316 317 317 316 315 315 313 313 315 316 317 318 318 318 318 317 317 317 317 318 318 317 318 319 320
324 323 322 321 320 319 319 320 318 318 320 320 318 317 320 319 317 316 315 314 315 312 314 310 311 309 311 312 314 316 317 317 316 315 314 314 314 314 315 315 316 316 317
325 324 324 323 322 321 321 320 319 317 318 320 318 318 317 315 315 314 315 314 311 311 308 307 308 308 308 309 312 315 314 313 312 311 309 309 309 310 311 312 312 313 313
326 325 325 325 324 323 322 321 320 318 317 317 316 313 309 310 314 312 311 312 307 306 302 305 305 304 306 306 307 306 306 307 308 307 307 307 308 308 309 310 310 311 311
328 327 327 327 326 325 325 323 321 319 316 315 315 313 306 303 306 310 308 308 303 298 301 302 301 302 304 302 300 298 300 302 304 305 305 305 306 306 307 308 309 310 311
328 327 327 327 326 324 322 320 320 319 317 312 313 311 313 310 301 299 304 303 298 296 298 298 298 301 299 297 296 295 296 298 298 299 301 301 303 304 305 306 306 307 307
327 326 326 324 321 319 318 316 313 312 313 312 309 307 306 304 303 297 293 294 293 294 296 295 298 297 295 294 294 293 294 295 296 296 297 298 300 302 303 304 305 305 306
316 317 315 314 312 311 309 307 306 306 305 303 301 299 299 297 295 294 292 290 288 292 293 296 295 294 292 292 292 292 293 294 295 296 296 296 298 299 301 302 304 304 304
310 310 309 306 305 304 302 302 300 298 298 296 295 294 294 294 294 293 292 289 288 290 294 295 292 292 291 291 291 291 291 292 294 294 295 295 296 297 298 300 301 301 302
310 305 302 301 300 298 297 296 295 294 293 293 292 292 291 291 291 291 290 288 286 287 288 288 292 290 290 290 290 291 290 290 292 293 294 294 296 296 296 298 299 299 300
302 300 298 296 296 295 293 292 292 291 291 290 290 290 290 289 289 290 289 289 287 283 284 287 287 290 289 290 290 290 290 290 291 292 292 294 294 296 298 298 299 301 301
298 295 294 293 293 292 290 290 289 289 289 288 288 287 287 287 287 288 287 287 287 285 283 286 286 287 288 288 289 290 289 289 289 290 292 292 294 297 297 297 298 298 299
295 292 292 291 290 289 288 288 288 287 286 287 286 286 286 286 285 285 286 286 286 285 282 284 286 287 287 287 288 289 289 287 288 288 290 292 294 294 294 295 295 295 296
292 290 289 289 288 288 287 287 286 286 286 285 285 285 284 284 284 284 285 285 285 285 283 282 284 286 286 287 287 287 286 286 287 287 290 293 293 293 293 293 293 293 293
289 288 287 287 286 286 286 286 286 286 285 285 285 284 284 284 283 284 284 284 284 285 285 283 283 285 286 287 286 285 285 285 286 285 287 288 290 291 291 291 291 290 290
287 286 286 285 285 285 285 285 285 285 285 285 285 285 284 284 283 283 283 283 284 284 284 284 283 284 285 286 285 282 281 284 283 284 284 284 285 286 290 289 289 288 288
285 285 284 284 284 285 285 285 285 284 284 284 284 284 284 284 284 285 284 284 284 284 284 282 282 283 283 283 281 281 280 281 283 283 282 281 281 282 281 287 287 287 287
283 283 283 282 283 285 288 287 285 284 283 283 283 283 284 282 284 285 285 286 286 284 283 283 283 281 282 283 282 280 280 278 278 284 281 280 280 279 279 286 286 286 285
282 281 281 282 282 284 288 288 286 284 283 283 283 283 283 283 282 283 284 285 285 286 286 285 283 282 282 282 281 280 279 279 279 282 281 279 280 278 278 281 286 286 285
281 281 280 281 281 284 288 287 285 283 283 282 282 282 282 282 282 283 283 283 283 283 284 285 285 285 284 284 282 281 279 278 280 281 281 277 280 278 278 277 281 282 284
280 279 280 279 281 282 286 286 283 282 281 281 282 282 281 281 282 283 282 279 279 282 286 287 288 287 284 283 282 278 277 276 278 279 281 279 279 278 277 276 275 277 279
279 279 278 278 277 280 285 285 283 281 280 280 280 280 280 281 282 283 283 279 276 279 283 284 284 284 280 278 278 276 276 276 277 278 279 278 278 278 276 275 273 273 273

GFSMA_sfc_thetae_102.txt.gz
Theta_e
327 328 329 330 331 331 330 330 329 328 327 326 326 326 326 327 328 328 328 317 320 324 328 330 329 328 327 326 326 326 326 326 325 325 325 325 325 325 325 325 326 328 329
330 330 330 331 331 331 331 330 328 327 327 327 326 326 327 329 328 327 326 325 319 320 324 324 320 322 323 322 322 322 322 322 322 321 321 321 321 321 321 321 321 322 323
328 330 331 331 331 331 330 330 329 328 327 327 326 327 328 328 326 325 323 323 323 318 319 316 316 316 317 319 319 320 320 320 320 319 318 318 318 318 318 318 318 318 319
328 329 330 330 331 330 330 329 327 326 327 327 327 327 326 326 325 322 321 322 320 317 316 313 312 313 314 316 318 319 319 318 316 315 313 313 312 313 313 313 314 315 316
327 327 327 329 329 328 328 326 326 324 325 325 325 324 325 325 323 318 319 319 314 314 307 310 311 310 312 314 316 316 314 313 311 310 309 309 310 310 311 311 312 312 313
326 326 326 326 326 323 323 323 323 326 324 325 322 321 323 323 322 319 317 315 313 307 305 307 306 306 309 312 311 310 309 308 308 308 308 308 308 309 309 309 310 310 311
327 326 326 326 324 323 324 323 323 323 324 325 321 320 321 320 320 316 315 309 310 302 304 304 304 306 307 306 304 304 306 307 307 307 307 306 306 307 308 308 309 309 309
328 326 326 326 326 326 324 323 322 322 321 322 318 318 312 314 317 315 314 307 304 301 302 301 303 305 304 300 298 300 303 304 305 305 305 305 305 306 307 307 308 308 308
329 328 327 328 328 328 328 327 324 321 319 321 319 316 308 306 306 312 308 305 299 299 300 300 303 301 298 297 297 296 298 300 302 302 303 303 304 305 305 306 306 307 307
330 329 329 329 330 329 327 325 324 323 321 318 317 314 315 312 301 299 302 302 298 296 299 299 302 298 296 295 295 294 295 296 297 298 299 301 302 303 303 304 305 305 306
333 332 330 329 328 325 324 321 319 318 319 317 314 313 310 308 308 299 294 295 296 296 297 299 299 296 294 294 294 293 293 294 295 296 297 298 299 301 302 303 304 305 305
326 329 325 324 322 319 318 315 314 316 315 313 310 305 302 300 298 295 293 293 292 294 297 299 296 294 293 293 292 291 292 293 294 295 295 296 297 300 302 304 306 306 306
318 320 319 315 313 311 309 308 310 308 307 303 300 298 298 296 296 295 294 292 291 294 295 297 295 293 292 292 292 291 292 292 293 294 295 295 298 300 300 302 303 303 304
320 316 313 309 307 305 303 304 304 301 300 299 297 296 295 294 294 294 293 292 290 292 292 291 295 293 292 292 292 291 292 290 292 293 294 295 297 298 298 299 300 300 301
312 309 307 304 302 300 299 300 299 296 296 296 295 295 294 293 293 293 293 293 291 288 289 291 290 292 291 292 291 291 291 289 291 292 294 296 295 296 296 297 298 298 299
308 303 301 299 297 297 296 297 296 295 294 293 293 293 292 292 291 292 292 292 292 290 288 290 289 290 291 290 291 291 289 289 289 291 294 294 294 294 294 294 295 295 296
305 300 298 296 294 294 295 294 293 293 292 291 291 291 290 290 290 290 291 290 290 289 287 289 290 290 289 289 290 290 289 289 288 289 291 293 293 292 292 292 292 292 293
301 297 295 294 292 293 293 292 290 290 290 290 290 289 288 288 288 289 289 288 289 289 287 285 288 288 288 289 289 288 287 288 287 287 289 290 291 291 291 290 290 290 290
298 293 292 291 292 292 291 291 290 290 290 290 289 288 288 288 288 288 288 288 288 287 288 286 286 288 288 289 287 287 287 287 287 286 287 286 288 289 289 289 289 289 288
294 291 292 290 291 291 290 289 289 289 289 289 289 288 288 288 288 287 287 287 287 287 287 286 286 286 287 287 287 283 283 286 285 286 286 284 285 286 288 287 287 286 287
292 289 289 289 290 289 288 288 288 288 288 287 287 287 287 286 285 287 287 286 286 286 286 285 285 285 285 284 282 283 282 282 286 286 285 285 284 284 284 287 286 286 285
287 287 287 286 288 286 289 289 288 287 287 286 286 286 286 284 285 286 286 285 286 285 285 284 284 283 283 283 283 281 281 280 279 287 284 284 284 283 283 286 286 286 285
286 286 285 286 286 287 289 288 287 286 286 286 285 285 284 284 284 285 285 286 286 286 286 285 283 284 283 285 283 281 281 280 279 283 283 282 284 283 282 282 284 284 285
284 283 285 286 286 287 289 288 286 286 286 285 285 285 284 284 284 284 284 284 284 285 285 286 286 286 285 286 284 282 281 280 281 283 283 279 284 282 282 281 280 281 282
282 283 284 284 285 286 289 288 286 285 283 283 283 283 283 283 283 284 284 283 283 284 286 286 287 288 288 285 284 282 279 278 280 283 282 280 282 281 282 280 279 277 278
283 282 282 284 285 285 288 287 285 284 283 282 282 281 281 282 282 283 284 283 281 282 284 285 285 286 287 283 282 281 281 278 278 280 281 279 281 280 279 279 277 276 275

GFSMA_sfc_thetae_105.txt.gz
Theta_e
327 328 328 329 330 330 329 329 328 328 327 327 327 327 327 328 328 328 325 317 323 326 322 320 320 321 321 322 322 322 323 322 320 319 318 318 317 317 317 317 318 318 319
329 329 330 330 330 330 330 329 328 328 327 327 326 327 328 328 327 326 325 320 320 320 315 316 317 319 320 321 322 321 321 319 316 315 313 313 313 313 314 314 314 315 315
330 330 330 330 330 331 330 329 328 327 327 327 326 327 327 326 325 324 323 322 320 317 314 313 314 316 318 320 320 316 315 314 312 312 312 312 311 312 312 312 312 313 313
329 329 329 329 330 330 329 328 326 324 325 324 324 326 326 326 324 320 319 318 315 308 312 311 311 314 316 316 313 312 312 312 311 311 310 310 310 310 310 310 311 311 311
330 330 329 329 329 329 329 327 325 326 324 322 323 323 324 324 321 318 317 312 310 306 306 310 310 311 311 309 309 310 311 310 310 309 309 309 309 309 309 310 310 310 310
330 329 328 328 328 328 326 326 324 327 326 325 321 321 323 322 320 318 315 309 304 305 305 305 307 307 306 304 305 307 309 309 308 307 307 307 308 308 308 308 309 309 309
330 329 328 328 328 326 326 325 326 325 326 325 321 320 319 320 317 315 313 308 302 303 303 303 305 305 301 301 302 304 306 307 307 306 306 306 306 306 307 307 308 308 308
331 328 329 327 327 324 325 324 323 324 323 323 317 317 312 314 316 312 310 304 301 302 301 302 302 299 298 297 297 300 302 304 305 305 304 305 305 306 306 307 309 309 309
331 330 327 328 327 326 327 326 325 323 321 321 320 316 310 307 306 311 306 303 299 300 300 302 299 297 296 296 295 294 298 300 301 302 303 303 304 306 307 307 309 309 309
331 330 328 327 327 329 327 328 325 324 321 319 318 315 315 311 302 300 303 301 298 297 298 300 298 296 294 294 294 293 295 297 298 299 300 301 305 306 306 307 307 307 308
333 332 331 330 329 328 327 323 323 321 321 320 317 314 310 306 306 300 295 296 297 296 298 298 297 295 293 293 293 292 294 295 296 296 297 299 301 303 304 305 305 305 306
330 331 331 330 328 325 322 320 318 318 318 318 315 311 305 302 300 296 295 295 293 295 297 297 295 293 293 293 292 292 293 294 295 296 296 298 299 300 301 303 303 303 303
327 327 327 323 322 319 315 313 313 313 314 310 305 301 300 298 297 296 294 293 292 294 296 297 295 293 292 292 292 291 292 292 294 295 298 297 298 298 299 300 301 301 301
326 327 324 321 318 313 309 308 307 306 306 303 300 299 296 296 296 295 294 293 291 292 293 292 294 292 292 292 291 292 290 291 293 295 296 296 296 296 297 297 298 298 298
326 323 320 314 310 307 305 304 301 299 301 300 298 297 296 294 295 294 294 294 291 288 289 291 290 292 292 292 290 291 289 290 291 293 295 294 294 294 295 295 295 295 296
321 317 313 310 304 302 301 300 297 298 297 296 296 295 294 293 293 293 293 292 292 290 288 290 290 291 291 290 291 290 289 290 289 291 293 293 293 293 293 293 293 293 294
316 313 309 306 303 298 298 298 296 296 294 293 294 293 292 292 291 291 292 291 291 290 288 289 290 290 289 289 290 290 289 288 288 288 290 290 291 292 291 291 291 291 291
313 312 306 302 298 296 295 295 294 293 292 291 291 291 289 290 289 290 290 290 290 289 288 286 288 288 288 289 288 287 287 288 287 287 288 288 289 290 290 290 289 289 289
306 303 300 299 296 294 293 294 292 292 292 291 290 289 288 288 288 288 289 289 289 287 288 287 286 288 288 287 286 286 285 286 287 287 287 286 287 288 290 289 288 287 287
301 298 299 297 294 293 292 291 291 290 290 290 290 290 288 288 288 288 288 288 287 287 286 285 285 285 285 285 285 283 282 283 283 286 286 285 285 286 287 288 287 286 286
298 296 295 292 291 291 290 289 289 289 289 288 288 287 288 287 288 289 287 287 287 286 285 285 284 284 284 283 282 283 281 282 282 283 284 284 282 283 284 285 285 286 286
291 292 289 289 288 289 291 291 289 288 287 286 286 286 286 284 285 286 286 287 288 285 283 283 284 283 282 282 284 282 281 280 278 284 281 282 281 282 282 281 285 285 285
289 287 288 287 286 286 291 290 289 287 286 286 286 285 284 284 285 285 286 286 286 287 286 284 283 283 282 282 280 280 280 280 279 282 282 279 282 280 281 281 282 283 284
286 286 285 286 286 286 290 289 287 286 286 286 285 285 284 284 284 284 284 284 284 284 284 284 284 284 284 285 284 283 281 280 280 281 282 277 281 281 283 278 280 280 281
284 285 285 286 286 286 290 288 286 285 284 284 284 284 284 283 284 285 284 283 283 284 286 286 286 287 288 289 286 283 280 278 277 282 282 280 279 281 281 281 277 278 278
284 283 284 285 286 286 289 288 286 285 283 282 282 282 282 283 284 284 283 283 281 283 283 283 283 285 286 286 286 283 281 277 278 278 281 278 280 280 276 277 276 275 274

GFSMA_sfc_thetae_108.txt.gz
Theta_e
320 320 322 323 323 323 323 321 321 322 321 322 322 322 322 322 321 320 316 318 319 317 319 320 321 323 323 322 318 317 316 316 315 314 313 313 313 313 313 314 314 314 314
322 323 323 324 323 323 323 322 322 321 321 321 321 322 322 321 321 319 316 316 317 316 315 317 320 321 320 317 315 316 316 315 313 312 312 312 312 312 312 312 313 313 313
324 324 324 324 324 324 324 323 322 321 321 322 321 323 323 320 319 317 316 314 310 313 313 314 318 316 314 315 314 314 314 313 312 311 311 311 311 311 311 311 311 311 311
325 324 324 324 324 324 323 321 320 319 319 319 319 317 319 319 315 313 309 305 300 303 310 312 312 310 310 312 312 312 312 312 311 310 309 309 310 310 310 310 310 311 312
325 324 324 325 325 323 322 321 318 319 317 317 317 316 319 315 312 311 306 300 300 300 301 310 309 306 305 308 309 310 311 310 309 308 308 308 308 309 309 310 312 311 311
326 324 323 322 323 322 321 319 317 319 321 320 318 318 316 314 311 308 302 298 299 298 300 302 301 299 302 304 305 308 309 309 308 307 307 307 309 310 310 310 311 311 310
326 324 323 322 322 321 320 320 319 319 321 321 313 315 312 314 309 306 301 295 297 297 299 299 296 294 294 300 301 304 306 307 307 306 306 308 308 309 309 310 309 310 309
326 324 323 322 322 319 319 319 319 319 319 319 311 310 306 310 308 304 299 294 294 296 298 296 294 292 292 292 294 300 303 304 305 305 305 307 307 307 308 308 308 308 308
326 324 323 323 322 323 322 321 322 320 317 317 315 310 303 301 302 302 296 292 292 293 295 294 293 292 291 290 290 293 299 301 302 303 304 305 305 306 307 307 306 307 306
327 326 324 323 325 324 323 321 323 322 319 315 314 311 308 304 295 294 295 290 291 293 293 293 291 291 290 290 290 294 296 297 299 300 302 303 304 305 305 305 305 305 305
328 327 326 324 323 324 324 323 321 321 320 317 314 308 305 299 299 293 289 289 290 291 293 292 290 289 290 289 288 291 294 296 297 298 299 300 301 302 302 303 303 304 303
327 327 326 324 324 324 322 322 320 319 318 316 312 308 302 297 296 290 289 288 287 289 292 291 289 289 288 288 290 292 293 295 297 297 297 298 298 299 300 301 301 301 301
325 325 326 325 324 324 322 318 316 315 314 312 307 301 296 294 293 292 289 287 286 288 291 290 289 288 290 288 288 291 291 293 295 296 296 296 297 297 297 298 298 298 298
326 326 326 326 324 320 316 314 311 310 308 304 299 295 292 291 291 291 290 288 285 286 287 289 288 288 288 288 289 291 287 291 293 296 295 294 295 295 295 296 296 296 296
325 323 323 320 314 311 311 309 308 303 301 298 296 292 291 290 290 289 290 289 288 284 285 286 285 287 287 287 289 286 285 290 291 293 293 294 293 293 294 294 294 294 295
323 320 320 315 310 309 307 304 300 299 298 296 293 291 289 289 289 289 289 289 288 286 283 286 286 287 287 288 289 286 286 288 289 290 290 291 292 292 292 292 292 292 292
322 319 315 310 308 305 304 300 297 296 295 293 292 290 289 289 288 288 288 288 287 286 285 285 286 286 286 285 286 286 286 285 284 287 288 289 290 290 290 291 291 290 290
318 315 310 307 304 303 301 298 296 295 293 290 290 288 287 289 287 287 287 287 287 286 286 284 285 285 285 285 285 283 285 286 284 286 287 288 288 289 289 289 289 288 288
311 309 308 304 302 301 298 297 295 293 291 290 289 288 287 286 285 285 286 286 286 287 286 284 284 284 284 283 282 282 282 282 285 287 287 286 286 287 289 288 288 287 287
306 304 305 303 302 299 297 295 293 291 290 290 288 287 286 286 285 285 285 285 285 284 284 284 283 282 281 282 280 279 278 278 278 284 286 285 285 285 286 287 287 286 286
303 302 300 299 298 296 295 293 291 290 289 288 287 286 286 286 288 287 286 284 284 283 283 283 283 279 279 279 280 280 281 281 278 277 276 277 277 277 279 282 283 285 286
294 294 292 292 292 293 293 292 290 288 287 287 286 284 284 284 288 290 290 289 287 285 283 282 282 280 280 280 279 278 280 279 277 283 281 281 277 274 277 276 284 284 285
290 290 289 288 288 288 292 292 290 287 286 286 285 284 283 283 284 284 287 288 287 288 287 284 282 280 278 280 278 275 280 279 279 281 281 278 273 274 277 281 283 283 283
288 287 287 287 287 286 292 291 289 286 286 285 285 284 283 282 283 283 283 283 283 284 284 284 282 281 283 284 282 282 281 279 280 281 281 277 276 281 281 278 284 281 281
285 285 285 285 285 287 291 290 287 285 284 284 284 284 283 282 285 286 283 282 282 283 286 287 287 287 287 287 286 281 278 277 276 279 281 280 278 279 277 274 277 280 278
284 284 284 285 285 286 290 289 287 285 284 283 282 282 283 283 286 286 282 282 280 281 282 281 281 284 285 284 288 283 279 277 277 276 276 279 274 276 271 274 275 275 274

GFSMA_sfc_thetae_111.txt.gz
Theta_e
318 319 319 320 321 321 320 319 319 320 319 320 320 320 320 319 316 315 314 315 318 318 321 323 324 319 318 317 317 317 316 315 314 313 313 313 313 313 313 313 313 314 314
319 319 320 321 321 321 320 320 320 319 319 320 320 322 322 319 316 314 313 311 316 317 319 321 317 317 317 316 316 316 315 314 312 312 312 312 312 312 312 314 314 314 314
320 321 321 321 322 322 322 321 320 318 319 322 321 321 321 318 315 314 311 306 308 314 316 314 313 313 314 315 315 314 313 312 311 311 310 310 311 312 313 312 312 313 312
322 321 321 321 322 322 321 320 318 317 317 317 319 316 319 314 310 305 302 301 302 305 310 310 308 309 311 312 313 313 312 311 310 309 310 312 311 311 312 311 311 311 311
323 321 321 321 322 321 319 319 316 316 315 315 317 314 317 310 307 302 298 299 301 302 303 305 303 304 306 309 310 311 311 310 309 308 310 309 310 310 310 310 310 310 310
323 321 321 321 321 320 319 318 316 316 316 316 316 318 314 309 304 298 296 298 298 299 298 296 293 297 301 304 307 309 309 309 308 308 308 309 309 309 309 309 309 309 308
323 322 321 320 320 319 319 318 316 314 315 319 312 314 313 308 305 297 295 295 296 297 294 293 292 291 292 299 303 306 308 308 307 307 308 307 308 307 308 308 307 307 307
324 323 322 320 320 318 317 317 316 315 316 317 310 311 308 310 302 297 293 295 294 296 293 292 290 291 290 290 295 301 303 305 306 306 306 306 307 307 307 307 306 306 306
325 324 322 321 320 319 318 317 316 316 316 317 315 309 302 301 302 298 291 292 292 294 291 290 290 290 289 288 291 294 299 301 304 304 304 304 305 305 305 305 305 305 304
325 324 323 323 321 321 319 319 319 317 318 314 313 312 308 302 297 293 292 289 291 293 291 289 288 289 289 288 291 294 297 299 299 300 301 302 303 303 304 304 303 303 303
326 325 324 323 322 321 321 320 319 319 320 316 313 309 305 300 298 293 289 287 289 291 290 288 287 287 288 288 288 292 296 298 297 298 298 299 300 301 302 302 302 302 301
326 325 325 323 323 322 321 320 320 321 320 317 314 310 304 299 296 290 288 286 285 288 289 288 287 287 287 287 291 292 294 296 297 297 297 297 297 298 299 300 300 300 299
325 325 324 323 322 322 321 321 320 320 318 316 313 310 304 298 296 292 288 286 285 288 288 287 287 287 288 287 289 290 292 294 296 296 295 296 296 296 296 297 297 297 297
326 327 325 325 323 322 321 320 320 319 315 312 309 302 299 295 292 291 289 287 284 285 287 287 287 287 287 287 290 289 289 292 294 295 295 294 294 294 295 295 295 295 295
326 326 324 324 323 321 320 318 318 314 313 308 304 298 295 292 290 290 290 289 287 283 285 285 284 287 287 287 288 286 286 290 291 292 292 292 292 293 293 294 293 293 293
325 323 322 322 322 318 314 312 309 305 304 300 298 294 292 291 289 289 288 288 288 286 284 286 285 286 287 288 289 286 286 289 289 289 289 290 290 291 291 292 292 292 292
323 321 321 320 317 314 311 311 308 303 302 296 293 293 291 290 288 287 287 287 286 286 284 284 286 286 286 286 286 285 285 284 284 288 288 288 289 289 290 290 290 290 289
323 323 320 317 314 311 309 308 304 302 300 295 292 290 290 289 287 287 287 286 286 286 286 283 284 284 284 285 286 283 284 285 283 287 288 288 288 288 288 288 288 288 288
323 320 316 314 310 308 306 306 304 300 298 296 293 291 289 288 286 286 286 286 286 286 285 283 283 284 284 284 284 282 281 281 284 287 288 288 287 287 288 287 287 287 286
312 312 313 312 309 306 305 304 302 298 296 296 293 290 289 288 287 286 285 285 285 283 283 282 282 282 283 283 282 281 277 278 279 283 286 285 286 286 286 286 286 286 286
307 306 304 303 302 302 302 300 298 296 294 291 290 289 288 287 288 288 286 284 285 282 282 282 282 281 282 282 281 280 278 279 279 279 278 278 277 279 278 284 283 285 286
298 298 297 297 298 300 297 296 295 294 290 289 288 286 286 285 288 289 290 289 287 284 283 282 282 282 283 282 281 279 277 277 276 280 281 281 278 276 276 276 284 284 284
292 292 292 291 291 292 294 294 292 291 289 289 287 286 284 285 286 287 290 289 289 289 288 284 283 283 282 282 279 274 277 278 279 280 280 278 275 273 274 282 286 284 283
290 289 289 289 289 288 293 293 290 287 287 287 286 286 285 284 285 285 285 284 284 284 285 285 284 284 283 283 281 280 279 278 280 280 281 276 278 274 279 275 286 285 282
286 286 285 286 286 286 292 292 289 286 285 285 285 285 285 284 286 287 284 283 282 282 287 287 287 287 287 287 285 282 275 274 274 277 280 279 278 275 275 273 277 285 282
285 284 284 285 285 286 291 291 288 285 285 284 284 284 284 284 286 287 283 282 280 281 282 281 282 285 287 286 288 285 282 276 275 275 278 279 277 276 271 273 275 276 276

GFSMA_sfc_thetae_114.txt.gz
Theta_e
317 317 316 317 317 318 318 318 318 319 318 319 319 319 318 314 314 311 309 315 320 322 324 320 319 318 318 317 316 316 315 314 313 313 313 313 314 315 315 314 314 314 313
318 317 317 319 319 319 319 318 318 318 318 319 320 322 319 316 313 310 308 310 317 321 318 317 317 317 317 317 316 315 314 313 312 312 313 313 313 313 312 312 312 313 312
317 317 318 319 319 320 319 319 318 317 317 321 320 321 320 316 312 307 305 306 309 315 313 312 313 314 315 315 315 314 313 312 311 313 311 312 312 312 312 312 311 311 310
319 319 319 319 320 320 319 318 316 315 314 313 316 319 316 314 311 306 304 302 303 305 307 307 309 310 312 313 313 313 312 311 311 310 311 311 311 310 310 309 309 309 310
321 320 320 320 320 320 319 318 315 314 313 313 314 317 313 307 300 299 299 301 303 301 298 303 304 304 307 310 311 311 311 310 310 309 309 310 309 309 309 308 308 308 307
321 320 320 320 320 318 317 316 315 315 314 312 315 316 311 306 299 296 296 299 300 298 294 292 293 296 303 306 308 309 309 308 308 308 308 308 308 308 308 307 307 307 307
321 319 319 319 319 318 318 317 315 313 313 315 314 312 311 307 298 294 295 296 296 294 291 291 290 289 291 302 304 306 307 308 308 307 307 307 307 307 307 306 306 305 305
322 320 319 319 318 317 316 316 314 313 312 315 311 311 307 305 299 294 294 296 293 292 290 290 290 288 288 290 296 302 304 306 306 306 305 306 306 306 306 305 304 305 304
322 322 321 320 319 318 317 315 315 314 312 314 315 309 304 304 300 295 291 292 292 290 288 289 289 288 288 288 291 294 300 302 303 304 304 304 304 304 304 304 304 303 303
323 323 322 321 321 319 318 317 317 315 314 313 313 312 309 304 300 292 290 289 291 289 287 288 288 288 287 288 292 296 298 298 300 300 301 302 302 303 303 303 303 302 302
324 324 323 322 321 319 319 318 315 316 317 314 313 309 306 302 299 295 287 285 288 290 288 287 287 287 287 287 288 292 297 298 297 298 298 299 300 301 302 301 301 300 300
324 324 323 323 322 321 319 318 318 317 317 317 316 310 306 303 299 294 290 284 285 288 288 287 286 286 286 286 291 294 295 297 296 296 296 297 297 298 299 300 299 299 299
322 324 324 322 322 321 320 320 318 318 317 318 316 313 308 304 301 296 291 288 284 286 287 286 286 286 287 286 288 291 293 295 295 295 295 295 295 296 296 297 297 297 297
323 324 324 324 322 321 320 319 319 318 318 318 317 313 309 305 298 295 292 288 283 284 286 285 285 286 286 286 288 291 289 292 294 294 294 293 293 294 294 295 295 295 295
323 324 323 323 323 321 320 319 318 317 317 317 316 312 308 304 298 295 292 291 287 282 283 284 283 285 286 287 288 286 287 291 292 292 291 292 291 292 292 293 293 293 293
323 322 322 322 322 321 320 319 318 319 316 314 312 306 302 296 295 292 290 290 287 285 282 285 284 285 286 287 288 285 287 290 290 290 290 290 290 290 291 291 291 291 291
323 322 322 322 321 321 321 319 319 317 311 312 302 303 302 292 291 288 289 288 286 285 283 282 284 285 285 285 286 285 287 286 287 289 289 289 289 289 289 289 289 289 289
323 323 322 321 320 321 320 316 316 312 309 308 303 298 296 292 289 290 289 288 287 286 286 282 283 283 283 285 285 284 285 286 285 287 289 289 289 289 289 288 288 288 287
322 320 321 320 319 319 316 314 315 311 308 308 305 298 295 293 290 289 288 287 287 287 286 282 281 282 283 284 283 283 283 283 284 286 289 289 289 289 289 289 288 287 287
321 320 320 320 318 315 312 311 310 308 305 304 302 300 298 294 294 290 287 287 286 285 284 282 281 281 282 282 282 282 280 281 282 283 286 286 287 287 288 288 287 286 286
311 311 310 309 309 307 307 307 307 305 303 300 297 296 295 292 292 290 288 286 286 284 283 282 282 281 280 281 281 281 281 281 280 281 279 279 280 280 283 286 285 285 286
298 298 296 296 298 301 299 298 299 299 296 293 291 290 288 286 290 291 289 289 288 285 284 282 282 282 281 280 281 281 280 278 276 277 276 277 281 278 278 279 284 286 286
293 293 293 293 293 293 294 295 293 292 291 290 289 287 286 286 287 288 289 290 289 289 288 285 283 282 281 282 282 279 279 278 278 279 278 278 277 278 277 280 286 287 286
290 290 291 290 290 290 293 294 291 290 288 288 287 287 286 285 286 286 286 286 285 286 286 285 284 283 283 284 283 282 281 279 279 280 279 276 278 276 278 278 286 286 286
287 287 286 287 286 287 291 293 290 286 286 285 285 286 286 286 287 288 285 285 284 283 288 288 287 288 288 287 284 281 278 276 275 277 279 277 278 277 277 277 279 286 286
285 284 285 285 285 286 290 292 289 285 285 284 284 284 285 285 288 289 285 285 282 283 282 280 282 285 286 285 287 284 282 277 275 275 279 277 276 278 274 276 277 277 280

GFSMA_sfc_thetae_117.txt.gz
Theta_e
315 314 313 313 314 315 316 315 316 317 316 317 317 317 314 314 309 308 309 315 321 324 321 319 318 317 317 317 316 315 315 314 314 314 314 314 313 313 314 313 312 313 313
316 316 315 316 316 317 317 317 316 316 316 317 318 321 317 315 309 307 308 311 320 320 318 317 316 316 316 316 315 315 314 313 313 313 313 312 313 312 312 312 311 311 310
317 317 316 316 318 318 317 317 317 316 316 318 317 321 317 313 307 305 305 306 308 314 313 313 313 314 314 315 314 313 313 313 312 312 312 312 311 311 310 309 310 309 309
318 316 316 317 318 318 317 316 316 314 313 313 314 316 316 312 307 304 304 304 303 303 306 309 309 311 312 313 313 312 311 312 311 311 311 310 310 310 309 309 309 308 307
318 316 317 318 319 318 317 317 315 313 312 312 313 313 312 311 306 303 300 302 302 298 297 304 304 306 309 310 311 311 310 310 310 310 309 309 309 308 308 308 307 306 307
320 318 317 318 318 316 316 315 314 313 312 311 314 310 307 302 299 300 299 301 297 294 292 293 292 295 305 307 308 309 309 309 308 308 308 307 307 307 307 306 306 306 305
319 318 317 317 317 317 316 315 314 313 312 312 309 308 306 301 297 297 298 297 294 291 289 289 288 289 291 302 305 306 308 308 307 307 306 306 306 306 306 306 305 305 305
320 320 318 317 317 316 315 314 313 311 311 312 308 308 304 302 297 296 296 296 291 290 289 289 287 288 288 290 297 303 305 305 305 304 305 304 304 304 305 305 304 304 304
321 320 319 319 318 318 317 315 314 312 310 310 311 309 305 302 297 293 294 295 290 288 288 288 287 287 288 288 291 294 301 302 303 303 302 303 303 303 304 304 303 303 302
321 321 320 319 318 318 317 317 316 315 311 309 311 313 309 306 300 292 291 290 291 289 287 287 287 286 287 288 292 295 298 299 299 300 300 301 301 302 302 302 302 302 302
321 321 321 320 319 319 319 318 314 314 315 312 310 307 306 302 301 296 290 288 291 290 287 287 287 286 286 287 288 291 297 298 297 297 297 298 298 300 300 300 300 300 300
320 321 321 321 320 320 319 318 317 315 316 316 314 309 307 304 299 295 292 288 288 290 289 286 286 285 285 285 289 293 296 298 297 296 296 296 296 297 298 298 298 299 298
319 320 321 321 321 321 320 319 317 316 316 315 315 315 312 310 304 299 295 288 287 288 289 288 286 286 286 285 287 292 294 297 297 296 295 294 294 295 295 296 296 296 296
321 322 322 322 321 321 320 319 318 317 317 316 316 316 315 311 304 299 297 291 283 285 285 287 285 285 285 285 288 292 289 294 296 296 294 293 293 293 293 294 294 294 294
321 320 321 321 322 321 320 319 318 318 317 316 317 317 315 314 307 306 301 294 301 284 284 285 284 285 285 286 287 287 286 291 295 294 294 293 291 291 292 292 293 293 293
320 319 320 320 320 321 320 319 319 319 318 317 317 317 316 315 308 304 296 292 296 299 296 287 286 286 286 287 287 285 286 290 292 293 292 292 291 290 290 290 290 291 291
320 319 320 320 320 320 320 320 319 320 318 317 317 315 314 312 306 298 295 294 291 290 293 284 286 285 285 285 286 285 285 286 287 290 291 291 291 291 290 290 289 289 289
318 320 320 319 320 321 321 320 319 318 317 315 314 308 309 305 302 299 296 296 294 290 288 284 284 283 283 286 285 283 285 286 285 288 290 291 291 290 290 290 289 289 288
319 320 320 320 320 320 320 320 320 318 316 315 314 309 308 302 300 299 296 295 292 290 287 285 283 284 284 283 283 283 282 284 285 287 289 290 291 290 290 290 290 289 288
319 318 319 321 320 320 319 319 317 315 314 312 311 310 307 301 301 298 294 292 289 287 286 285 283 283 283 283 283 282 281 282 282 284 286 287 288 289 290 290 289 288 287
310 311 312 311 309 309 309 310 308 307 305 304 299 298 298 295 292 294 291 288 288 286 285 284 283 282 282 281 282 282 282 281 281 282 281 282 282 282 283 288 287 287 287
298 298 297 297 299 301 298 299 299 299 297 295 294 292 291 288 291 291 291 291 290 287 285 284 283 283 283 283 282 281 280 279 277 280 279 280 281 280 281 280 286 287 287
293 293 293 293 293 294 294 296 294 294 293 292 290 288 286 286 287 288 290 290 289 290 289 286 285 284 284 284 283 280 280 279 279 280 279 277 279 278 278 282 287 287 288
290 290 289 290 291 290 293 294 292 291 290 289 289 288 287 286 286 287 287 286 286 287 287 286 286 285 286 286 285 283 281 279 278 280 279 273 276 277 276 279 285 287 288
286 286 285 285 286 286 290 292 291 287 287 286 286 286 286 285 288 289 286 285 285 285 288 289 288 288 288 288 285 281 277 278 274 277 280 277 277 277 277 278 280 287 288
284 285 286 285 285 286 289 291 288 285 285 284 284 284 285 286 289 289 286 285 284 284 284 284 284 286 287 286 287 282 280 278 276 275 279 277 277 278 275 277 277 278 280

GFSMA_sfc_thetae_120.txt.gz
Theta_e
314 313 313 312 312 313 314 314 314 315 315 315 316 315 315 311 309 307 309 316 323 322 320 319 318 317 317 316 315 315 314 314 314 314 313 314 313 312 312 311 311 311 311
315 313 312 313 313 314 315 315 315 315 315 316 316 317 316 311 309 307 308 312 319 319 318 316 316 316 316 315 315 314 314 313 313 313 312 312 311 311 311 311 311 310 309
316 315 314 314 315 316 316 316 315 315 314 316 315 317 315 310 308 307 308 305 307 314 314 313 313 314 314 314 313 312 312 312 311 311 310 311 311 310 310 309 309 308 308
318 315 315 315 316 317 316 314 314 313 313 312 313 313 311 308 307 305 306 302 301 301 307 309 309 311 311 312 312 311 310 310 310 310 309 309 309 309 309 308 308 308 307
318 316 314 315 316 316 315 315 314 312 311 310 312 310 311 307 305 304 304 302 299 297 298 304 304 306 308 309 310 310 309 309 308 308 308 308 308 308 307 307 307 306 306
319 316 315 315 316 315 315 314 313 311 311 310 313 307 302 303 302 301 303 302 296 294 293 292 292 295 305 307 308 308 308 308 307 307 306 307 307 306 306 306 306 305 305
318 316 315 315 315 316 316 314 313 312 310 310 306 304 300 296 299 300 301 300 294 291 290 290 288 290 292 302 306 307 307 307 306 305 306 305 305 305 305 305 305 305 305
319 319 317 316 315 315 314 313 312 310 310 311 306 304 300 298 294 295 299 299 293 290 289 288 287 288 289 290 295 304 306 306 306 304 303 304 304 304 304 304 304 303 304
319 319 317 318 316 316 316 315 314 311 310 309 309 306 303 299 294 292 293 297 293 288 288 288 287 287 288 289 294 295 302 304 304 303 302 302 302 303 303 303 302 302 302
319 318 319 318 317 317 317 316 316 315 311 311 308 310 307 304 297 292 290 293 294 291 289 287 287 286 287 287 292 294 299 301 301 300 300 301 301 301 301 301 301 301 301
319 319 319 317 318 317 317 317 314 315 314 315 311 306 304 301 299 297 295 289 292 293 291 288 289 288 287 287 288 291 298 300 298 298 298 298 298 299 300 300 300 300 300
317 318 319 319 319 319 318 317 317 315 316 315 316 312 307 301 298 295 293 290 290 290 291 288 287 287 285 287 289 293 298 299 299 298 297 297 296 296 297 298 298 298 298
317 317 318 318 319 319 319 318 316 316 315 315 315 315 313 310 303 299 301 297 290 290 287 287 287 287 287 287 289 292 296 298 299 297 297 296 295 295 295 295 295 296 296
320 320 318 319 319 319 319 318 318 317 317 316 316 315 316 314 312 308 307 303 293 287 285 287 286 287 288 287 289 292 290 296 298 298 297 295 294 294 293 293 294 294 294
321 319 319 319 319 319 318 318 318 317 317 316 316 316 316 316 314 311 310 308 307 304 291 287 286 288 288 288 289 290 289 292 295 297 297 295 294 294 293 292 292 292 293
320 317 317 318 319 319 318 318 319 319 318 317 317 316 316 317 317 314 311 308 305 307 305 290 288 287 288 288 289 288 287 290 294 296 295 295 294 293 292 292 291 290 290
318 317 317 318 318 318 318 319 319 319 318 317 317 316 315 317 316 315 308 306 303 303 302 286 286 286 286 286 287 286 286 287 288 293 294 294 293 293 292 292 291 290 289
317 317 317 317 317 318 319 318 318 318 317 317 317 316 315 314 313 312 305 304 301 296 295 286 285 285 285 286 287 285 285 286 285 289 292 292 292 293 292 292 292 290 289
315 315 317 317 318 318 319 319 319 319 318 317 317 316 314 312 308 307 301 299 296 291 290 288 285 285 285 285 284 284 284 284 285 287 290 291 292 292 292 292 291 291 290
316 316 317 318 318 318 318 319 318 318 317 316 313 310 309 305 303 302 296 294 291 289 288 286 284 284 284 284 285 283 282 282 283 285 287 287 288 290 292 292 291 291 289
307 309 311 310 309 309 306 307 307 306 305 304 301 299 297 293 293 296 294 290 289 288 287 286 284 283 282 282 282 283 283 282 282 283 282 283 284 283 285 289 289 289 289
297 296 296 295 296 298 295 296 297 299 297 295 294 292 292 288 292 293 293 292 291 287 286 286 285 284 284 284 284 283 283 280 279 281 278 281 282 281 282 283 287 289 289
292 291 292 292 292 292 294 295 293 294 293 293 291 289 288 287 287 288 291 292 291 293 291 288 285 285 284 285 284 282 281 280 277 278 280 278 278 279 281 282 287 288 289
289 288 287 287 287 288 292 293 291 290 290 289 289 288 288 287 287 287 287 286 286 286 287 286 286 286 286 286 285 284 282 277 276 279 278 273 273 274 276 277 285 287 288
286 286 285 285 284 285 291 292 288 286 286 285 286 287 287 286 288 289 286 285 285 285 288 289 289 289 290 289 286 282 279 278 274 274 277 274 274 274 275 273 276 285 287
284 285 285 285 285 286 291 291 287 285 285 284 284 284 285 286 288 290 286 285 284 284 285 285 285 287 288 287 288 283 280 271 268 269 275 275 273 274 272 273 276 277 279